[[{"header":{"parameterUnit":"m.s-1","parameterCategory":1,"la1":30.6,"la2":28.766,"lo1":-90.7593,"lo2":-88.6598,"dy":0.0162,"dx":0.0183,"nx":116,"ny":114,"refTime":"2023-06-17T00:00:00:Z","depth":0,"parameterNumber":2,"parameterNumberName":"U-component_of_WINDS"},"data":[0.0,0.0,0.0,0.0,0.0,0.0,0.0,0.0,0.0,0.0,0.0,0.0,0.0,0.0,0.0,0.0,0.0,0.0,0.0,0.0,0.0,0.0,0.0,0.0,0.0,0.0,0.0,0.0,0.0,0.0,0.0,0.0,0.0,0.0,0.0,0.0,0.0,0.0,0.0,0.0,0.0,0.0,0.0,0.0,0.0,0.0,0.0,0.0,0.0,0.0,0.0,0.0,0.0,0.0,0.0,0.0,0.0,0.0,0.0,0.0,0.0,0.0,0.0,0.0,0.0,0.0,0.0,0.0,0.0,0.0,0.0,0.0,0.0,0.0,0.0,0.0,0.0,0.0,0.0,0.0,0.0,0.0,0.0,0.0,0.0,0.0,0.0,0.0,0.0,0.0,0.0,0.0,0.0,0.0,0.0,0.0,0.0,0.0,0.0,0.0,0.0,0.0,0.0,0.0,0.0,0.0,0.0,0.0,0.0,0.0,0.0,0.0,0.0,0.0,0.0,0.0,0.0,0.0,0.0,0.0,0.0,0.0,0.0,0.0,0.0,0.0,0.0,0.0,0.0,0.0,0.0,0.0,0.0,0.0,0.0,0.0,0.0,0.0,0.0,0.0,0.0,0.0,0.0,0.0,0.0,0.0,0.0,0.0,0.0,0.0,0.0,0.0,0.0,0.0,0.0,0.0,0.0,0.0,0.0,0.0,0.0,0.0,0.0,0.0,0.0,0.0,0.0,0.0,0.0,0.0,0.0,0.0,0.0,0.0,0.0,0.0,0.0,0.0,0.0,0.0,0.0,0.0,0.0,0.0,0.0,0.0,0.0,0.0,0.0,0.0,0.0,0.0,0.0,0.0,0.0,0.0,0.0,0.0,0.0,0.0,0.0,0.0,0.0,0.0,0.0,0.0,0.0,0.0,0.0,0.0,0.0,0.0,0.0,0.0,0.0,0.0,0.0,0.0,0.0,0.0,0.0,0.0,0.0,0.0,0.0,0.0,0.0,0.0,0.0,0.0,0.0,0.0,0.0,0.0,0.0,0.0,0.0,0.0,0.0,0.0,0.0,0.0,0.0,0.0,0.0,0.0,0.0,0.0,0.0,0.0,0.0,0.0,0.0,0.0,0.0,0.0,0.0,0.0,0.0,0.0,0.0,0.0,0.0,0.0,0.0,0.0,0.0,0.0,0.0,0.0,0.0,0.0,0.0,0.0,0.0,0.0,0.0,0.0,0.0,0.0,0.0,0.0,0.0,0.0,0.0,0.0,0.0,0.0,0.0,0.0,0.0,0.0,0.0,0.0,0.0,0.0,0.0,0.0,0.0,0.0,0.0,0.0,0.0,0.0,0.0,0.0,0.0,0.0,0.0,0.0,0.0,0.0,0.0,0.0,0.0,0.0,0.0,0.0,0.0,0.0,0.0,0.0,0.0,0.0,0.0,0.0,0.0,0.0,0.0,0.0,0.0,0.0,0.0,0.0,0.0,0.0,0.0,0.0,0.0,0.0,0.0,0.0,0.0,0.0,0.0,0.0,0.0,0.0,0.0,0.0,0.0,0.0,0.0,0.0,0.0,0.0,0.0,0.0,0.0,0.0,0.0,0.0,0.0,0.0,0.0,0.0,0.0,0.0,0.0,0.0,0.0,0.0,0.0,0.0,0.0,0.0,0.0,0.0,0.0,0.0,0.0,0.0,0.0,0.0,0.0,0.0,0.0,0.0,0.0,0.0,0.0,0.0,0.0,0.0,0.0,0.0,0.0,0.0,0.0,0.0,0.0,0.0,0.0,0.0,0.0,0.0,0.0,0.0,0.0,0.0,0.0,0.0,0.0,0.0,0.0,0.0,0.0,0.0,0.0,0.0,0.0,0.0,0.0,0.0,0.0,0.0,0.0,0.0,0.0,0.0,0.0,0.0,0.0,0.0,0.0,0.0,0.0,0.0,0.0,0.0,0.0,0.0,0.0,0.0,0.0,0.0,0.0,0.0,0.0,0.0,0.0,0.0,0.0,0.0,0.0,0.0,0.0,0.0,0.0,0.0,0.0,0.0,0.0,0.0,0.0,0.0,0.0,0.0,0.0,0.0,0.0,0.0,0.0,0.0,0.0,0.0,0.0,0.0,0.0,0.0,0.0,0.0,0.0,0.0,0.0,0.0,0.0,0.0,0.0,0.0,0.0,0.0,0.0,0.0,0.0,0.0,0.0,0.0,0.0,0.0,0.0,0.0,0.0,0.0,0.0,0.0,0.0,0.0,0.0,0.0,0.0,0.0,0.0,0.0,0.0,0.0,0.0,0.0,0.0,0.0,0.0,0.0,0.0,0.0,0.0,0.0,0.0,0.0,0.0,0.0,0.0,0.0,0.0,0.0,0.0,0.0,0.0,0.0,0.0,0.0,0.0,0.0,0.0,0.0,0.0,0.0,0.0,0.0,0.0,0.0,0.0,0.0,0.0,0.0,0.0,0.0,0.0,0.0,0.0,0.0,0.0,0.0,0.0,0.0,0.0,0.0,0.0,0.0,0.0,0.0,0.0,0.0,0.0,0.0,0.0,0.0,0.0,0.0,0.0,0.0,0.0,0.0,0.0,0.0,0.0,0.0,0.0,0.0,0.0,0.0,0.0,0.0,0.0,0.0,0.0,0.0,0.0,0.0,0.0,0.0,0.0,0.0,0.0,0.0,0.0,0.0,0.0,0.0,0.0,0.0,0.0,0.0,0.0,0.0,0.0,0.0,0.0,0.0,0.0,0.0,0.0,0.0,0.0,0.0,0.0,0.0,0.0,0.0,0.0,0.0,0.0,0.0,0.0,0.0,0.0,0.0,0.0,0.0,0.0,0.0,0.0,0.0,0.0,0.0,0.0,0.0,0.0,0.0,0.0,0.0,0.0,0.0,0.0,0.0,0.0,0.0,0.0,0.0,0.0,0.0,0.0,0.0,0.0,0.0,0.0,0.0,0.0,0.0,0.0,0.0,0.0,0.0,0.0,0.0,0.0,0.0,0.0,0.0,0.0,0.0,0.0,0.0,0.0,0.0,0.0,0.0,0.0,0.0,0.0,0.0,0.0,0.0,0.0,0.0,0.0,0.0,0.0,0.0,0.0,0.0,0.0,0.0,0.0,0.0,0.0,0.0,0.0,0.0,0.0,0.0,0.0,0.0,0.0,0.0,0.0,0.0,0.0,0.0,0.0,0.0,0.0,0.0,0.0,0.0,0.0,0.0,0.0,0.0,0.0,0.0,0.0,0.0,0.0,0.0,0.0,0.0,0.0,0.0,0.0,0.0,0.0,0.0,0.0,0.0,0.0,0.0,0.0,0.0,0.0,0.0,0.0,0.0,0.0,0.0,0.0,0.0,0.0,0.0,0.0,0.0,0.0,0.0,0.0,0.0,0.0,0.0,0.0,0.0,0.0,0.0,0.0,0.0,0.0,0.0,0.0,0.0,0.0,0.0,0.0,0.0,0.0,0.0,0.0,0.0,0.0,0.0,0.0,0.0,0.0,0.0,0.0,0.0,0.0,0.0,0.0,0.0,0.0,0.0,0.0,0.0,0.0,0.0,0.0,0.0,0.0,0.0,0.0,0.0,0.0,0.0,0.0,0.0,0.0,0.0,0.0,0.0,0.0,0.0,0.0,0.0,0.0,0.0,0.0,0.0,0.0,0.0,0.0,0.0,0.0,0.0,0.0,0.0,0.0,0.0,0.0,0.0,0.0,0.0,0.0,0.0,0.0,0.0,0.0,0.0,0.0,0.0,0.0,0.0,0.0,0.0,0.0,0.0,0.0,0.0,0.0,0.0,0.0,0.0,0.0,0.0,0.0,0.0,0.0,0.0,0.0,0.0,0.0,0.0,0.0,0.0,0.0,0.0,0.0,0.0,0.0,0.0,0.0,0.0,0.0,0.0,0.0,0.0,0.0,0.0,0.0,0.0,0.0,0.0,0.0,0.0,0.0,0.0,0.0,0.0,0.0,0.0,0.0,0.0,0.0,0.0,0.0,0.0,0.0,0.0,0.0,0.0,0.0,0.0,0.0,0.0,0.0,0.0,0.0,0.0,0.0,0.0,0.0,0.0,0.0,0.0,0.0,0.0,0.0,0.0,0.0,0.0,0.0,0.0,0.0,0.0,0.0,0.0,0.0,0.0,0.0,0.0,0.0,0.0,0.0,0.0,0.0,0.0,0.0,0.0,0.0,0.0,0.0,0.0,0.0,0.0,0.0,0.0,0.0,0.0,0.0,0.0,0.0,0.0,0.0,0.0,0.0,0.0,0.0,0.0,0.0,0.0,0.0,0.0,0.0,0.0,0.0,0.0,0.0,0.0,0.0,0.0,0.0,0.0,0.0,0.0,0.0,0.0,0.0,0.0,0.0,0.0,0.0,0.0,0.0,0.0,0.0,0.0,0.0,0.0,0.0,0.0,0.0,0.0,0.0,0.0,0.0,0.0,0.0,0.0,0.0,0.0,0.0,0.0,0.0,0.0,0.0,0.0,0.0,0.0,0.0,0.0,0.0,0.0,0.0,0.0,0.0,0.0,0.0,0.0,0.0,0.0,0.0,0.0,0.0,0.0,0.0,0.0,0.0,0.0,0.0,0.0,0.0,0.0,0.0,0.0,0.0,0.0,0.0,0.0,0.0,0.0,0.0,0.0,0.0,0.0,0.0,0.0,0.0,0.0,0.0,0.0,0.0,0.0,0.0,0.0,0.0,0.0,0.0,0.0,0.0,0.0,0.0,0.0,0.0,0.0,0.0,0.0,0.0,0.0,0.0,0.0,0.0,0.0,0.0,0.0,0.0,0.0,0.0,0.0,0.0,0.0,0.0,0.0,0.0,0.0,0.0,0.0,0.0,0.0,0.0,0.0,0.0,0.0,0.0,0.0,0.0,0.0,0.0,0.0,0.0,0.0,0.0,0.0,0.0,0.0,0.0,0.0,0.0,0.0,0.0,0.0,0.0,0.0,0.0,0.0,0.0,0.0,0.0,0.0,0.0,0.0,0.0,0.0,0.0,0.0,0.0,0.0,0.0,0.0,0.0,0.0,0.0,0.0,0.0,0.0,0.0,0.0,0.0,0.0,0.0,0.0,0.0,0.0,0.0,0.0,0.0,0.0,0.0,0.0,0.0,0.0,0.0,0.0,0.0,0.0,0.0,0.0,0.0,0.0,0.0,0.0,0.0,0.0,0.0,0.0,0.0,0.0,0.0,0.0,0.0,0.0,0.0,0.0,0.0,0.0,0.0,0.0,0.0,0.0,0.0,0.0,0.0,0.0,0.0,0.0,0.0,0.0,0.0,0.0,0.0,0.0,0.0,0.0,0.0,0.0,0.0,0.0,0.0,0.0,0.0,0.0,0.0,0.0,0.0,0.0,0.0,0.0,0.0,0.0,0.0,0.0,0.0,0.0,0.0,0.0,0.0,0.0,0.0,0.0,0.0,0.0,0.0,0.0,0.0,0.0,0.0,0.0,0.0,0.0,0.0,0.0,0.0,0.0,0.0,0.0,0.0,0.0,0.0,0.0,0.0,0.0,0.0,0.0,0.0,0.0,0.0,0.0,0.0,0.0,0.0,0.0,0.0,0.0,0.0,0.0,0.0,0.0,0.0,0.0,0.0,0.0,0.0,0.0,0.0,0.0,0.0,0.0,0.0,0.0,0.0,0.0,0.0,0.0,0.0,0.0,0.0,0.0,0.0,0.0,0.0,0.0,0.0,0.0,0.0,0.0,0.0,0.0,0.0,0.0,0.0,0.0,0.0,0.0,0.0,0.0,0.0,0.0,0.0,0.0,0.0,0.0,0.0,0.0,0.0,0.0,0.0,0.0,0.0,0.0,0.0,0.0,0.0,0.0,0.0,0.0,0.0,0.0,0.0,0.0,0.0,0.0,0.0,0.0,0.0,0.0,0.0,0.0,0.0,0.0,0.0,0.0,0.0,0.0,0.0,0.0,0.0,0.0,0.0,0.0,0.0,0.0,0.0,0.0,0.0,0.0,0.0,0.0,0.0,0.0,0.0,0.0,0.0,0.0,0.0,0.0,0.0,0.0,0.0,0.0,0.0,0.0,0.0,0.0,0.0,0.0,0.0,0.0,0.0,0.0,0.0,0.0,0.0,0.0,0.0,0.0,-3.7075,0.0,0.0,0.0,0.0,0.0,0.0,0.0,0.0,0.0,0.0,0.0,0.0,0.0,0.0,0.0,0.0,0.0,0.0,0.0,0.0,0.0,0.0,0.0,0.0,0.0,0.0,0.0,0.0,0.0,0.0,0.0,0.0,0.0,0.0,0.0,0.0,0.0,0.0,0.0,0.0,0.0,0.0,0.0,0.0,0.0,0.0,0.0,0.0,0.0,0.0,0.0,0.0,0.0,0.0,0.0,0.0,0.0,0.0,0.0,0.0,0.0,0.0,0.0,0.0,0.0,0.0,0.0,0.0,0.0,0.0,0.0,0.0,0.0,0.0,0.0,0.0,0.0,0.0,0.0,0.0,0.0,0.0,0.0,0.0,0.0,0.0,0.0,0.0,0.0,0.0,0.0,0.0,0.0,0.0,0.0,0.0,0.0,0.0,0.0,0.0,0.0,0.0,0.0,0.0,0.0,0.0,0.0,0.0,0.0,0.0,0.0,0.0,0.0,0.0,0.0,0.0,-3.8377,0.0,0.0,0.0,0.0,0.0,0.0,0.0,0.0,0.0,0.0,0.0,0.0,0.0,0.0,0.0,0.0,0.0,0.0,0.0,0.0,0.0,0.0,0.0,0.0,0.0,0.0,0.0,0.0,0.0,0.0,0.0,0.0,0.0,0.0,0.0,0.0,0.0,0.0,0.0,0.0,0.0,0.0,0.0,0.0,0.0,0.0,0.0,0.0,0.0,0.0,0.0,0.0,0.0,0.0,0.0,0.0,0.0,0.0,0.0,0.0,0.0,0.0,0.0,0.0,0.0,0.0,0.0,0.0,0.0,0.0,0.0,0.0,0.0,0.0,0.0,0.0,0.0,0.0,0.0,0.0,0.0,0.0,0.0,0.0,0.0,0.0,0.0,0.0,0.0,0.0,0.0,0.0,0.0,0.0,0.0,0.0,0.0,0.0,0.0,0.0,0.0,0.0,0.0,0.0,0.0,0.0,0.0,0.0,-4.2102,-4.2521,-4.3688,-4.3838,-4.3898,-4.3748,-4.2132,-4.0771,-3.955,-3.8189,0.0,0.0,0.0,0.0,0.0,0.0,0.0,0.0,0.0,0.0,0.0,0.0,0.0,0.0,0.0,0.0,0.0,0.0,0.0,0.0,0.0,0.0,0.0,0.0,0.0,0.0,0.0,0.0,0.0,0.0,0.0,0.0,0.0,0.0,0.0,0.0,0.0,0.0,-3.0121,-3.1845,-3.2612,-3.2525,-3.0557,0.0,0.0,0.0,0.0,0.0,0.0,0.0,0.0,0.0,0.0,0.0,0.0,0.0,0.0,0.0,0.0,0.0,0.0,0.0,0.0,0.0,0.0,0.0,0.0,0.0,0.0,0.0,0.0,0.0,0.0,0.0,0.0,0.0,0.0,0.0,0.0,0.0,0.0,0.0,0.0,0.0,0.0,0.0,-2.3097,-2.7879,0.0,0.0,0.0,0.0,0.0,0.0,0.0,0.0,0.0,0.0,0.0,0.0,0.0,-3.8871,-4.0127,-4.0696,-4.1743,-4.321,-4.3688,-4.4317,-4.5065,-4.5663,-4.5933,-4.5903,-4.5663,0.0,-4.0583,-3.9773,0.0,0.0,0.0,0.0,0.0,0.0,0.0,0.0,0.0,0.0,0.0,0.0,0.0,0.0,0.0,0.0,0.0,0.0,0.0,0.0,0.0,0.0,0.0,0.0,0.0,0.0,0.0,0.0,0.0,0.0,0.0,0.0,0.0,0.0,0.0,0.0,-2.6484,-3.1199,-3.2007,-3.2796,-3.3068,-3.3068,-3.1977,-3.13,-3.0858,-2.9764,0.0,0.0,0.0,0.0,0.0,0.0,0.0,0.0,0.0,0.0,0.0,0.0,0.0,0.0,0.0,0.0,0.0,0.0,0.0,0.0,0.0,0.0,0.0,0.0,0.0,0.0,0.0,0.0,0.0,0.0,0.0,0.0,0.0,0.0,0.0,0.0,0.0,0.0,0.0,-2.1511,-2.5896,-3.0659,-3.2804,-3.3945,0.0,0.0,0.0,0.0,0.0,0.0,0.0,0.0,0.0,-4.0038,-4.0427,-4.1265,-4.2581,-4.3269,-4.4436,-4.6112,-4.6411,-4.689,-4.7549,-4.7848,-4.7967,-4.7967,-4.7967,-4.6602,-4.428,-4.1942,-4.0043,-3.862,0.0,0.0,0.0,0.0,-3.8353,-3.7585,0.0,0.0,0.0,0.0,0.0,0.0,0.0,0.0,0.0,0.0,0.0,0.0,0.0,0.0,0.0,0.0,0.0,0.0,0.0,0.0,0.0,0.0,0.0,0.0,0.0,0.0,0.0,0.0,-2.9037,-3.2772,-3.3114,-3.2827,-3.2792,-3.3068,-3.2635,-3.2337,-3.2226,-3.0743,-2.9503,0.0,0.0,0.0,0.0,0.0,0.0,0.0,0.0,0.0,0.0,0.0,0.0,0.0,0.0,0.0,0.0,0.0,0.0,0.0,0.0,0.0,0.0,0.0,0.0,0.0,0.0,0.0,0.0,0.0,0.0,0.0,0.0,0.0,0.0,0.0,0.0,0.0,0.0,-2.5147,-2.9189,-3.3264,-3.64,-3.7715,0.0,0.0,0.0,0.0,0.0,0.0,-4.1304,-4.1955,-4.2375,-4.2419,-4.2851,-4.3898,-4.5574,-4.5903,-4.713,-4.9284,-4.8955,-4.9224,-5.0002,-4.9853,-4.9763,-4.9763,-4.9583,-4.8865,-4.7521,-4.4343,-4.2024,-4.0683,-4.0508,-3.9571,-3.8502,-4.0613,-4.0169,-3.8922,0.0,0.0,0.0,0.0,0.0,0.0,0.0,0.0,0.0,0.0,0.0,0.0,0.0,0.0,0.0,0.0,0.0,0.0,0.0,0.0,0.0,0.0,0.0,0.0,0.0,0.0,0.0,-3.2325,-3.1734,-3.2047,-3.3097,-3.2003,-3.2039,-3.3043,-3.1331,-3.149,-3.2884,-3.0859,-2.9773,-2.9209,0.0,0.0,0.0,0.0,0.0,0.0,0.0,0.0,0.0,0.0,0.0,0.0,0.0,0.0,0.0,0.0,0.0,0.0,0.0,0.0,0.0,0.0,0.0,0.0,0.0,0.0,0.0,0.0,0.0,0.0,0.0,0.0,0.0,0.0,0.0,0.0,0.0,0.0,0.0,-3.5755,-4.0091,0.0,0.0,0.0,0.0,-4.1666,-4.325,-4.4118,-4.3718,-4.3749,-4.4188,-4.5117,-4.5125,-4.6381,-4.8985,-4.8446,-4.9434,-5.1977,-5.072,-5.081,-5.2037,-5.1409,-5.1109,-5.1079,-5.0451,-4.9793,-4.9015,-4.6924,-4.4923,-4.3101,-4.2473,-4.1816,-4.1173,-4.1354,-4.1743,-4.2264,0.0,0.0,0.0,0.0,0.0,0.0,0.0,0.0,0.0,0.0,0.0,0.0,0.0,0.0,0.0,0.0,0.0,0.0,0.0,0.0,0.0,0.0,0.0,0.0,0.0,0.0,-2.5674,-3.1027,-3.0587,-3.0565,-3.0976,-3.0538,-3.0566,-3.0931,-2.9519,-2.9445,-3.0243,-2.9002,-2.8537,-2.8476,-2.6661,-2.6055,0.0,0.0,0.0,0.0,0.0,0.0,0.0,0.0,0.0,0.0,0.0,0.0,0.0,0.0,0.0,0.0,0.0,0.0,0.0,0.0,0.0,0.0,0.0,0.0,0.0,0.0,0.0,0.0,0.0,0.0,0.0,0.0,0.0,0.0,0.0,0.0,0.0,-3.9529,-4.2714,0.0,-4.3525,-4.4235,-4.4537,-4.3853,-4.5786,-4.6708,-4.6164,-4.7077,-4.7681,-4.7905,-4.7848,-4.8716,-5.0511,-5.0301,-5.1079,-5.2815,-5.2366,-5.2366,-5.2815,-5.2157,-5.1858,-5.1828,-5.1139,-5.0511,-4.9731,-4.8135,-4.6668,-4.5102,-4.3612,-4.2607,-4.1971,-4.1167,-4.0801,-4.0745,0.0,0.0,0.0,0.0,0.0,0.0,0.0,0.0,0.0,0.0,0.0,0.0,0.0,0.0,0.0,0.0,0.0,0.0,0.0,0.0,0.0,0.0,0.0,0.0,0.0,-2.4075,-2.7611,-2.9762,-2.9813,-2.9383,-2.8644,-2.8941,-2.908,-2.9145,-2.776,-2.7547,-2.8094,-2.7128,-2.7241,-2.7827,-2.6307,-2.582,-2.5762,0.0,0.0,0.0,0.0,0.0,0.0,0.0,0.0,0.0,0.0,0.0,0.0,0.0,0.0,0.0,0.0,0.0,0.0,0.0,0.0,0.0,0.0,0.0,0.0,0.0,0.0,0.0,0.0,0.0,0.0,0.0,0.0,0.0,0.0,-3.5655,-3.9941,-4.2878,-4.5832,-4.7372,-4.6518,-4.7427,-4.7598,-4.661,-4.8523,-4.9332,-4.8541,-4.9696,-5.0192,-4.9583,-5.0032,-5.078,-5.1858,-5.1887,-5.2546,-5.3862,-5.3384,-5.3294,-5.3503,-5.2845,-5.2396,-5.2187,-5.1469,-5.0803,-4.9993,-4.8649,-4.7463,-4.633,-4.439,-4.3234,-4.258,-4.1862,-4.1113,-4.0556,0.0,0.0,0.0,0.0,0.0,0.0,0.0,0.0,0.0,0.0,0.0,0.0,0.0,0.0,0.0,0.0,0.0,0.0,0.0,0.0,0.0,0.0,0.0,0.0,-2.3043,-2.969,-3.1981,-2.9779,-2.9788,-2.8602,-2.6431,-2.7158,-2.7622,-2.7959,-2.6107,-2.5894,-2.6752,-2.5585,-2.6034,-2.7389,-2.6187,-2.5469,-2.5137,0.0,0.0,0.0,0.0,0.0,0.0,0.0,0.0,0.0,0.0,0.0,0.0,0.0,0.0,0.0,0.0,0.0,0.0,0.0,0.0,0.0,0.0,0.0,0.0,0.0,0.0,0.0,0.0,0.0,0.0,0.0,0.0,0.0,-3.4976,-4.1071,-4.5439,-4.5692,-4.962,-5.1227,-4.8487,-5.1067,-5.2029,-4.9978,-5.1398,-5.1859,-5.0863,-5.1456,-5.1328,-5.0331,-5.1558,-5.2546,-5.3174,-5.3204,-5.3862,-5.5149,-5.3862,-5.3593,-5.4221,-5.3533,-5.2875,-5.2181,-5.1337,-5.0615,-4.981,-4.8402,-4.7444,-4.6833,-4.4892,-4.3822,-4.3204,-4.3204,-4.2794,-4.2058,0.0,0.0,0.0,0.0,0.0,0.0,0.0,0.0,0.0,0.0,0.0,0.0,0.0,0.0,0.0,0.0,0.0,0.0,0.0,0.0,0.0,0.0,0.0,0.0,-2.4735,-3.0296,-3.2027,-2.9828,-2.9812,-2.782,-2.4019,-2.4257,-2.4849,-2.568,-2.4283,-2.4058,-2.4686,-2.4638,-2.5012,-2.5595,-2.5682,-2.5664,-2.5354,0.0,0.0,0.0,0.0,0.0,0.0,0.0,0.0,0.0,0.0,0.0,0.0,0.0,0.0,0.0,0.0,0.0,0.0,0.0,0.0,0.0,0.0,0.0,0.0,0.0,0.0,0.0,0.0,0.0,0.0,0.0,-3.5493,-3.9073,-4.0455,-4.3756,-4.6629,-4.8394,-5.0545,-5.154,-5.0634,-5.1706,-5.214,-5.1289,-5.2144,-5.2383,-5.1878,-5.245,-5.2718,-5.2366,-5.2725,-5.2995,-5.3174,-5.3683,-5.4102,-5.4491,-5.4581,-5.473,-5.491,-5.4221,-5.3277,-5.2035,-5.1308,-5.0331,-4.9042,-4.7972,-4.75,-4.718,-4.5422,-4.4383,-4.3774,-4.2787,-4.1853,-4.0849,0.0,0.0,0.0,0.0,0.0,0.0,0.0,0.0,0.0,0.0,0.0,0.0,0.0,0.0,0.0,0.0,0.0,0.0,0.0,0.0,0.0,0.0,0.0,-1.5458,-2.4412,-2.7473,-2.8249,-2.7008,-2.63,-2.4632,-2.2109,-2.2794,-2.3466,-2.4039,-2.3387,-2.3379,-2.3809,-2.3668,-2.4051,-2.4852,-2.4651,-2.4571,-2.4365,-2.2398,-2.156,-2.1361,-2.1146,-1.9819,-1.8128,-1.7503,0.0,0.0,0.0,0.0,0.0,0.0,0.0,0.0,0.0,0.0,0.0,0.0,0.0,0.0,0.0,0.0,0.0,0.0,0.0,0.0,0.0,0.0,0.0,0.0,-3.8945,-4.2317,-4.4551,-4.6402,-4.8152,-4.9791,-5.1262,-5.194,-5.1606,-5.2219,-5.2403,-5.2031,-5.2368,-5.2609,-5.2576,-5.3234,-5.3473,-5.3204,-5.3713,-5.3743,-5.3174,-5.3862,-5.4221,-5.4221,-5.461,-5.491,-5.5179,-5.479,-5.3698,0.0,-5.1449,-5.0265,-4.8565,-4.7937,-4.7586,0.0,0.0,0.0,0.0,0.0,-4.2283,-4.143,0.0,0.0,0.0,0.0,0.0,0.0,0.0,0.0,0.0,0.0,0.0,0.0,0.0,0.0,0.0,0.0,0.0,0.0,0.0,0.0,0.0,-2.2872,-1.897,-1.8669,-2.3008,-2.2886,-2.2784,-2.2818,-2.1348,-2.0566,-2.0641,-2.235,-2.3137,-2.3057,-2.295,-2.3183,-2.3699,-2.2722,-2.3272,-2.4541,-2.3391,-2.2798,-2.2575,-2.1829,-2.1227,-2.0767,-2.0153,-1.9716,-1.8964,-1.7298,0.0,0.0,0.0,0.0,0.0,0.0,0.0,0.0,0.0,0.0,0.0,0.0,0.0,0.0,0.0,0.0,0.0,0.0,0.0,0.0,0.0,0.0,0.0,0.0,-4.1535,-4.4074,-4.7231,-4.842,-4.9292,-5.0069,-5.1455,-5.2163,-5.1636,-5.229,-5.2611,-5.2252,-5.2276,-5.2606,-5.3264,0.0,0.0,0.0,0.0,-5.4461,-5.3204,-5.3773,-5.4102,-5.4102,-5.4162,-5.4551,-5.5179,-5.5078,-5.3906,-5.1957,-5.1516,-5.0155,-4.8355,-4.8049,-4.7732,-4.7205,-4.61,-4.5723,-4.5623,-4.4493,-4.3689,0.0,0.0,0.0,0.0,0.0,0.0,0.0,0.0,0.0,0.0,0.0,0.0,0.0,0.0,0.0,0.0,0.0,0.0,0.0,0.0,0.0,-2.073,-2.3025,-2.2157,-2.2108,-2.3077,-2.1769,-2.1127,-2.1109,-2.0751,-2.0604,-2.066,-2.23,-2.3088,-2.3057,-2.212,-2.2269,-2.3147,-2.2196,-2.2433,-2.3335,-2.2367,-2.1538,-2.0777,-2.0641,-2.0194,-1.9451,-1.8468,-1.7715,-1.7089,-1.5585,-1.5267,-1.535,-1.4338,-1.3879,0.0,0.0,0.0,0.0,0.0,0.0,0.0,0.0,0.0,0.0,0.0,0.0,0.0,0.0,0.0,0.0,0.0,0.0,0.0,-4.0796,-4.3265,-4.5198,-4.6425,-4.6766,-4.7394,-4.891,-5.0268,-5.0746,-4.9853,-5.0849,-5.175,-5.2157,-5.2695,-5.3294,-5.3982,-5.464,-5.494,-5.482,-5.4551,-5.4012,-5.3204,-5.3324,-5.3384,-5.3384,0.0,0.0,-5.5179,-5.3964,-5.2737,-5.1655,-5.029,-4.9113,-4.8002,-4.8435,-4.8535,-4.8335,-4.7255,-4.7079,-4.7305,-4.6225,-4.5171,-4.4141,0.0,0.0,0.0,0.0,0.0,0.0,0.0,0.0,0.0,0.0,0.0,0.0,0.0,0.0,0.0,0.0,0.0,0.0,0.0,-1.9268,-2.2189,-2.3066,-2.3142,-2.309,-2.3103,-2.1434,-2.0592,-2.0614,-2.0601,-2.0595,-2.0596,-2.1051,-2.1334,-2.1316,-2.0712,-2.096,-2.1826,-2.0724,-2.1387,-2.2939,-2.0529,-1.933,-1.8919,-1.8916,-1.874,-1.8274,-1.7798,-1.7432,-1.6911,-1.5243,-1.4129,-1.3371,-1.3093,-1.2636,-1.2299,0.0,0.0,0.0,0.0,0.0,0.0,0.0,0.0,0.0,0.0,0.0,0.0,0.0,0.0,-3.1067,-3.397,0.0,-4.0249,-4.265,-4.4317,-4.5227,-4.4961,-4.5285,-4.6129,-4.7813,-4.8651,-4.897,-4.8835,-4.9972,-5.1139,-5.2127,-5.2815,-5.3623,-5.464,-5.4999,-5.5029,-5.47,-5.4371,-5.3892,-5.3204,-5.3174,-5.3354,-5.3683,-5.4042,-5.4119,-5.4097,-5.3627,-5.2374,-5.0424,-5.0221,-4.9489,-4.8385,-4.8962,-4.9188,-4.9138,-4.8586,-4.8184,-4.7832,-4.7305,-4.6401,-4.5347,0.0,0.0,0.0,0.0,0.0,0.0,0.0,0.0,0.0,0.0,0.0,0.0,0.0,0.0,0.0,0.0,0.0,0.0,0.0,-1.9782,-2.3086,-2.3103,-2.3083,-2.2938,-2.263,-2.0832,-1.9919,-1.9944,-2.0368,-2.0617,-2.0615,-1.9698,-1.9127,-1.884,-1.8995,-1.9621,-2.0365,-1.8865,-1.975,-2.1778,-1.8855,-1.6961,-1.6033,-1.716,-1.7357,-1.7095,-1.733,-1.7265,-1.6609,-1.4734,-1.3087,-1.1827,-1.1921,-1.1388,-1.0798,-1.1152,-1.0162,0.0,0.0,0.0,0.0,0.0,0.0,0.0,0.0,-2.1843,-2.5036,-2.7296,-3.0616,-3.3958,-3.6744,-3.8948,-4.1151,-4.3313,-4.4044,-4.4144,-4.3401,-4.357,-4.4411,-4.6078,-4.6461,-4.6816,-4.7347,-4.8584,-4.9852,-5.101,-5.1925,-5.3,-5.4298,-5.4595,-5.4547,-5.4221,-5.4221,-5.3892,-5.3204,-5.3174,-5.3593,-5.4401,-5.4071,-5.3715,-5.3337,-5.3177,-5.1873,-4.9627,-5.0342,-4.9996,-4.8962,-4.9414,-4.959,-4.959,-4.959,-4.9038,-4.8234,-4.8109,-4.7456,-4.6527,0.0,0.0,0.0,0.0,0.0,0.0,0.0,0.0,0.0,0.0,0.0,0.0,0.0,0.0,0.0,0.0,0.0,0.0,-1.4141,-1.9783,-2.309,-2.3103,-2.3083,-2.2428,-2.0874,-1.8772,-1.7691,-1.7678,-1.9684,-2.0636,-2.056,-1.9305,-1.7835,-1.6226,-1.7071,-1.8271,-1.9461,-1.709,-1.6941,-1.8221,-1.7775,-1.4522,-1.0451,-1.5634,-1.6612,-1.5263,-1.6623,-1.5859,-1.3937,-1.2432,-1.1782,-1.1523,-0.97,-0.9057,-0.9189,-0.921,-0.9099,-0.8856,-0.8856,-0.9824,-1.1253,-1.2956,-1.554,-1.8898,0.0,-2.575,-2.7962,-3.186,-3.3881,-3.5294,-3.7006,-3.826,-3.9589,-4.0988,-4.1239,-4.1491,-4.1931,-4.1508,-4.1541,-4.2334,-4.337,-4.4041,-4.4125,-4.5748,-4.6768,-4.7007,-4.8471,-5.0029,-5.1468,-5.2671,-5.3568,-5.4221,-5.4221,-5.3892,-5.3204,-5.3174,-5.3832,-5.5089,-5.3639,-5.3481,-5.4524,-5.185,-5.0671,-5.0716,-5.0052,-4.9618,-4.9515,-4.9565,-4.959,-4.959,-4.959,-4.9515,-4.9339,-4.8862,-4.8259,-4.7581,0.0,0.0,0.0,0.0,0.0,0.0,0.0,0.0,0.0,0.0,0.0,0.0,0.0,0.0,0.0,0.0,0.0,0.0,-1.4135,-1.882,-2.2051,-2.3068,-2.3056,-2.1135,-1.6885,-1.7138,-1.7334,-1.7299,-1.8198,-1.9352,-2.0495,-1.7407,-1.5792,-1.5363,-1.5126,-1.5885,-1.7141,-1.4583,-1.3109,-1.2515,-1.2556,-1.0843,-0.8696,-1.1066,-1.2679,-1.3757,-1.4539,-1.5323,0.0,0.0,-0.9939,-0.9712,-0.8975,-0.8809,-0.887,-0.889,-0.8883,-0.9307,-1.0974,-1.1524,-1.2311,-1.5487,-1.8235,-2.117,-2.4455,-2.7161,-2.9645,-3.1922,-3.4519,-3.6664,-3.7595,-3.8715,-3.9664,-4.0161,-4.0548,-4.0536,-3.9735,-3.9698,-3.9543,-3.8754,-3.937,-4.068,-4.2896,-4.4041,-4.5149,-4.6228,-4.7668,-4.9434,-5.1552,-5.2578,-5.3331,-5.4122,-5.4221,-5.4072,-5.3773,-5.4162,-5.482,-5.5777,-5.4555,-5.377,-5.3445,-5.1519,-5.048,-5.0204,-4.9721,-4.959,-4.959,-4.959,-4.959,-4.959,-4.959,-4.959,-4.9565,-4.9339,-4.8887,-4.836,0.0,0.0,0.0,0.0,0.0,0.0,0.0,0.0,0.0,0.0,0.0,0.0,0.0,0.0,0.0,0.0,0.0,0.0,0.0,-1.8211,-2.1118,-2.235,-2.1282,-1.8576,-1.4212,-1.5621,-1.6635,-1.7025,-1.6617,-1.7268,-1.8733,-1.5602,-1.3996,-1.377,-1.3389,-1.3802,-1.4629,-1.2646,-1.0715,-0.8933,-0.8884,-0.8591,-0.7982,-0.7951,-0.9446,-1.1649,-1.2678,-1.3854,0.0,0.0,-0.8696,-0.8666,-0.8692,-0.8732,-0.8876,-0.8897,-0.887,-0.95,-1.2174,-1.3059,-1.4039,-1.7222,-2.0302,-2.3203,-2.5014,-2.7737,-3.0157,-3.1255,-3.3765,-3.5872,-3.6278,-3.7169,-3.7911,-3.8326,-3.8762,-3.8713,-3.773,-3.8017,-3.7868,-3.6597,-3.6835,-3.8287,-4.114,-4.2085,-4.3192,-4.4813,-4.6191,-4.813,-5.1119,-5.1946,-5.2885,-5.4122,-5.4551,-5.467,-5.4491,-5.5299,-5.6047,-5.6705,-5.5111,-5.3923,-5.2917,-5.1387,-5.0278,-4.959,-4.959,-4.959,-4.959,-4.959,-4.959,-4.959,-4.959,-4.959,-4.959,-4.959,-4.9339,-4.8987,0.0,0.0,0.0,0.0,0.0,0.0,0.0,0.0,0.0,0.0,0.0,0.0,0.0,0.0,0.0,0.0,0.0,0.0,0.0,-1.8192,-2.0613,-2.0699,-1.6651,-1.4309,-1.4129,-1.413,-1.4835,-1.6268,-1.4838,-1.4264,-1.4277,-1.4175,-1.2942,-1.0818,-1.2122,-1.2461,-1.198,-1.1905,-1.0747,-0.8904,-0.8911,-0.8494,-0.8031,-0.8041,-0.8034,-0.85,-1.1419,0.0,0.0,0.0,-0.8628,-0.8764,-0.8247,-0.8459,-0.891,-0.891,-0.8954,-0.9318,-1.1345,-1.4438,-1.7265,-1.7488,-2.0949,-2.4666,-2.5993,-2.7758,-2.9415,-3.0801,-3.1472,-3.1909,-3.1931,-3.2216,-3.2932,-3.4362,-3.4581,-3.4993,-3.6263,-3.6452,-3.6477,-3.6358,-3.6835,-3.7412,-3.8063,-3.9146,-4.0253,-4.1386,-4.2972,-4.5434,-4.9052,-5.0187,-5.1875,-5.4122,-5.5448,-5.5807,-5.5179,-5.6406,-5.7393,-5.7945,-5.4941,-5.3751,-5.424,-5.1116,-4.9565,-4.959,-4.959,-4.959,-4.959,-4.959,-4.959,-4.959,-4.959,-4.959,-4.959,-4.959,-4.959,-4.949,0.0,0.0,0.0,0.0,0.0,0.0,0.0,0.0,0.0,0.0,0.0,0.0,0.0,0.0,0.0,0.0,0.0,0.0,0.0,-1.5485,-1.6308,-1.6246,-1.4878,-1.4183,-1.4507,-1.4494,-1.4575,-1.4764,-1.434,-1.4115,-1.4091,-1.4116,-1.2035,-0.8328,-1.0355,-1.2478,-1.4266,-1.0776,-0.8892,-0.8249,-0.8276,-0.8138,-0.7994,-0.8012,-0.7726,-0.7585,0.0,0.0,0.0,-0.8714,-0.8723,-0.8547,-0.8343,-0.8491,-0.8722,-0.8897,-0.8892,-0.9871,-1.447,-1.7516,-1.9576,-2.0436,-2.2008,-2.3852,-2.5508,-2.7069,-2.8317,-2.9096,-2.9796,-3.0458,-3.0751,-3.1202,-3.1928,-3.3315,-3.4292,-3.5379,-3.6693,-3.7236,-3.7462,-3.7462,-3.7965,-3.8517,-3.9069,-3.9471,-4.03,-4.1781,-4.401,-4.6535,-4.947,-5.1276,-5.3261,-5.5508,-5.5927,-5.6256,-5.6466,-5.7334,-5.7902,-5.8005,-5.5396,-5.3119,-5.1168,-5.0459,-4.9941,-4.9615,-4.9992,-4.9941,-4.959,-4.959,-4.959,-4.959,-4.959,-4.959,-4.959,-4.959,-4.959,-4.9565,0.0,0.0,0.0,0.0,0.0,0.0,0.0,0.0,0.0,0.0,0.0,0.0,0.0,0.0,0.0,0.0,0.0,0.0,0.0,0.0,-1.4088,-1.4088,-1.4088,-1.401,-1.3786,-1.4348,-1.4608,-1.4385,-1.4423,-1.4475,-1.4682,-1.2813,-1.0287,-0.7503,-0.901,-1.0771,-1.2496,-0.9324,-0.685,-0.5116,-0.5139,-0.5192,-0.5351,-0.726,-0.7622,0.0,0.0,0.0,0.0,-0.8941,-0.8595,-0.8366,-0.8373,-0.8353,-0.8508,-0.8737,-0.8808,-1.0062,-1.5543,-1.9115,-2.1445,-2.183,-2.2703,-2.3823,-2.5005,-2.6019,-2.6676,-2.6536,-2.7051,-2.7484,-2.7352,-2.8077,-2.9268,-3.1084,-3.2692,-3.4481,-3.6893,-3.7312,-3.7713,-3.8517,-3.9397,-4.0209,-4.0978,-4.1723,-4.2112,-4.2167,-4.4733,-4.7296,-4.9442,-5.1932,-5.4253,-5.6166,-5.6615,-5.7064,-5.7453,-5.8141,-5.7902,-5.6747,-5.4547,-5.2218,-4.9891,-5.0243,-5.0218,-4.9916,-5.0268,-5.0117,-4.959,-4.959,-4.959,-4.959,-4.959,-4.959,-4.959,-4.959,-4.959,-4.959,0.0,0.0,0.0,0.0,0.0,0.0,0.0,0.0,0.0,0.0,0.0,0.0,0.0,0.0,0.0,0.0,0.0,0.0,0.0,0.0,0.0,-1.4082,-1.4082,-1.3506,-1.2246,-1.3698,-1.4586,-1.4996,-1.4897,-1.5013,-1.5219,-1.0276,-0.8033,-0.8002,-0.802,-0.77,-0.7147,-0.7706,-0.4842,-0.0,-0.0,-0.0,-0.0583,-0.5919,0.0,0.0,0.0,0.0,-0.915,-0.8912,-0.8441,-0.7986,-0.8104,-0.8354,-0.8453,-0.8519,-0.8607,-0.992,-1.4958,-1.9637,-2.2868,-2.1696,-2.2889,-2.4336,-2.4283,-2.4633,-2.4545,-2.3166,-2.3358,-2.3331,-2.1996,-2.323,-2.5296,-2.7965,-2.9891,-3.2499,-3.6721,-3.686,-3.7459,-3.9574,-4.1023,-4.2345,-4.3664,-4.5384,-4.5353,-4.2645,0.0,-4.781,-4.9241,-5.2316,-5.4691,-5.6196,-5.7453,-5.8141,-5.8171,-5.8722,-5.7387,-5.4323,-5.278,-5.1505,-5.0469,-5.0494,-5.0494,-5.0469,-5.0494,-5.0167,-4.964,-4.964,-4.9615,-4.959,-4.959,-4.959,-4.959,-4.959,-4.959,-4.9461,0.0,0.0,0.0,0.0,0.0,0.0,0.0,0.0,0.0,0.0,0.0,0.0,0.0,0.0,0.0,0.0,0.0,0.0,0.0,0.0,0.0,0.0,0.0,0.0,0.0,0.0,0.0,0.0,0.0,-1.1577,-0.9334,-0.839,-0.7966,-0.7973,-0.8034,-0.7938,-0.7791,-0.7447,-0.4444,-0.0,0.0,-0.0,-0.0583,0.0,0.0,0.0,0.0,0.0,-1.2264,-0.9308,-0.8077,-0.8313,-0.9805,-0.9308,-0.8139,-0.8088,-0.8154,-1.0102,-1.8941,-2.2149,-2.3004,-2.2727,-2.3066,-2.3242,-2.2263,-2.2628,-2.2749,-2.149,-2.1366,-2.1252,-2.0679,-2.2477,-2.5074,-2.8211,-3.1208,-3.4449,-3.7991,-3.9019,-4.0058,-4.1693,-4.3282,-4.4594,-4.5485,-4.7625,-4.8291,-4.6675,-4.8708,-5.0606,-5.1889,-5.427,-5.6035,-5.6855,-5.7693,-5.8351,-5.886,-5.8214,-5.6383,-5.3245,-5.317,-5.2491,-5.1071,-5.1473,-5.1448,-5.1071,-5.1498,-5.1122,-5.0218,-5.0218,-4.9967,-4.959,-4.959,-4.959,-4.959,-4.959,-4.8738,-4.7773,0.0,0.0,0.0,0.0,0.0,0.0,0.0,0.0,0.0,0.0,0.0,0.0,0.0,0.0,0.0,0.0,0.0,0.0,0.0,0.0,0.0,0.0,0.0,0.0,0.0,0.0,0.0,0.0,0.0,0.0,0.0,-0.7414,-0.7611,-0.7622,-0.7604,-0.7604,-0.7601,-0.7198,0.0,0.0,0.0,0.0,0.0,0.0,0.0,0.0,0.0,-0.9811,-1.3446,-1.1756,-1.036,-0.9573,-1.06,-0.9528,-0.7978,-0.8012,-1.0622,-1.4805,-2.0498,-2.202,-2.202,-2.1969,-2.2534,-2.2901,-2.2281,-2.148,-2.0679,-2.0136,-1.9925,-1.9555,-1.8773,-2.1032,-2.38,-2.6267,-3.0227,-3.4244,-3.7819,-3.9109,-4.0925,-4.3781,-4.5337,-4.6873,-4.8686,-5.0349,-5.1288,-5.1247,-5.1667,-5.2174,-5.2607,-5.5115,-5.6735,-5.7094,-5.8052,-5.8535,-5.8467,-5.6439,-5.4678,-5.3102,-5.2958,-5.2506,-5.1649,-5.2226,-5.2176,-5.1649,0.0,-5.1473,-5.0419,-5.0419,-5.0092,-4.959,-4.959,-4.959,-4.959,-4.959,-4.8477,-4.6955,0.0,0.0,0.0,0.0,0.0,0.0,0.0,0.0,0.0,0.0,0.0,0.0,0.0,0.0,0.0,0.0,0.0,0.0,0.0,0.0,0.0,0.0,0.0,0.0,0.0,0.0,0.0,0.0,0.0,0.0,0.0,0.0,0.0,0.0,0.0,0.0,0.0,0.0,0.0,0.0,0.0,0.0,0.0,0.0,0.0,0.0,-1.3483,-1.452,-1.375,-1.4848,-1.3438,-1.1268,-1.1556,-1.0939,-0.9967,-1.0037,-1.5212,-2.0959,-2.0911,-2.08,-2.0589,-2.0602,-2.1335,-2.2187,-2.2355,-2.0573,-1.8911,-1.9026,-1.8745,-1.8108,-1.686,-1.932,-2.2013,-2.3565,-2.802,-3.2735,-3.6744,-3.8466,-4.108,-4.5739,-4.7366,-4.9296,-5.2162,-5.2977,-5.3844,-5.5239,-5.3977,-5.2953,-5.2688,-5.5456,-5.7214,-5.7483,-5.8405,-5.8385,-5.7453,-5.4569,-5.3313,-5.3452,-5.275,-5.2427,-5.2452,-5.2854,-5.2779,-5.2327,0.0,0.0,-5.0645,-5.0645,-5.0318,-4.9816,-4.9816,-4.9766,-4.969,-4.9432,-4.8133,-4.6398,0.0,0.0,0.0,0.0,0.0,0.0,0.0,0.0,0.0,0.0,-1.4546,-1.4865,0.0,0.0,0.0,0.0,0.0,0.0,0.0,0.0,0.0,0.0,0.0,0.0,0.0,0.0,0.0,0.0,-1.1149,0.0,0.0,0.0,0.0,0.0,0.0,0.0,0.0,0.0,0.0,0.0,0.0,0.0,0.0,0.0,0.0,0.0,-1.2234,-1.373,-1.5402,-1.5573,-1.3921,-1.2368,-1.6055,-1.8702,-2.0465,-2.049,-2.1523,-2.267,-2.2625,-2.1697,-2.0571,-2.0607,-1.8807,-1.7291,-1.8378,-1.8745,-1.8655,-1.7582,-1.742,-1.7218,-1.6531,-1.8294,-2.0569,-2.2876,-2.656,-3.0853,-3.5553,-3.9334,-4.32,-4.7421,-5.034,-5.2758,-5.4535,-5.414,-5.4358,-5.5854,-5.4621,-5.4216,-5.5367,-5.6512,-5.7842,-5.9518,-5.8478,-5.7365,-5.6409,-5.5398,-5.4311,-5.3012,-5.3772,-5.4135,-5.4135,-5.3733,-5.3507,-5.3406,-5.298,0.0,-5.1825,-5.1825,-5.1498,-5.0996,-5.0996,-5.0695,-5.0137,-4.861,-4.6529,-4.4505,0.0,0.0,0.0,0.0,0.0,0.0,0.0,-1.4648,-1.4604,-1.4584,-1.5846,-1.6612,-1.5967,-1.547,-1.5244,0.0,0.0,0.0,0.0,0.0,0.0,0.0,0.0,0.0,0.0,-1.3422,-1.2892,-1.2522,0.0,-1.1035,-1.1982,-1.219,-1.1663,-1.0445,-1.0445,0.0,0.0,0.0,0.0,0.0,0.0,0.0,0.0,0.0,0.0,0.0,0.0,-1.4716,-1.5843,-1.577,-1.4929,-1.4571,-1.8545,-1.9512,-1.9412,-2.0073,-2.1961,-2.3663,-2.3203,-2.2517,-2.132,-1.8767,-1.7457,-1.6867,-1.751,-1.7715,-1.7647,-1.7327,-1.7279,-1.7061,-1.678,-1.8513,-2.0297,-2.157,-2.5569,-3.0023,-3.4118,-3.9152,-4.4011,-4.8752,-5.1061,-5.3029,-5.4826,-5.3875,-5.3468,-5.4156,-5.3578,-5.4156,-5.6541,-5.7274,-5.8029,-5.8713,-5.7194,-5.6121,-5.5761,-5.4548,-5.398,-5.3783,-5.4612,-5.4838,-5.4561,-5.4587,-5.426,-5.3683,-5.3432,0.0,-5.2101,-5.2101,-5.1774,-5.1272,-5.1272,-5.1096,-5.0713,-4.9889,-4.743,-4.4497,0.0,0.0,0.0,0.0,0.0,0.0,0.0,-1.5147,-1.5299,-1.5528,-1.731,-1.8095,-1.7127,-1.6236,-1.5818,0.0,0.0,0.0,0.0,0.0,0.0,0.0,0.0,0.0,0.0,0.0,0.0,-1.2449,-1.1227,0.0,0.0,0.0,0.0,0.0,-0.7107,-0.973,-1.397,0.0,0.0,0.0,0.0,-1.235,0.0,0.0,0.0,0.0,0.0,-1.6216,-1.6143,-1.6032,-1.5914,-1.6278,-1.8941,-1.8209,-1.6586,-1.7203,-2.0475,-2.3855,-2.3485,-2.3485,-2.2547,-1.7724,-1.7313,-1.7934,-1.7956,-1.7397,-1.6989,-1.7455,-1.7427,-1.7221,-1.7154,-1.8547,-1.9746,-1.9879,-2.4069,-2.8691,-3.2679,-3.8446,-4.4344,-4.9968,-5.1488,-5.291,-5.5242,-5.358,-5.2513,-5.3,-5.3138,-5.4233,-5.6847,-5.7606,-5.8033,-5.8145,-5.6215,-5.5429,-5.5682,-5.4159,-5.3884,-5.4737,-5.529,-5.534,-5.4938,-5.5239,-5.4838,-5.3884,-5.3758,0.0,0.0,-5.2402,-5.2126,-5.1649,-5.1749,-5.1305,-5.0712,-5.0407,-4.7766,-4.4273,0.0,0.0,0.0,0.0,0.0,0.0,0.0,-1.5562,-1.6089,-1.7261,-1.8067,-1.8429,-1.8104,-1.7459,-1.678,0.0,0.0,0.0,0.0,0.0,0.0,0.0,0.0,0.0,0.0,0.0,0.0,-1.1436,-0.9958,0.0,0.0,0.0,0.0,0.0,0.0,-0.9675,-1.4099,-1.4461,0.0,0.0,0.0,0.0,0.0,0.0,0.0,0.0,0.0,-1.7482,-1.7341,-1.656,-1.6095,-1.5844,-1.6156,-1.7316,-1.8354,-1.7116,-1.9413,-2.2677,-2.3914,-2.4868,-2.4417,-2.0091,-1.9163,-1.9212,-1.9212,-1.836,-1.7488,-1.7612,-1.759,-1.7462,-1.7194,-1.74,-1.7603,-1.8144,-2.1277,-2.5559,-3.1297,-3.7315,-4.4029,-5.1732,-5.301,-5.4334,-5.7168,-5.4139,-5.2876,-5.4846,-5.5398,-5.5954,-5.6734,-5.7282,-5.8377,-6.01,-5.6995,-5.5815,-5.6893,-5.5688,-5.5214,-5.5315,-5.5867,-5.6118,-5.6043,-5.5591,-5.5064,-5.4461,-5.3934,0.0,0.0,-5.3356,-5.3256,-5.2829,-5.3306,-5.1541,-4.8601,-4.7371,-4.4948,-4.2039,0.0,0.0,0.0,0.0,0.0,0.0,-1.5832,-1.5873,-1.6303,-1.7795,-1.86,-1.8954,-1.8646,-1.8225,-1.7649,-1.6874,0.0,0.0,0.0,0.0,0.0,0.0,0.0,0.0,0.0,0.0,-1.2056,-1.1283,-0.9183,0.0,0.0,0.0,0.0,0.0,0.0,-1.0999,-1.4104,-1.4595,0.0,0.0,0.0,0.0,0.0,0.0,0.0,0.0,0.0,0.0,-1.7544,-1.7198,-1.6746,-1.626,-1.5921,-1.66,-1.7496,-1.7258,-1.798,-1.9475,-2.2114,-2.4186,-2.4633,-2.0413,-1.9977,-2.0189,-1.9576,-1.8446,-1.7708,-1.8036,-1.7903,-1.7595,-1.7702,-1.7542,-1.7857,-1.9213,-2.1443,-2.4969,-3.0765,-3.6214,-4.2323,-4.9496,-5.1395,-5.3187,-5.5932,-5.3973,-5.3082,-5.4235,-5.5073,-5.6003,-5.6859,-5.6731,-5.6854,-5.7314,-5.5972,-5.5539,-5.6098,-5.5694,-5.5541,-5.5892,-5.6118,-5.6219,-5.6194,-5.5993,-5.5591,-5.5039,-5.4461,0.0,0.0,-5.3432,-5.3507,-5.3858,-5.3406,-5.1845,-4.9795,-4.8824,-4.6167,-4.2879,0.0,0.0,0.0,0.0,0.0,-1.5471,-1.6046,-1.5936,-1.6321,-1.7862,-1.8725,-1.9027,-1.8712,-1.8534,-1.8103,-1.7475,-1.6794,0.0,0.0,0.0,0.0,0.0,0.0,0.0,0.0,0.0,-1.2288,-1.2035,-0.9921,-0.8785,0.0,0.0,-0.8705,-0.9589,0.0,0.0,0.0,0.0,0.0,0.0,0.0,0.0,0.0,0.0,0.0,0.0,0.0,0.0,0.0,0.0,0.0,-1.6852,-1.6508,-1.6599,-1.7038,-1.7524,-1.7265,-1.7524,-1.9894,-2.3078,-2.465,-2.0458,-2.048,-2.1188,-1.9734,-1.8752,-1.8207,-1.8682,-1.833,-1.7939,-1.817,-1.8306,-1.8957,-2.0225,-2.2633,-2.6014,-3.1085,-3.5802,-4.1072,-4.7555,-4.9035,-5.0786,-5.4024,-5.3733,-5.3758,-5.4612,-5.5252,-5.5994,-5.698,-5.6478,-5.6052,-5.6077,-5.5591,-5.5468,-5.5616,-5.5641,-5.5817,-5.6219,-5.6219,-5.6219,-5.6219,-5.6219,-5.5817,-5.5114,-5.4737,0.0,0.0,-5.3607,-5.3683,-5.4034,-5.2973,-5.1269,-4.9385,-4.8575,-4.5838,-4.2529,0.0,0.0,0.0,0.0,0.0,0.0,-1.5752,-1.5757,-1.6242,-1.7462,-1.8104,-1.8537,-1.8464,-1.8223,-1.805,-1.8036,-1.7221,0.0,0.0,0.0,0.0,0.0,0.0,0.0,0.0,0.0,-1.3872,-1.3872,-1.2373,-1.1701,-1.1691,-1.1242,-1.0464,-0.9598,0.0,0.0,0.0,0.0,0.0,0.0,0.0,0.0,0.0,0.0,0.0,0.0,0.0,0.0,0.0,0.0,0.0,0.0,0.0,-1.7553,-1.7544,-1.759,-1.7626,-1.7563,-1.759,-2.1603,-2.4687,-2.0482,-2.1194,-2.2334,-1.9892,-1.9415,-1.9357,-1.9431,-1.9112,-1.8739,-1.849,-1.9647,-2.0708,-2.0708,-2.4545,-2.883,-3.2468,-3.6185,-4.0646,-4.6557,-4.6283,-4.7274,-5.1725,-5.3638,-5.5239,-5.6872,-5.6495,0.0,-5.6972,-5.647,-5.6734,-5.7781,-5.6289,-5.5641,-5.6194,-5.6194,-5.6194,-5.6219,-5.6219,-5.6219,-5.6219,-5.6219,-5.5616,0.0,0.0,0.0,0.0,-5.411,-5.3909,-5.2892,-5.2018,-4.9544,-4.6257,-4.4657,-4.2637,-4.0449,0.0,0.0,0.0,0.0,0.0,0.0,0.0,-1.6206,-1.658,-1.7462,-1.802,-1.84,-1.8437,-1.8223,-1.813,-1.833,-1.7528,0.0,0.0,0.0,0.0,0.0,0.0,0.0,0.0,0.0,-1.3872,-1.3872,-1.2544,-1.1839,-1.1829,-1.163,-1.2194,-1.3507,-1.3926,-1.5503,0.0,0.0,0.0,0.0,0.0,0.0,0.0,0.0,0.0,0.0,0.0,0.0,0.0,0.0,0.0,0.0,0.0,0.0,0.0,-2.2055,-2.31,-2.2366,-1.8614,-2.2379,-2.6391,-2.175,-2.1683,-2.2342,-1.9947,-1.9443,-1.9456,-1.9374,-1.9312,-1.9486,-2.0197,-2.0545,-2.1897,-2.545,-2.7603,-3.0199,-3.4439,-3.8044,-4.2127,-4.7052,-5.1443,-5.4592,-5.5994,-5.6485,-5.7223,-5.8127,-5.7675,-5.76,-5.8152,-5.765,-5.7217,-5.6785,-5.6208,-5.6043,-5.6219,-5.6219,-5.6219,-5.6219,-5.6219,-5.6018,-5.5666,-5.6043,-5.5616,0.0,0.0,0.0,0.0,-5.3607,-5.3683,-5.3843,-5.151,-4.9212,-4.7172,-4.4891,-4.2637,-4.0508,0.0,0.0,0.0,0.0,0.0,0.0,0.0,-1.6259,-1.6401,-1.7168,-1.7684,-1.8063,-1.8424,-1.833,-1.833,-1.8624,-1.8036,0.0,0.0,0.0,0.0,0.0,0.0,0.0,0.0,-1.4268,-1.3727,-1.3236,-1.2856,-1.2673,-1.2747,-1.3449,-1.4562,-1.6015,-1.633,-1.7423,0.0,0.0,0.0,0.0,0.0,0.0,-2.2464,0.0,0.0,0.0,0.0,0.0,0.0,0.0,0.0,0.0,0.0,0.0,0.0,0.0,-2.6699,-2.5786,-2.1788,-2.4404,-2.7563,-2.4528,-2.2689,-2.1162,-1.9681,-1.9681,-2.0302,-2.138,-2.1307,-2.1421,-2.2456,-2.3435,-2.5142,-2.8369,-3.0597,-3.3082,-3.6696,-3.9975,-4.3801,-4.8284,-5.3281,-5.647,-5.6922,-5.77,-5.8428,-5.8981,-5.8704,0.0,-5.9006,-5.8679,-5.8102,-5.7198,-5.6746,-5.652,-5.652,-5.6319,-5.6118,-5.5892,-5.5892,-5.5717,-5.539,-5.5541,-5.5214,0.0,0.0,0.0,0.0,-5.3406,-5.3064,-5.2681,-5.0149,-4.8145,-4.6115,-4.371,-4.1775,-4.0469,0.0,0.0,0.0,0.0,0.0,0.0,0.0,-1.6135,-1.6143,-1.666,-1.7221,-1.7809,-1.8397,-1.8477,-1.8611,-1.8905,0.0,0.0,0.0,0.0,0.0,0.0,0.0,0.0,-1.3908,-1.3908,-1.343,-1.2363,-1.343,-1.411,-1.4421,-1.6378,-1.7402,-1.7537,-1.8425,-1.9522,0.0,0.0,0.0,0.0,0.0,0.0,0.0,0.0,0.0,0.0,0.0,0.0,0.0,0.0,0.0,0.0,0.0,0.0,0.0,0.0,0.0,0.0,0.0,-2.7206,-2.8464,-2.835,-2.4219,-1.9986,-1.9496,-2.021,0.0,-2.4596,-2.4708,-2.4585,-2.5344,-2.7768,-2.9786,-3.0178,-3.3626,-3.7092,-3.9211,-4.2322,-4.5999,-5.0318,-5.2779,-5.4486,-5.5465,-5.7549,-5.9006,-5.9458,-5.9533,0.0,-5.9483,-5.9483,-5.9282,-5.878,-5.7725,-5.7123,-5.7022,-5.6445,-5.5917,-5.544,-5.5415,-5.539,-5.5365,-5.4888,-5.4637,0.0,0.0,0.0,0.0,-5.3318,-5.2024,-4.9866,-4.8305,-4.6093,-4.369,-4.139,-4.0488,-4.0312,0.0,0.0,0.0,0.0,0.0,0.0,0.0,0.0,0.0,0.0,-1.7221,-1.7729,-1.8116,-1.8357,-1.8611,0.0,0.0,0.0,0.0,0.0,0.0,0.0,0.0,0.0,-1.408,-1.408,-1.3906,-1.3667,-1.3906,-1.4971,-1.6848,-1.769,-1.8891,-2.0355,-2.1243,-2.2318,0.0,0.0,0.0,0.0,0.0,0.0,0.0,0.0,0.0,0.0,-1.7592,-1.7599,0.0,0.0,0.0,0.0,0.0,0.0,0.0,0.0,-2.8281,-2.8496,-2.9459,0.0,-3.0106,-2.942,-2.8238,-2.5852,0.0,-1.9636,-2.0943,-2.4995,-2.8183,-3.0135,-2.9853,-3.0198,-3.2014,-3.6294,-3.8154,-3.9792,-4.1855,-4.6709,-5.1322,-5.4461,-5.6796,-5.7926,-5.7374,-5.8905,-5.9809,-5.9508,0.0,-5.9935,-5.9508,-5.9483,-5.9433,-5.9307,-5.8679,-5.7901,-5.7047,-5.6068,-5.5717,-5.6018,-5.5591,-5.539,-5.539,-5.5691,-5.5365,0.0,0.0,0.0,-5.3343,-5.1596,-5.0506,-4.97,-4.6277,-4.4421,-4.3422,-4.1291,-4.0098,-3.9492,0.0,0.0,0.0,0.0,0.0,0.0,0.0,0.0,0.0,0.0,0.0,0.0,0.0,0.0,0.0,0.0,0.0,0.0,0.0,0.0,0.0,0.0,0.0,-1.5853,-1.4436,-1.4436,-1.4194,-1.3587,-1.4772,-1.6085,-1.744,-1.9399,-2.0832,-2.1971,-2.2982,-2.3746,0.0,0.0,0.0,0.0,-2.0929,0.0,0.0,0.0,0.0,0.0,-2.1322,-2.1309,0.0,-2.4724,-2.6859,-2.8329,0.0,0.0,0.0,0.0,-2.8455,-2.905,-3.053,-3.1154,-3.1236,-3.0353,-3.0003,-2.8857,-2.5111,-2.3317,-2.356,-2.7741,-2.9028,-2.9785,-3.1151,-3.4086,-3.7109,-3.9736,-4.1686,-4.3924,-4.6756,-5.0243,-5.3607,-5.662,-5.8252,-5.9006,0.0,-5.9885,-6.0387,0.0,0.0,-6.0085,-5.9533,-5.9483,-5.9483,-5.9483,-5.8981,-5.8303,-5.7449,-5.657,-5.6043,-5.5842,-5.5541,-5.5265,-5.5013,-5.5315,-5.5139,0.0,0.0,0.0,-5.2201,-5.089,-4.9147,-4.7006,-4.4741,-4.3206,-4.1927,-4.0492,-3.9609,-3.918,0.0,0.0,0.0,0.0,0.0,0.0,0.0,0.0,0.0,0.0,0.0,0.0,0.0,0.0,0.0,0.0,0.0,0.0,0.0,0.0,0.0,0.0,0.0,-1.615,-1.491,-1.4808,-1.439,-1.3645,-1.5808,-1.7324,-1.8037,-2.1371,-2.2971,-2.3162,-2.3841,-2.4195,0.0,0.0,-2.1936,-2.1114,-2.1342,0.0,0.0,0.0,0.0,0.0,0.0,0.0,0.0,-2.5666,-2.6833,-2.8347,-2.8318,0.0,0.0,0.0,0.0,0.0,-3.0658,-3.1755,-3.22,-3.1142,-3.0605,-3.0179,-3.0296,-2.8446,-2.7771,-3.1584,-2.9524,-2.8264,-3.2215,-3.8082,-4.222,-4.236,-4.4953,-4.8284,-5.2176,-5.3281,-5.4762,-5.7675,-5.8654,0.0,-5.9458,-6.0588,0.0,0.0,0.0,-6.0161,-5.9533,-5.9483,-5.9483,-5.9483,-5.9056,-5.8529,-5.7901,-5.7248,-5.6445,-5.5516,-5.534,-5.5114,-5.4813,-5.4637,-5.4612,-5.4687,0.0,0.0,-5.0746,-5.0073,-4.7557,-4.4054,-4.3377,-4.1988,-4.0332,-3.959,-3.9219,-3.9062,0.0,0.0,0.0,0.0,0.0,0.0,0.0,0.0,0.0,0.0,0.0,0.0,0.0,0.0,0.0,0.0,0.0,0.0,0.0,0.0,0.0,-1.837,-1.7542,-1.6446,-1.4977,-1.4977,-1.539,-1.642,-1.7235,-1.9167,-2.2407,-2.3601,-2.4827,-2.5739,-2.3651,-2.3081,-2.3583,-2.0832,-2.0395,-2.1577,-2.079,0.0,0.0,0.0,0.0,0.0,0.0,0.0,0.0,-2.5693,-2.6902,-2.8336,-2.829,0.0,0.0,0.0,0.0,0.0,-3.1186,-3.2755,-3.343,-3.1446,-3.1094,-3.1268,-3.1426,-3.0815,-3.113,-3.4484,-3.3677,-3.3558,-3.7985,-4.0565,-4.3168,-4.6849,-4.8687,-5.1147,-5.5039,-5.647,-5.7499,-5.8478,0.0,-6.0462,-5.9583,0.0,0.0,0.0,0.0,-6.0588,-5.9558,-5.9483,-5.9483,-5.9483,-5.9408,-5.8905,-5.7901,-5.6872,-5.6244,-5.6068,-5.5139,-5.5139,-5.5917,-5.4988,-5.4813,0.0,0.0,-5.113,-5.0554,-4.6728,-4.4741,-4.3945,-4.2269,-4.0932,-3.998,-3.9844,-3.9316,-3.8652,0.0,0.0,0.0,0.0,0.0,0.0,0.0,0.0,0.0,0.0,0.0,0.0,0.0,0.0,0.0,0.0,0.0,0.0,0.0,0.0,0.0,-1.8731,-1.8023,-1.7226,-1.6415,-1.712,-1.7915,-1.8797,-2.0473,-2.2333,-2.4263,-2.5151,-2.5428,-2.5189,-2.3797,-2.2948,-2.255,-2.1075,-2.0889,-2.176,0.0,0.0,0.0,0.0,0.0,0.0,0.0,0.0,0.0,0.0,-2.7656,-2.8291,-2.829,0.0,0.0,0.0,0.0,0.0,-3.0932,-3.2058,-3.2647,-3.2012,-3.2773,-3.3788,-3.4634,-3.4821,-3.5169,-3.6695,-3.7857,-3.9286,-4.1335,-4.5622,-4.9794,-5.2598,-5.3092,-5.4135,-5.7123,-5.7474,-5.7851,0.0,0.0,-6.0638,0.0,0.0,0.0,0.0,0.0,0.0,-5.9558,-5.9483,-5.9483,-5.9483,-5.9483,-5.8981,-5.7901,-5.7374,-5.6671,-5.5767,-5.5239,-5.4963,-5.4838,-5.4662,-5.3942,-5.2815,0.0,-4.9816,-4.7448,-4.5448,-4.3739,-4.2463,-4.1207,-4.0449,-3.9844,-3.9355,-3.8926,-3.8574,0.0,0.0,0.0,0.0,0.0,0.0,0.0,0.0,0.0,0.0,0.0,0.0,0.0,0.0,0.0,0.0,0.0,0.0,0.0,0.0,-1.8918,-1.8918,-1.849,-1.8211,-1.8314,-1.9269,-2.0315,-2.1391,-2.3548,-2.485,-2.5249,-2.5824,-2.5256,-2.3874,-2.3077,-2.2366,-2.1659,-2.1436,-2.1775,-2.2418,0.0,0.0,0.0,0.0,0.0,0.0,0.0,0.0,0.0,0.0,0.0,0.0,0.0,0.0,0.0,-2.9778,-3.0201,-3.0505,-3.0932,-3.1446,-3.1973,-3.2637,-3.3652,-3.5111,-3.7461,-3.9022,-4.0002,-3.9522,-4.2372,-4.4678,-4.3986,-4.9511,-5.4712,-5.6314,-5.6269,-5.6746,-5.8956,-5.8654,-5.8654,-5.9935,-6.0563,0.0,0.0,0.0,0.0,0.0,0.0,0.0,-5.9558,-5.9483,-5.9483,-5.9483,-5.9483,-5.8981,-5.7901,-5.7901,-5.7047,-5.539,-5.5265,-5.4662,-5.3708,-5.3909,-5.2699,-5.0413,-5.0359,-4.8065,-4.4474,-4.412,-4.2941,-4.1133,-4.0684,-4.0195,-3.9629,-3.8867,-3.8574,-3.8574,0.0,0.0,0.0,0.0,0.0,0.0,0.0,0.0,0.0,0.0,0.0,0.0,0.0,0.0,0.0,0.0,0.0,0.0,0.0,0.0,-1.8918,-1.8918,-1.8878,-1.9375,-2.0431,-2.0347,-2.1707,-2.4611,-2.518,-2.5684,-2.5973,-2.5409,-2.4297,-2.2789,-2.0732,-2.0538,-2.1676,-2.0779,-2.1843,-2.4158,-2.4657,0.0,0.0,0.0,0.0,0.0,0.0,0.0,0.0,0.0,0.0,0.0,0.0,0.0,-2.9288,-2.998,-3.0469,-3.0918,-3.1328,-3.2051,-3.2715,-3.2773,-3.2285,-3.3212,-3.8498,-4.2958,-4.5562,-4.4134,-4.7464,-4.9793,-4.661,-4.985,-5.3518,-5.5164,-5.6746,-5.8478,-6.0688,0.0,-6.1692,-6.1818,-6.232,0.0,0.0,0.0,0.0,0.0,0.0,0.0,-5.9558,-5.9483,-5.9483,-5.9483,-5.9483,-5.8981,-5.7901,-5.7901,-5.7047,-5.539,-5.4863,-5.431,-5.3658,-5.2729,-5.122,-4.9295,-4.7454,-4.5428,-4.3551,-4.2076,-4.1347,-4.1133,-4.0684,-4.0,-3.9199,-3.875,-3.8574,-3.8574,0.0,0.0,0.0,0.0,0.0,0.0,0.0,0.0,0.0,0.0,0.0,0.0,0.0,0.0,0.0,0.0,0.0,0.0,0.0,-1.8824,-1.8998,-1.9185,-1.8851,-1.9334,-2.0898,-2.1556,-2.2503,-2.4063,-2.6185,-2.6779,-2.5792,-2.5231,-2.3669,-2.1227,-2.0964,-2.0854,-2.0867,-2.2241,-2.3582,-2.4881,-2.6154,-2.7083,0.0,0.0,0.0,0.0,0.0,0.0,0.0,0.0,-2.9045,-2.9876,0.0,-2.9648,-2.978,-3.0078,-3.0332,-3.0547,-3.0996,-3.1953,-3.293,-3.3457,-3.4178,-3.5977,-4.076,-4.3394,-4.5888,-4.9583,-5.1855,-5.3178,-5.2604,-5.416,-5.5811,-5.6771,-5.8629,-6.0362,-6.1517,-6.2169,-6.2521,0.0,0.0,0.0,0.0,0.0,0.0,0.0,0.0,0.0,-5.9558,-5.9483,-5.9483,-5.9483,-5.9483,-5.8981,-5.7901,-5.7901,-5.6872,-5.4888,-5.4662,-5.426,-5.3658,-5.1403,-4.9507,-4.7751,-4.5244,-4.3152,-4.1534,-4.0715,-4.0371,-4.0332,-3.9883,-3.9492,-3.9141,-3.873,-3.8574,-3.8574,0.0,0.0,0.0,0.0,0.0,0.0,0.0,0.0,0.0,0.0,0.0,0.0,0.0,0.0,0.0,0.0,0.0,0.0,-1.8477,-1.8584,-1.8824,-1.9212,-1.8838,-1.9193,-2.0583,-2.2229,-2.3361,-2.4037,-2.6406,-2.6728,-2.4898,-2.4509,-2.2917,-2.0468,-2.1345,-2.1718,-2.195,-2.372,-2.5003,-2.5945,-2.7361,-2.7871,0.0,0.0,0.0,0.0,0.0,0.0,0.0,0.0,0.0,0.0,0.0,0.0,0.0,0.0,-3.0605,-3.0879,-3.0897,-3.1852,-3.3277,-3.5301,-3.675,-3.8755,-4.299,-4.4186,-4.6421,-5.3898,-5.4708,-5.4445,-5.5964,-5.6208,-5.662,-5.7725,-5.9583,-6.1115,-6.1667,-6.222,0.0,0.0,0.0,0.0,0.0,0.0,0.0,0.0,0.0,0.0,0.0,-5.9483,-5.9483,-5.9483,-5.9483,-5.8981,-5.7901,-5.7901,-5.6947,-5.5089,-5.4116,-5.347,-5.3155,-5.0513,-4.8192,-4.6167,-4.3778,-4.1677,-4.0098,-3.9961,-3.9805,-3.9648,-3.9336,-3.9121,-3.8965,-3.8691,-3.8574,-3.8574,0.0,0.0,0.0,0.0,0.0,0.0,0.0,0.0,0.0,0.0,0.0,0.0,0.0,0.0,0.0,0.0,0.0,0.0,-1.8477,-1.821,-1.8303,-1.8891,-1.8918,-1.9052,-1.9359,-2.2266,-2.4412,-2.5663,-2.5955,-2.5177,-2.3386,-2.2914,-2.2001,-2.0786,-2.1457,-2.2997,-2.4977,-2.4977,-2.6068,-2.7715,-2.8125,-2.8301,-2.8301,0.0,0.0,0.0,0.0,0.0,0.0,0.0,-3.0227,0.0,0.0,0.0,0.0,0.0,-3.1504,-3.2007,-3.1169,-3.1796,-3.3813,-3.8488,-3.9769,-4.1012,-4.4796,-4.569,-4.8075,-5.665,-5.543,-5.3651,-5.5772,-5.534,-5.5315,-5.7524,-5.9257,-6.0512,-6.109,0.0,0.0,0.0,0.0,0.0,0.0,0.0,0.0,0.0,0.0,0.0,0.0,-5.9483,-5.9483,-5.9483,-5.9483,-5.8981,-5.7926,-5.7901,-5.7323,-5.6194,-5.3084,-5.1774,-5.199,-5.0035,-4.747,-4.4738,-4.3205,-4.129,-3.9238,-3.9687,-3.9609,-3.9199,-3.9199,-3.8945,-3.8574,-3.8574,-3.8574,-3.8574,0.0,0.0,0.0,0.0,0.0,0.0,0.0,0.0,0.0,0.0,0.0,0.0,0.0,0.0,0.0,0.0,0.0,0.0,-1.8477,-1.821,-1.8303,-1.8891,-1.9695,-2.0265,-2.0569,-2.3535,-2.5918,-2.7534,-2.7275,-2.6318,-2.4509,-2.4386,-2.346,-2.1844,-2.3341,-2.4575,-2.55,-2.6484,-2.7381,-2.8144,-2.8574,-2.873,-2.8769,0.0,0.0,0.0,0.0,0.0,0.0,0.0,0.0,0.0,0.0,0.0,0.0,-3.1387,-3.1878,-3.225,-3.1161,-3.2002,-3.4033,-3.7655,-4.2116,-4.6191,-4.8352,-4.9115,-5.0767,-5.6402,-5.6575,-5.5951,-5.6696,-5.7173,-5.7449,-5.7323,-5.8981,-6.0387,0.0,0.0,0.0,0.0,0.0,0.0,0.0,0.0,0.0,0.0,0.0,0.0,0.0,-5.9156,-5.9106,-5.9483,-5.9131,-5.8805,-5.8478,-5.8102,-5.655,-5.4025,-5.2325,-5.1584,-5.1537,-4.6834,-4.438,-4.3821,-4.0983,-3.9612,-3.9199,-3.9023,-3.8887,-3.8769,-3.8769,-3.8691,-3.8574,-3.8574,-3.8574,-3.8574,0.0,0.0,0.0,0.0,0.0,0.0,0.0,0.0,0.0,0.0,-2.1373,0.0,0.0,0.0,0.0,0.0,0.0,0.0,0.0,-1.809,-1.8333,-1.9584,-2.0281,-2.1464,-2.3035,-2.4911,-2.6584,-2.8301,-2.7477,-2.648,-2.5213,-2.5195,-2.4738,-2.3946,-2.5569,-2.6536,-2.691,-2.7825,-2.832,-2.8574,-2.8578,-2.8752,-2.9069,0.0,0.0,0.0,0.0,0.0,0.0,0.0,0.0,0.0,0.0,0.0,0.0,-3.1706,-3.2235,-3.2642,-3.1258,-3.267,-3.5517,-4.0149,-4.5013,-4.9446,-5.2465,-5.3483,-5.4708,-5.7524,-5.7525,-5.7223,-5.7901,-5.8027,-5.8052,-5.8027,-5.9131,-5.9985,0.0,0.0,0.0,0.0,0.0,0.0,0.0,0.0,0.0,0.0,0.0,0.0,0.0,-5.8554,-5.8629,-5.9182,-5.888,-5.8604,-5.8403,-5.7244,-5.5418,-5.3076,-5.0492,-4.9146,-4.8747,-4.4823,-4.3194,-4.3068,-3.9905,-3.8711,-3.8926,-3.8672,-3.8574,-3.8574,-3.8574,-3.8574,-3.8574,-3.8574,-3.8574,-3.8574,0.0,0.0,0.0,0.0,0.0,0.0,0.0,0.0,0.0,0.0,-2.2589,-2.1699,0.0,0.0,0.0,0.0,0.0,0.0,0.0,0.0,-1.8744,-2.0614,-2.103,-2.2885,-2.6354,-2.6336,-2.6989,-2.834,-2.6933,-2.6135,-2.577,-2.57,-2.5954,-2.6591,-2.7841,-2.8633,-2.9043,-2.9004,-2.8984,-2.8894,-2.8611,-2.8783,-2.9292,-2.9565,0.0,0.0,0.0,0.0,0.0,0.0,0.0,0.0,0.0,-3.166,-3.1735,-3.174,-3.2676,-3.3287,-3.1354,-3.3556,-3.7964,-4.4821,-4.8396,-5.1411,-5.6233,-5.805,-5.883,-5.9257,-5.8227,-5.7725,-5.9207,-5.8278,-5.775,-5.9257,-5.9483,0.0,0.0,0.0,0.0,0.0,0.0,0.0,0.0,0.0,0.0,0.0,0.0,0.0,0.0,-5.7851,-5.8077,-5.8629,-5.8426,-5.8024,-5.7574,-5.5419,-5.3791,0.0,-4.7772,-4.523,-4.4594,-4.3652,-4.2941,-4.2251,-3.9765,-3.8574,-3.8574,-3.8574,-3.8574,-3.8574,-3.8574,-3.8574,-3.8574,-3.8574,-3.8555,-3.8516,0.0,0.0,0.0,0.0,0.0,0.0,0.0,0.0,0.0,0.0,0.0,0.0,0.0,0.0,0.0,0.0,0.0,0.0,0.0,0.0,-2.0352,-2.0973,-2.3817,-2.6496,-2.8814,-2.8487,-2.8443,-2.8789,-2.7786,-2.7314,-2.7218,-2.7545,-2.793,-2.8353,-2.903,-2.9531,-2.9902,-2.957,-2.9434,-2.9492,-2.9546,-2.9699,-2.9891,-3.0449,-3.0665,0.0,0.0,0.0,0.0,0.0,0.0,0.0,-3.2266,-3.2754,-3.2863,-3.2478,-3.3828,-3.4814,-3.1708,-3.4426,-3.9801,-4.7106,-5.1443,-5.4459,-5.657,-5.7876,-5.8629,-5.8303,-5.8629,-5.9081,-5.9433,-5.9207,-5.9081,-5.9433,0.0,0.0,0.0,0.0,0.0,0.0,0.0,0.0,0.0,0.0,0.0,0.0,0.0,0.0,-5.7901,-5.7474,-5.7474,-5.8052,-5.604,-5.5154,-5.5468,-5.282,-5.077,0.0,-4.6698,-4.4473,-4.2348,-4.1138,-4.0315,-3.9394,-3.8798,-3.8574,-3.8574,-3.8574,-3.8574,-3.8574,-3.8574,-3.8574,-3.8574,-3.8574,-3.8359,-3.8066,0.0,0.0,0.0,0.0,0.0,0.0,0.0,0.0,0.0,0.0,0.0,0.0,0.0,0.0,0.0,0.0,0.0,0.0,0.0,0.0,-2.2253,-2.3244,-2.6098,-2.8138,-2.8965,-2.8926,-2.8926,-2.8926,-2.8281,-2.8066,-2.8262,-2.8496,-2.9043,-2.9863,-3.0098,-3.0332,-3.0508,-3.0293,-3.0042,-2.9794,-2.983,-3.0097,-3.0504,-3.1715,-3.1579,-3.1054,-3.19,0.0,0.0,0.0,0.0,0.0,0.0,0.0,-3.2874,-3.2931,-3.3836,-3.4551,-3.3613,-3.5933,-4.0936,-5.0338,-5.4228,-5.5881,-5.69,-5.77,-5.8328,-5.8303,-5.873,-5.9207,-5.9458,-5.9282,-5.9207,0.0,0.0,0.0,0.0,0.0,0.0,0.0,0.0,0.0,0.0,0.0,0.0,0.0,0.0,-5.6274,-5.7097,-5.6796,-5.6427,-5.602,-5.4664,-5.34,-5.2472,-5.0164,-4.8251,-4.669,-4.4461,-4.2416,-4.0527,-3.9863,-3.9199,-3.8574,-3.8574,-3.8574,-3.8574,-3.8574,-3.8574,-3.8574,-3.8574,-3.8574,-3.8574,-3.8574,-3.8301,-3.793,0.0,0.0,0.0,0.0,0.0,0.0,0.0,0.0,0.0,0.0,0.0,0.0,0.0,0.0,0.0,0.0,0.0,0.0,0.0,0.0,0.0,-2.6078,-2.7975,-2.8789,-2.8516,-2.8769,-2.8945,-2.9023,-2.8535,-2.8652,-2.9355,-2.9199,-2.9805,-3.0996,-3.0996,-3.0996,-3.0996,-3.0918,-3.0587,-3.0159,-3.0168,-3.0477,-3.1146,-3.2525,-3.2266,-3.1382,-3.2191,-3.2529,-3.2749,-3.2505,0.0,0.0,0.0,0.0,-3.2546,-3.323,-3.3462,-3.3747,-3.5482,-3.7685,-4.2015,-5.2449,-5.5306,-5.5765,-5.68,-5.7425,-5.7876,-5.8328,-5.8579,-5.888,-5.9408,-5.9156,0.0,0.0,0.0,0.0,0.0,0.0,0.0,0.0,0.0,0.0,0.0,0.0,0.0,0.0,0.0,-5.4485,-5.6072,-5.5901,-5.4966,-5.3752,-5.2964,-5.1585,-4.9273,-4.7188,-4.5678,-4.4785,-4.2242,-4.0332,-3.9199,-3.9121,-3.8906,-3.8574,-3.8574,-3.8574,-3.8574,-3.8574,-3.8574,-3.8574,-3.8574,-3.8574,-3.8574,-3.8574,-3.8301,-3.791,0.0,0.0,0.0,0.0,0.0,0.0,0.0,0.0,0.0,0.0,-2.1826,-2.124,0.0,0.0,0.0,0.0,0.0,0.0,-2.2901,0.0,0.0,-2.8385,-2.8739,-2.9062,-2.9394,-2.9082,-2.9101,-2.9492,-2.8691,-2.9277,-3.1152,-3.0391,-3.0527,-3.1426,-3.1426,-3.1426,-3.1406,-3.1055,-3.0879,-3.082,-3.1777,-3.1995,-3.1582,-3.1271,-3.2007,-3.3074,-3.3256,-3.3231,-3.3263,-3.3289,-3.3242,0.0,0.0,0.0,-3.3258,-3.3412,-3.3462,-3.3765,-3.5566,-3.9491,-4.4279,-4.9525,-5.1787,-5.3354,-5.5731,-5.6796,-5.7173,0.0,-5.8027,-5.888,-5.9408,0.0,0.0,0.0,0.0,0.0,0.0,0.0,0.0,0.0,0.0,0.0,0.0,0.0,0.0,0.0,-5.3457,0.0,-5.6047,-5.4497,-5.3234,-5.2679,-4.9118,-4.6684,-4.5656,-4.3934,-4.2625,-4.1776,-4.0621,-3.9766,-3.9199,-3.8828,-3.8633,-3.8574,-3.8574,-3.8574,-3.8574,-3.8574,-3.8574,-3.8574,-3.8574,-3.8574,-3.8574,-3.8574,-3.8301,-3.7871,0.0,0.0,0.0,0.0,0.0,0.0,0.0,0.0,0.0,0.0,0.0,-2.124,0.0,0.0,0.0,-2.1818,-2.3493,-2.5004,-2.6009,-2.684,-2.7695,-2.8555,-2.9023,-2.9141,-2.8867,-2.9141,-2.9258,-2.9199,-2.8594,-2.9531,-3.1875,-3.1484,-3.1894,-3.293,-3.2441,-3.2226,-3.2187,-3.1523,-3.1093,-3.0955,-3.1482,-3.1677,-3.1754,-3.17,-3.1712,-3.2073,-3.3099,-3.3336,-3.3387,-3.3447,-3.3436,-3.3347,-3.3392,0.0,0.0,0.0,-3.4883,-3.4816,-3.4574,-3.7634,-4.1744,-4.5578,-4.764,-4.9729,-5.3582,-5.4912,-5.5603,-5.6725,-5.77,-5.8428,0.0,0.0,0.0,0.0,0.0,0.0,0.0,0.0,0.0,0.0,0.0,0.0,0.0,0.0,0.0,0.0,-5.0898,-5.1708,-5.2646,-5.1861,-5.0688,-4.8939,-4.6975,-4.4889,-4.2786,-4.1835,-4.0918,-4.0059,-3.9687,-3.9277,-3.8848,-3.8652,-3.8574,-3.8574,-3.8574,-3.8574,-3.8574,-3.8574,-3.8574,-3.8574,-3.8574,-3.8418,-3.8203,-3.8203,-3.7793,-3.7187,0.0,0.0,0.0,0.0,0.0,0.0,0.0,0.0,0.0,0.0,0.0,0.0,0.0,0.0,0.0,0.0,-2.511,-2.6717,-2.8155,-2.8301,-2.834,-2.8437,-2.9062,-2.916,-2.8633,-2.9238,-2.9414,-2.9082,-2.8769,-2.9941,-3.248,-3.248,-3.334,-3.4844,-3.3769,-3.3105,-3.2754,-3.1992,-3.1579,-3.1358,-3.1127,-3.1243,-3.1731,-3.2435,-3.2056,-3.1502,-3.3136,-3.3906,-3.3936,-3.3603,-3.37,-3.4023,-3.3999,-3.4004,0.0,0.0,0.0,-3.5685,-3.4414,-3.6421,-3.9426,-4.1762,-4.4102,-4.7004,-5.1129,0.0,-5.3352,0.0,-5.6122,0.0,0.0,0.0,0.0,0.0,0.0,0.0,0.0,0.0,0.0,0.0,0.0,0.0,0.0,0.0,0.0,0.0,0.0,-4.9317,-4.9807,-4.934,-4.8074,-4.5806,-4.4847,-4.3298,-4.0684,-4.0234,-3.9746,-3.9199,-3.9101,-3.8887,-3.8574,-3.8457,-3.8476,-3.8574,-3.8457,-3.8418,-3.8398,-3.8301,-3.8242,-3.8242,-3.8242,-3.8047,-3.7773,-3.7773,-3.7441,-3.6973,0.0,0.0,0.0,0.0,0.0,0.0,0.0,0.0,0.0,0.0,0.0,0.0,-2.3075,-2.436,-2.5076,-2.4909,-2.6532,-2.7832,-2.8262,-2.8301,-2.8476,-2.8867,-2.8926,0.0,-2.9492,-2.9551,-2.9551,-2.9531,-2.9512,-3.082,-3.3359,-3.3359,-3.4707,-3.7051,-3.5351,-3.3926,-3.2773,-3.2324,-3.2363,-3.2656,-3.1836,-3.1523,-3.166,-3.3474,-3.3355,-3.239,-3.408,-3.516,-3.5551,-3.3934,-3.4518,-3.5906,-3.5799,-3.5916,-3.5892,0.0,0.0,0.0,-3.5835,-3.7783,-3.9757,-3.9102,-4.1989,-4.5702,0.0,0.0,-5.0239,0.0,0.0,0.0,0.0,0.0,0.0,0.0,0.0,0.0,0.0,0.0,0.0,0.0,0.0,0.0,0.0,0.0,0.0,0.0,0.0,-4.7611,-4.9314,-4.7432,-4.5721,-4.4395,-4.243,-4.0759,-3.9316,-3.8887,-3.8848,-3.9199,-3.8789,-3.8594,-3.8555,-3.8144,-3.8184,-3.8555,-3.8144,-3.7969,-3.793,-3.7519,-3.7363,-3.7363,-3.7363,-3.7344,-3.7324,-3.7324,-3.7559,-3.7812,0.0,0.0,0.0,0.0,0.0,0.0,0.0,0.0,0.0,0.0,0.0,0.0,0.0,-2.5522,-2.6224,-2.7074,-2.799,-2.8535,-2.8691,-2.8965,-2.9062,-2.8926,-2.9726,-3.0,-2.959,-3.0137,-3.0137,-2.957,-2.957,-3.0469,-3.2207,-3.2754,-3.3652,-3.4805,-3.4726,-3.4453,-3.3945,-3.2695,-3.2246,-3.2344,-3.1758,-3.1855,-3.2344,-3.2848,-3.3316,-3.3848,-3.4704,-3.6152,-3.7381,-3.5641,-3.8414,-4.1839,-3.7431,-3.6017,-3.6008,-3.6071,-3.5996,-3.5937,-3.6031,-3.6712,-3.7553,-3.837,-4.0226,-4.2363,-4.532,-4.685,-4.8339,0.0,0.0,0.0,0.0,0.0,0.0,0.0,0.0,0.0,0.0,0.0,0.0,0.0,0.0,0.0,0.0,0.0,0.0,0.0,0.0,0.0,-4.4989,-4.3913,-4.2837,-4.1947,-4.0927,-3.9863,-3.8809,-3.8652,-3.8652,-3.8789,-3.8652,-3.8418,-3.8164,-3.7988,-3.7871,-3.7734,-3.7305,-3.7422,-3.7891,-3.7461,-3.7305,-3.7305,-3.7305,-3.7129,-3.6934,-3.7207,-3.7226,-3.7148,0.0,0.0,0.0,0.0,0.0,0.0,0.0,0.0,-2.2386,-2.2688,0.0,0.0,0.0,0.0,-2.7333,-2.8388,-2.8887,-2.9141,-2.9141,-2.9414,-2.9512,-2.9355,-3.0332,-3.0684,-3.0234,-3.0937,-3.0898,-3.0019,-3.0019,-3.0605,-3.1758,-3.2324,-3.3125,-3.4082,-3.4062,-3.4375,-3.4863,-3.373,-3.3164,-3.2949,-3.209,-3.2246,-3.2988,-3.2851,-3.3428,-3.4386,-3.5416,-3.6837,-3.797,-3.7145,-4.0554,-4.4074,-3.7954,-3.5975,-3.5996,-3.6034,-3.5957,-3.6053,-3.6053,-3.5831,-3.6085,-3.8282,-3.9101,-3.9998,-4.2616,0.0,-4.517,0.0,0.0,0.0,0.0,0.0,0.0,0.0,0.0,0.0,0.0,0.0,0.0,0.0,0.0,0.0,0.0,0.0,0.0,0.0,0.0,0.0,-4.2031,-4.1601,-4.0976,-4.0117,-3.9668,-3.918,-3.8574,-3.8574,-3.8574,-3.8574,-3.8418,-3.8203,-3.791,-3.7637,-3.7422,-3.7266,-3.6699,-3.6855,-3.7461,-3.7051,-3.6875,-3.6875,-3.6875,-3.6699,-3.6504,-3.6934,-3.6992,-3.6934,0.0,0.0,0.0,0.0,0.0,0.0,0.0,0.0,-2.4115,-2.5918,0.0,0.0,0.0,0.0,0.0,-2.8965,-2.9394,-2.9629,-2.9609,-2.9629,-2.9805,-3.0176,-3.0664,-3.1113,-3.1504,-3.1953,-3.1758,-3.0918,-3.0918,-3.1328,-3.2129,-3.2148,-3.3281,-3.5234,-3.3574,-3.3769,-3.5332,-3.5293,-3.5059,-3.4551,-3.2851,-3.2695,-3.3535,-3.3926,-3.3841,-3.3768,-3.6131,-3.7112,-3.7507,-3.8248,-4.0399,-4.1839,-3.7348,-3.5995,-3.5957,-3.6048,-3.6051,-3.6035,0.0,0.0,0.0,-3.857,-3.859,0.0,-4.0566,0.0,-4.09,0.0,0.0,0.0,0.0,0.0,0.0,0.0,0.0,0.0,0.0,0.0,0.0,0.0,0.0,0.0,0.0,0.0,0.0,0.0,0.0,-4.1601,-4.1172,-4.0723,-4.0078,-3.9199,-3.8789,-3.8574,-3.8574,-3.8555,-3.8555,-3.8555,-3.8105,-3.791,-3.7851,-3.7051,-3.6875,-3.7187,-3.6367,-3.625,-3.6601,-3.6191,-3.6016,-3.6016,-3.6016,-3.6035,-3.6094,-3.6523,-3.6953,-3.7383,0.0,0.0,0.0,0.0,0.0,-2.5172,-2.4828,-2.556,-2.6448,0.0,0.0,0.0,-2.8769,-2.9297,-2.998,-3.0742,-3.1191,-3.1191,-3.0566,-3.0801,-3.0742,-3.0215,-3.123,-3.1719,-3.1523,-3.2246,-3.2207,-3.1348,-3.1348,-3.1309,-3.125,-3.1562,-3.2187,-3.3086,-3.3516,-3.3809,-3.3906,-3.2988,-3.3398,-3.4551,-3.2851,-3.3418,-3.5215,-3.4394,-3.4564,-3.5406,-3.6424,-3.7347,-3.8201,-3.7729,-3.8644,-3.9269,-3.6739,-3.5976,-3.5957,-3.6048,-3.5937,-3.5995,-3.5936,0.0,0.0,0.0,0.0,0.0,0.0,0.0,0.0,0.0,0.0,0.0,0.0,0.0,0.0,0.0,0.0,0.0,0.0,0.0,0.0,0.0,0.0,0.0,0.0,0.0,0.0,0.0,-4.2309,-4.1152,-4.0723,-3.9687,-3.9004,-3.875,-3.8633,-3.8574,-3.8574,-3.8262,-3.8105,-3.8105,-3.7676,-3.7305,-3.7012,-3.6777,-3.6406,-3.5918,-3.5996,-3.5918,-3.5762,-3.5937,-3.6016,-3.6016,-3.6016,-3.6211,-3.6543,-3.6973,-3.7383,-3.7812,0.0,0.0,0.0,0.0,0.0,-2.724,-2.724,-2.7948,-2.8539,0.0,0.0,0.0,-2.9453,-3.0547,-3.1348,-3.1504,-3.1914,-3.1875,-3.1191,-3.1387,-3.1211,-3.0508,-3.1562,-3.2051,-3.1797,-3.2617,-3.2637,-3.1797,-3.1601,-3.1309,-3.0898,-3.0937,-3.1289,-3.1914,-3.25,-3.291,-3.3086,-3.1797,-3.2383,-3.4101,-3.3281,-3.4082,-3.5684,-3.4906,-3.5472,-3.6828,-3.7222,-3.823,-3.9208,-3.8196,-3.8117,-3.826,-3.6583,-3.6133,-3.623,-3.5625,-3.5938,-3.658,-3.6484,-3.6602,-3.6794,-3.7448,0.0,0.0,-3.7617,-3.7461,0.0,0.0,0.0,0.0,0.0,0.0,0.0,0.0,0.0,0.0,0.0,0.0,0.0,0.0,0.0,0.0,0.0,0.0,0.0,-4.2305,-4.1074,-4.0156,-3.9726,-3.8984,-3.8496,-3.8301,-3.8301,-3.8223,-3.8047,-3.7793,-3.7656,-3.7656,-3.7226,-3.6914,-3.666,-3.6484,-3.6133,-3.5664,-3.5918,-3.5879,-3.5664,-3.5918,-3.6016,-3.6016,-3.6016,-3.6289,-3.6719,-3.7148,-3.7559,-3.7988,0.0,0.0,-3.0064,-3.0391,-3.0256,-3.0141,-3.0469,-3.0449,-3.0449,0.0,-3.0195,-3.0137,-3.0644,-3.1992,-3.2617,-3.2012,-3.2207,-3.2187,-3.1758,-3.1641,-3.1406,-3.0976,-3.1738,-3.2168,-3.2168,-3.2988,-3.3027,-3.2246,-3.1797,-3.1367,-3.0957,-3.0488,-3.0684,-3.1426,-3.1113,-3.1562,-3.2519,-3.1523,-3.1953,-3.332,-3.3809,-3.4648,-3.5625,-3.5471,-3.6379,-3.7864,-3.8418,-3.9269,-4.0007,-3.9014,-3.8649,-3.826,-3.664,-3.6544,-3.6693,-3.5317,-3.5995,-3.7226,-3.7371,-3.7549,-3.7842,-3.8203,-3.7246,0.0,-3.791,-3.707,-3.6562,0.0,0.0,0.0,0.0,0.0,0.0,0.0,0.0,0.0,0.0,0.0,0.0,0.0,0.0,0.0,0.0,-4.2305,-4.1621,-4.1211,-3.9941,-3.9023,-3.8594,-3.8535,-3.832,-3.793,-3.7871,-3.7676,-3.7305,-3.7207,-3.7168,-3.7148,-3.6738,-3.6523,-3.6523,-3.6133,-3.5957,-3.5957,-3.5957,-3.5957,-3.5957,-3.5996,-3.6016,-3.6016,-3.6016,-3.6309,-3.6777,-3.7168,-3.7598,-3.8047,-3.0684,-2.9653,-2.9368,-3.1401,-3.037,-2.999,-3.1924,-3.2012,-3.2031,-3.2695,-3.2422,-3.2598,-3.3691,-3.3516,-3.3652,-3.4551,-3.4062,-3.3516,-3.3086,-3.2422,-3.1855,-3.1406,-3.1894,-3.2168,-3.2168,-3.2988,-3.3184,-3.2676,-3.2246,-3.1816,-3.1387,-3.0957,-3.084,-3.1016,-3.1269,-3.1348,-3.1309,-3.209,-3.2422,-3.248,-3.3242,-3.4902,-3.6934,-3.6654,-3.7274,-3.8457,-3.8535,-3.8691,-3.8975,-3.8633,-3.8649,-3.8379,-3.7129,-3.6911,-3.7008,-3.6031,-3.6302,-3.7086,-3.7547,-3.7626,-3.7626,-3.7249,-3.7051,0.0,-3.6172,-3.6016,-3.6133,0.0,0.0,0.0,0.0,0.0,0.0,0.0,0.0,0.0,0.0,0.0,0.0,0.0,0.0,0.0,0.0,-4.2305,-4.1621,-4.1211,-3.9941,-3.9023,-3.8594,-3.8242,-3.8008,-3.793,-3.7598,-3.7383,-3.7305,-3.6621,-3.6269,-3.6269,-3.584,-3.5644,-3.5644,-3.5547,-3.5508,-3.5508,-3.5508,-3.5508,-3.5547,-3.5879,-3.6016,-3.6016,-3.6016,-3.6484,-3.7187,-3.7266,-3.7793,-3.8457,-3.1152,-3.0581,-3.0395,-3.193,-3.1347,-3.1237,-3.2844,-3.293,-3.3105,-3.3945,-3.4258,-3.4394,-3.4394,-3.459,-3.4726,-3.4726,-3.4336,-3.3809,-3.3144,-3.2715,-3.2187,-3.1543,-3.2129,-3.2383,-3.2168,-3.2988,-3.3105,-3.248,-3.2266,-3.1836,-3.1191,-3.0996,-3.0898,-3.0898,-3.1113,-3.1211,-3.123,-3.166,-3.209,-3.2598,-3.3887,-3.5312,-3.6719,-3.7003,-3.7662,-3.8574,-3.8574,-3.8574,-3.8759,-3.9559,-3.938,-3.8531,-3.8244,-3.798,-3.7832,-3.7042,-3.7236,-3.7871,-3.8058,-3.8157,-3.8073,-3.7676,-3.7305,0.0,0.0,-3.5976,-3.5664,-3.6758,0.0,0.0,0.0,0.0,0.0,0.0,0.0,0.0,0.0,0.0,0.0,0.0,0.0,0.0,0.0,-4.1543,-4.0801,-3.9941,-3.9258,-3.8789,-3.8594,-3.8164,-3.7832,-3.7617,-3.6992,-3.6562,-3.6348,-3.5684,-3.5351,-3.5351,-3.5156,-3.5039,-3.5059,-3.5293,-3.5391,-3.541,-3.5605,-3.5703,-3.5723,-3.5937,-3.6016,-3.6016,-3.6016,-3.6426,-3.7012,-3.7226,-3.7695,-3.8281,-3.1504,-3.1207,-3.1185,-3.207,-3.1905,-3.2054,-3.3301,-3.3418,-3.3769,-3.4707,-3.5527,-3.5703,-3.4902,-3.5527,-3.5762,-3.5117,-3.4453,-3.3926,-3.3574,-3.3066,-3.2461,-3.168,-3.2383,-3.2559,-3.2051,-3.2871,-3.2969,-3.2285,-3.2129,-3.1738,-3.1133,-3.0976,-3.0898,-3.0879,-3.0801,-3.1094,-3.1601,-3.1113,-3.1719,-3.3164,-3.4668,-3.5469,-3.5918,-3.7105,-3.7845,-3.834,-3.8516,-3.8574,-3.8779,-4.0157,-3.9539,-3.8253,-3.8926,-3.8962,-3.8496,-3.7981,-3.8281,-3.8661,-3.855,-3.8787,-3.875,-3.8418,-3.7812,-3.7324,0.0,0.0,0.0,0.0,0.0,0.0,0.0,0.0,0.0,0.0,0.0,0.0,0.0,0.0,0.0,0.0,0.0,0.0,0.0,-4.043,-3.9629,-3.8652,-3.8418,-3.8359,-3.8437,-3.8047,-3.7578,-3.707,-3.6309,-3.5703,-3.5273,-3.4805,-3.457,-3.459,-3.4668,-3.4707,-3.4726,-3.5176,-3.543,-3.5527,-3.5781,-3.5937,-3.6016,-3.6016,-3.6016,-3.6016,-3.6016,-3.6328,-3.6836,-3.7168,-3.7617,-3.8105,-3.1445,-2.9968,-2.9471,-3.1769,-3.1011,-3.0761,-3.3029,-3.3418,-3.3887,-3.5156,-3.5723,-3.6387,-3.7383,-3.6601,-3.6719,-3.8476,-3.584,-3.4687,-3.6133,-3.4082,-3.2578,-3.2109,-3.2539,-3.2422,-3.1621,-3.2422,-3.2812,-3.2734,-3.1973,-3.1738,0.0,-3.125,-3.0898,-3.0879,-3.0449,-3.0957,-3.2051,-3.123,-3.207,-3.3984,-3.4551,-3.4805,-3.5059,-3.749,-3.7983,-3.7539,-3.8301,-3.8574,-3.8574,-3.8779,-3.7778,-3.6619,-3.8234,-3.8681,-3.8555,-3.8516,-3.8535,-3.8574,-3.8535,-3.9121,-3.9375,-3.7832,-3.8496,-3.8848,-3.6269,0.0,-3.6758,-3.5859,0.0,-3.5996,-3.6133,0.0,0.0,0.0,0.0,0.0,0.0,0.0,0.0,0.0,0.0,0.0,0.0,0.0,-3.832,-3.8555,-3.7871,-3.7598,-3.7969,-3.7598,-3.6992,-3.6191,-3.5703,-3.5234,-3.4785,-3.4355,-3.4141,-3.4141,-3.4531,-3.4707,-3.4726,-3.5176,-3.5605,-3.5937,-3.5605,-3.5684,-3.6016,-3.6016,-3.6016,-3.6016,-3.6016,-3.6504,-3.7226,-3.7285,-3.7812,-3.8516,-3.1328,-3.0753,-3.0496,-3.1599,-3.1156,-3.1302,-3.2805,-3.4336,-3.541,-3.5723,-3.7485,-3.8546,-3.7994,-3.8167,-3.8324,-3.8151,-3.6543,-3.5684,-3.5918,-3.4648,-3.3711,-3.3301,-3.3203,-3.2988,-3.2637,-3.2734,-3.2676,-3.2422,-3.1816,-3.1484,0.0,-3.1055,-3.1016,-3.125,-3.1055,-3.1406,-3.2148,-3.1777,-3.2148,0.0,0.0,-3.3965,-3.4219,-3.6344,-3.7449,-3.8086,-3.8457,-3.8574,-3.8661,-3.8576,-3.8144,-3.774,-3.8688,-3.8787,-3.8613,-3.8867,-3.8769,-3.8574,-3.8574,-3.9406,-3.9798,-3.8359,-3.8594,-3.873,-3.7207,-3.6523,-3.625,-3.6465,0.0,0.0,0.0,0.0,0.0,0.0,-3.6836,0.0,0.0,0.0,0.0,0.0,0.0,0.0,0.0,0.0,0.0,0.0,0.0,-3.7012,-3.7187,-3.6797,-3.6387,-3.6035,-3.5117,-3.4531,-3.4336,-3.3906,-3.3691,-3.3691,-3.4121,-3.4336,-3.4355,-3.5078,-3.5488,-3.5664,-3.5723,-3.5859,-3.6016,-3.6016,-3.6016,-3.6035,-3.6289,-3.6621,-3.6953,-3.7207,-3.7676,-3.8223,-3.1133,-3.1348,-3.1348,-3.1348,-3.1445,-3.1797,-3.2656,-3.4394,-3.5664,-3.582,-3.796,-3.9068,-3.819,-3.9172,-3.9515,-3.8641,-3.7715,-3.7031,-3.666,-3.5644,-3.4883,-3.4453,-3.4004,-3.3652,-3.3437,-3.3008,-3.2598,-3.2168,-3.1621,-3.1367,0.0,-3.1055,-3.1172,-3.1699,-3.1699,-3.1992,-3.2519,-3.2519,-3.2715,-3.3086,-3.3457,-3.3809,-3.4225,-3.5482,-3.7009,-3.8609,-3.8609,-3.8668,-3.8668,-3.8624,-3.8556,0.0,-3.8997,-3.8912,-3.8633,-3.8945,-3.8809,-3.8574,-3.8574,-3.9406,-3.9837,-3.8516,-3.8398,-3.8379,-3.7578,-3.6719,-3.6289,-3.6973,-3.6406,0.0,0.0,0.0,-3.584,-3.6152,0.0,-3.6543,0.0,-3.6367,0.0,0.0,0.0,0.0,0.0,0.0,0.0,0.0,-3.6406,-3.6055,-3.6309,-3.5898,-3.5605,-3.5488,-3.457,-3.4023,-3.3887,-3.3691,-3.3594,-3.3613,-3.416,-3.4434,-3.4453,-3.5215,-3.5566,-3.5586,-3.5879,-3.6016,-3.6016,-3.6016,-3.6094,-3.623,-3.6543,-3.6816,-3.7051,-3.7363,-3.7734,-3.8144,-3.082,-3.0918,-3.0918,-3.0918,-3.125,-3.1797,-3.2656,-3.2871,-3.3516,-3.5195,-3.5801,-3.6719,-3.8379,-3.8906,-3.9824,-4.1504,-3.9726,-3.8867,-3.9707,-3.7383,-3.5801,-3.5371,-3.4902,-3.4277,-3.3437,-3.3008,-3.2598,-3.2168,-3.1328,-3.1543,-3.2715,-3.1465,-3.1348,-3.2148,-3.2148,-3.2598,-3.3379,-3.3379,-3.4121,-3.5215,-3.4394,-3.4805,-3.5937,0.0,-3.7134,-3.8648,-3.8648,0.0,0.0,-3.866,-3.859,0.0,0.0,0.0,0.0,0.0,-3.8594,-3.8574,0.0,0.0,0.0,-3.7773,-3.7969,-3.8144,-3.6465,-3.6992,-3.7617,-3.6855,-3.7637,-3.8203,-3.7402,-3.6914,-3.6641,-3.6641,-3.6309,0.0,0.0,0.0,0.0,0.0,0.0,0.0,0.0,0.0,0.0,-3.6641,-3.5117,-3.4531,-3.5391,-3.5,-3.4551,-3.4141,-3.4101,-3.3867,-3.3437,-3.3848,-3.4043,-3.4062,-3.4941,-3.5351,-3.5371,-3.5801,-3.5996,-3.5996,-3.6016,-3.6016,-3.6016,-3.6016,-3.6269,-3.666,-3.666,-3.7168,-3.7891,-3.791,-3.8184,-3.8555,-2.9375,-3.0367,-3.1133,-3.0527,-3.0547,-3.1035,-3.2207,-3.3105,-3.4355,-3.6387,-3.8346,-3.986,-4.0641,-4.1594,-4.218,-4.1876,-4.0879,-4.0176,-3.9922,-3.8516,-3.7519,-3.709,-3.6113,-3.543,-3.5156,-3.4434,-3.3711,-3.3008,-3.2422,-3.2226,-3.2363,-3.1641,-3.1621,-3.2168,-3.2168,-3.248,-3.3047,-3.3613,-3.3789,-3.3672,0.0,-3.459,-3.6074,0.0,0.0,-3.7665,-3.7105,-3.7378,0.0,-3.8497,-3.8609,-3.8574,-3.8574,-3.8574,-3.8574,-3.8574,-3.8574,0.0,0.0,0.0,-3.9961,-3.8516,0.0,0.0,0.0,-3.6582,-3.6934,-3.6367,-3.7246,-3.7969,-3.7402,-3.7187,-3.6992,-3.6719,-3.6309,-3.5859,0.0,-3.4492,0.0,0.0,0.0,-3.6191,0.0,0.0,0.0,-3.5371,-3.4297,-3.3769,0.0,-3.3945,-3.3789,-3.3652,-3.3926,-3.3867,-3.3418,-3.3848,-3.4082,-3.4082,-3.4375,-3.4668,-3.4941,-3.5078,-3.5312,-3.5605,-3.5605,-3.5762,-3.6035,-3.6328,-3.6543,-3.6719,-3.7285,-3.7676,-3.793,-3.793,-3.8203,-3.8574,-2.8901,-2.9955,-3.0918,-3.0508,-3.0566,-3.0996,-3.2012,-3.3379,-3.4961,-3.6836,-3.9171,-4.0787,-4.1523,-4.2637,-4.315,-4.2366,-4.2012,-4.1426,-4.041,-3.9824,-3.916,-3.8418,-3.7441,-3.6855,-3.6699,-3.5684,-3.4746,-3.3867,-3.3301,-3.2949,-3.2832,-3.1934,-3.1758,-3.2168,-3.2324,-3.2461,-3.2656,-3.3809,-3.3887,-3.3262,0.0,-3.4414,0.0,0.0,-3.7153,-3.6833,0.0,-3.6514,-3.7313,-3.828,-3.8655,-3.8574,-3.8574,-3.8574,-3.8574,-3.8574,-3.8574,-3.8633,-3.8906,-3.9394,0.0,-3.8594,-3.834,0.0,-3.6758,0.0,-3.7402,-3.6816,-3.7734,-3.8457,-3.7851,-3.7617,-3.7324,-3.6758,-3.6172,-3.5332,0.0,-3.3574,-3.3262,-3.2851,-3.4434,-3.5449,-3.5176,-3.5019,-3.4805,-3.4492,-3.3398,-3.2812,0.0,0.0,-3.3047,-3.3184,-3.3613,-3.3711,-3.3418,-3.3848,-3.4082,-3.4082,-3.4219,-3.4434,-3.4707,-3.4707,-3.4961,-3.5391,-3.5391,-3.5625,-3.6055,-3.6484,-3.6758,-3.6953,-3.7656,-3.8027,-3.8164,-3.8164,-3.834,-3.8574,-2.9319,-2.9592,-3.0391,-3.084,-3.123,-3.1641,-3.2129,-3.3613,-3.5156,-3.6562,-3.8203,-3.9766,-4.1113,-4.1992,-4.2676,-4.3105,-4.3144,-4.2617,-4.1387,-4.1269,-4.0684,-3.9355,-3.8887,-3.8457,-3.7969,-3.6758,-3.5664,-3.4766,-3.3906,-3.3672,-3.4004,-3.2324,-3.1758,-3.2148,-3.2559,-3.2519,-3.2144,-3.3797,-3.4284,-3.3934,-3.4062,-3.4336,-3.4936,-3.6616,-3.6793,-3.6169,-3.6071,-3.6035,-3.6329,-3.8045,-3.862,-3.8555,-3.8574,-3.8574,-3.8574,-3.8574,-3.8574,-3.8574,-3.8594,-3.8613,-3.8516,-3.8086,0.0,0.0,0.0,0.0,-3.8906,0.0,-3.8945,-3.959,-3.8672,-3.8164,-3.7617,-3.6758,-3.5879,-3.459,-3.2461,-3.2871,-3.3242,-3.2851,-3.3867,-3.4609,-3.4629,-3.4277,-3.4023,-3.3984,-3.2422,-3.168,0.0,0.0,0.0,-3.2754,-3.3078,-3.3311,-3.3292,-3.372,-3.3934,-3.3934,-3.4453,-3.4648,-3.4668,-3.4668,-3.4922,-3.5351,-3.541,-3.5664,-3.6094,-3.6543,-3.6973,-3.7363,-3.7793,-3.8203,-3.8574,-3.8574,-3.8574,-3.8574,-2.8955,-2.9993,-3.1211,-3.1328,-3.1191,-3.1406,-3.248,-3.3535,-3.5039,-3.7305,-3.9101,-4.0801,-4.2422,-4.3066,-4.3555,-4.4023,-4.4062,-4.3769,-4.3105,-4.2773,-4.2012,-4.0723,-4.0254,-3.9512,-3.8437,-3.7773,-3.6855,-3.5684,-3.4805,-3.4101,-3.3574,-3.25,-3.1894,-3.168,-3.1797,-3.1207,-3.0309,-3.1322,-3.1856,-3.2189,-3.3527,-3.4512,0.0,0.0,-3.6495,-3.7728,-3.6425,-3.6446,-3.7073,-3.8166,-3.8604,-3.855,-3.8641,-3.8574,-3.8574,-3.8574,-3.8574,-3.8652,-3.8965,-3.9043,-3.9004,-3.8906,-3.8398,-3.7812,0.0,0.0,0.0,0.0,0.0,0.0,0.0,-3.7539,-3.707,-3.5918,-3.498,-3.3887,-3.2383,-3.2617,-3.291,-3.2812,-3.3086,-3.3398,-3.3711,-3.3652,-3.334,-3.2695,-3.166,0.0,0.0,0.0,0.0,-3.2324,-3.2035,-3.1746,-3.1433,-3.1856,-3.2059,-3.2059,-3.3187,-3.3926,-3.4238,-3.4238,-3.4473,-3.4922,-3.5566,-3.6113,-3.6562,-3.7305,-3.7676,-3.7812,-3.8242,-3.8476,-3.8574,-3.8574,-3.8574,-3.8574,-2.9283,-3.0502,-3.1855,-3.2051,-3.2031,-3.2305,-3.3223,-3.4101,-3.5371,-3.7383,-3.9336,-4.0957,-4.2109,-4.3125,-4.3808,-4.4082,-4.4101,-4.3828,-4.3183,-4.3281,-4.2695,-4.123,-4.1113,-4.0469,-3.918,-3.8535,-3.7578,-3.6309,-3.5234,-3.4258,-3.3398,-3.2363,-3.1543,-3.0957,-3.0477,-2.9786,-2.9026,-3.0284,-3.1543,-3.273,-3.3676,-3.4537,0.0,-3.4813,-3.582,-3.7271,-3.6288,-3.6366,-3.6813,-3.7261,-3.8034,-3.8629,-3.8661,-3.8574,-3.8574,-3.8574,-3.8574,-3.8633,-3.8867,-3.8926,-3.8926,-3.8926,-3.8555,-3.8144,-3.791,-3.8027,-3.8144,0.0,0.0,0.0,0.0,0.0,-3.6543,-3.5059,-3.4082,-3.3203,-3.2305,-3.2363,-3.2519,-3.2519,-3.2851,-3.3008,-3.2891,-3.2695,-3.2383,-3.1914,-3.1269,0.0,0.0,0.0,0.0,-3.0747,-3.1212,-3.1317,-3.0771,-3.2152,-3.2674,-3.2319,-3.3008,-3.3652,-3.4082,-3.4082,-3.4414,-3.5039,-3.5723,-3.6269,-3.6738,-3.7578,-3.793,-3.7969,-3.8398,-3.8574,-3.8574,-3.8574,-3.8574,-3.8574,-3.0112,-3.1172,-3.2363,-3.2734,-3.3184,-3.3691,0.0,-3.5117,0.0,-3.7383,-3.9434,-4.0918,-4.1289,-4.2754,-4.373,-4.3789,-4.3789,-4.3476,-4.2734,-4.332,-4.2969,-4.1328,-4.1562,-4.1113,-3.9824,-3.9004,-3.793,-3.6582,-3.5312,-3.418,-3.3144,-3.1973,-3.0957,-3.0137,-2.9331,-2.8643,0.0,-3.005,-3.1856,-3.3727,-3.3973,-3.4561,-3.5103,-3.5124,-3.539,-3.5971,-3.622,-3.6119,-3.6047,-3.6266,-3.7393,-3.8661,-3.8555,-3.8574,-3.8574,-3.8574,-3.8574,-3.8574,-3.8574,-3.8574,-3.8574,-3.8574,-3.8574,-3.8574,-3.8574,-3.8574,-3.8574,-3.8574,-3.8574,-3.8418,0.0,0.0,-3.5957,-3.4258,-3.3418,-3.2832,-3.2461,-3.2363,-3.2344,-3.2402,-3.3008,0.0,0.0,0.0,0.0,0.0,0.0,0.0,0.0,0.0,0.0,0.0,-3.0155,0.0,-3.0656,0.0,-3.3888,-3.327,-3.3486,-3.3789,-3.416,-3.4219,-3.4687,-3.5508,-3.5976,-3.6426,-3.6894,-3.7695,-3.8008,-3.8047,-3.8418,-3.8574,-3.8574,-3.8574,-3.8574,-3.8574,-3.1783,-3.2196,-3.2715,-3.2793,-3.3437,-3.4336,-3.5508,-3.6699,-3.7812,-3.875,-4.0742,-4.2129,-4.2207,-4.3105,-4.3867,-4.4238,-4.4277,-4.4219,-4.4062,-4.3828,-4.3105,-4.1758,-4.1426,-4.0664,-3.9355,-3.8828,-3.7773,-3.6133,-3.5176,-3.373,-3.1836,-3.1269,-3.0527,-2.9687,-2.9598,0.0,-2.8259,-2.9761,0.0,-3.1598,-3.3758,-3.4641,-3.4967,-3.6328,-3.6441,-3.6208,-3.7617,-3.7177,-3.6227,-3.7611,-3.8354,-3.8655,-3.8641,-3.8574,-3.8574,-3.8574,-3.8574,-3.8574,-3.8574,-3.8574,-3.8574,-3.8574,-3.8574,-3.8574,-3.8574,-3.8574,-3.8574,-3.8574,-3.8574,-3.834,-3.7559,0.0,0.0,-3.3769,-3.3711,-3.3828,-3.375,-3.3437,-3.334,-3.3691,-3.3555,-3.3086,0.0,0.0,0.0,0.0,0.0,0.0,0.0,0.0,0.0,0.0,0.0,0.0,0.0,0.0,0.0,-3.2808,-3.3973,-3.4512,-3.4609,-3.498,-3.543,-3.5957,-3.6738,-3.7305,-3.7734,-3.8262,-3.8457,-3.8476,-3.8555,-3.8574,-3.8574,-3.8574,-3.8574,-3.8574,-3.2812,-3.2988,-3.334,-3.4023,-3.4492,0.0,0.0,-3.8105,-3.8848,-3.8574,-4.0234,-4.1348,-4.1133,-4.2461,-4.3379,-4.3379,-4.3594,-4.3613,-4.3398,-4.3164,-4.2056,-4.0028,-3.9437,-3.8723,-3.769,-3.7258,-3.6675,-3.6016,-3.4089,-3.26,-3.1504,-3.0001,-2.9241,-2.9238,-2.8539,-2.8394,0.0,0.0,0.0,-3.23,-3.4506,-3.5704,-3.6147,-3.6934,-3.7383,-3.7402,-3.8314,-3.7429,-3.6209,-3.7942,-3.8675,-3.8596,-3.8622,-3.8602,-3.8649,-3.8535,-3.8574,-3.8574,-3.8574,-3.8574,-3.8574,-3.8574,-3.8574,-3.8574,-3.8574,-3.8574,-3.8574,-3.8574,-3.8574,-3.832,-3.7461,-3.625,0.0,0.0,0.0,-3.4492,-3.4726,-3.4375,-3.4004,-3.3769,-3.3555,-3.3008,-3.1934,0.0,0.0,0.0,0.0,0.0,0.0,0.0,0.0,0.0,0.0,0.0,0.0,0.0,0.0,-3.3765,-3.439,-3.4941,-3.5391,-3.5391,-3.5859,-3.6699,-3.7109,-3.7539,-3.7969,-3.8398,-3.8574,-3.8574,-3.8574,-3.8574,-3.8574,-3.8574,-3.8574,-3.8574,-3.3652,-3.3691,-3.4082,-3.5312,-3.5605,-3.6152,-3.7578,-3.8906,-3.9453,-3.8594,-3.9824,-4.0664,-4.0332,-4.1875,-4.2773,-4.2324,-4.2617,-4.2617,-4.2187,-4.1573,-4.0534,-3.8642,-3.7264,-3.6415,-3.602,-3.5677,-3.5284,-3.4595,-3.2795,-3.145,-3.0619,-2.8608,-2.7952,0.0,0.0,0.0,0.0,0.0,-3.1795,-3.3656,-3.5218,-3.6406,-3.7187,-3.7328,-3.7877,-3.8583,-3.8616,-3.7565,-3.6474,-3.7711,-3.8144,-3.8236,-3.8387,-3.8347,-3.8413,-3.8543,-3.8535,-3.8594,-3.8574,-3.8574,-3.8574,-3.8574,-3.8574,-3.8574,-3.8574,-3.8574,-3.8574,-3.8574,-3.8496,-3.8203,-3.7441,-3.6484,0.0,0.0,0.0,0.0,-3.5488,-3.5293,-3.4766,-3.3809,-3.3514,-3.2661,-3.1046,0.0,0.0,0.0,0.0,0.0,0.0,0.0,0.0,0.0,0.0,-2.8336,-2.9361,0.0,-3.5195,0.0,-3.5117,-3.5488,-3.6152,-3.5898,-3.6406,-3.7422,-3.7422,-3.7676,-3.8086,-3.8437,-3.8574,-3.8574,-3.8574,-3.8574,-3.8574,-3.8574,-3.8574,-3.8574,-3.4434,-3.457,-3.4863,0.0,0.0,0.0,-3.7266,-3.8437,-3.9512,-4.0195,-4.1094,-4.166,-4.1621,-4.2148,-4.2324,-4.1894,-4.1894,-4.1738,-4.1308,-3.9149,-3.8409,-3.9717,-3.5669,-3.4179,-3.5569,-3.5515,-3.3815,-3.0249,-3.182,-3.1045,0.0,-2.775,0.0,0.0,0.0,0.0,0.0,-3.134,-3.3155,-3.4141,-3.5078,-3.5976,-3.6916,-3.7253,-3.7825,-3.8576,-3.8537,-3.7949,-3.7019,-3.6455,-3.6589,-3.7164,-3.7602,-3.7715,-3.7845,-3.8393,-3.8524,-3.8633,-3.8594,-3.8574,-3.8574,-3.8574,-3.8574,-3.8574,-3.8574,-3.8574,-3.8574,-3.8574,-3.8262,-3.7851,-3.7383,-3.7207,-3.6758,0.0,0.0,0.0,0.0,-3.6269,-3.6016,-3.4726,-3.3556,-3.1891,-2.9094,-2.661,0.0,0.0,-2.4166,0.0,0.0,0.0,0.0,-2.2557,0.0,-2.8323,-3.1103,-3.3576,0.0,-3.6484,-3.6484,-3.6523,-3.6621,-3.6973,-3.7402,-3.7871,-3.7871,-3.8105,-3.8516,-3.8555,-3.8574,-3.8574,-3.8574,-3.8574,-3.8574,-3.8574,-3.8574,-3.8574,0.0,0.0,0.0,0.0,0.0,0.0,0.0,-3.8711,-3.9336,-3.9687,-4.0488,-4.0937,-4.0684,-3.9888,-3.9807,-4.053,-3.9755,-3.9561,-4.043,-3.9453,-3.8538,-3.7651,-3.445,-3.3095,-3.37,-3.2472,-3.1348,-3.0425,-2.9699,-2.8741,-2.7368,0.0,0.0,0.0,0.0,-2.6883,-2.7501,-3.1119,-3.3345,-3.4296,-3.5646,-3.6544,-3.7075,-3.7311,-3.7825,-3.8666,-3.8666,-3.7983,-3.7168,-3.6253,-3.6335,-3.6973,-3.7387,-3.7475,-3.6444,-3.1683,-3.4221,-3.8552,-3.858,-3.8651,-3.8592,-3.8633,-3.8574,-3.8661,-3.8629,-3.8367,-3.8105,-3.8053,-3.7838,-3.7197,-3.5849,-3.5134,-3.4434,0.0,0.0,0.0,0.0,-3.5265,-3.4463,-3.3348,-3.193,-2.9942,-2.7021,-2.5588,0.0,0.0,0.0,0.0,0.0,0.0,0.0,-2.2856,0.0,-2.9279,-3.1384,-3.3804,-3.5508,-3.6289,-3.6543,-3.6797,-3.7051,-3.7226,-3.7519,-3.793,-3.8203,-3.8418,-3.8574,-3.8574,-3.8574,-3.8574,-3.8574,-3.8574,-3.8574,-3.8574,-3.8574,-3.8574,-3.5673,0.0,-3.5883,0.0,-3.7171,-3.7539,-3.8437,-3.8828,-3.9023,-3.9023,-3.9551,-3.9941,-3.9902,-3.8898,-3.8573,-3.9576,-3.869,-3.8385,-3.9382,-3.8405,-3.72,-3.5966,-3.2637,-3.1284,-3.2505,-3.0515,-2.961,-3.0146,-2.8403,0.0,0.0,0.0,0.0,0.0,-2.5466,-2.6087,-2.6696,-3.0188,-3.2766,-3.4471,-3.5821,-3.6544,-3.6878,-3.6975,-3.735,-3.7867,-3.7867,-3.747,-3.6838,-3.6266,-3.5931,-3.5989,-3.6673,-3.6874,-3.5392,-2.745,-2.986,-3.5078,-3.5074,-3.6849,-3.867,-3.8672,-3.8594,-3.8641,-3.8596,-3.7949,-3.7449,-3.7563,-3.7367,-3.6566,-3.4774,-3.3943,-3.3003,-3.1659,0.0,0.0,0.0,-3.4108,-3.3327,-3.2393,-3.0148,-2.7758,-2.5675,-2.4756,0.0,0.0,0.0,0.0,0.0,0.0,0.0,0.0,0.0,0.0,0.0,-3.4317,-3.5723,-3.6035,-3.6719,-3.7129,-3.7305,-3.7559,-3.7832,-3.8125,-3.8437,-3.8574,-3.8574,-3.8574,-3.8574,-3.8574,-3.8574,-3.8574,-3.8574,-3.8574,-3.8574,-3.8574,-3.3462,-3.3911,-3.4559,-3.5353,-3.7179,-3.8555,-3.8574,-3.8574,-3.8574,-3.8574,-3.8594,-3.8926,-3.9805,-3.9902,-3.9707,-3.9258,-3.9219,-3.9043,-3.8613,-3.4786,-3.3415,0.0,0.0,-2.8388,-3.2353,-3.0515,-2.912,-2.8627,-2.8281,0.0,-2.5569,0.0,-2.4437,-2.4157,-2.5085,-2.5616,-2.5923,-2.8491,-3.1552,-3.4746,-3.5043,-3.549,-3.6035,-3.6035,-3.5956,-3.6089,-3.6089,-3.5951,-3.5951,-3.5951,-3.4714,-3.3521,-3.5477,-3.6001,-3.474,-2.8259,-2.6474,-2.6586,-2.6528,-3.2414,-3.8672,-3.8652,-3.8613,-3.8641,-3.8596,-3.7728,-3.7028,-3.7202,-3.6973,-3.622,-3.4719,-3.416,-3.3038,-3.066,0.0,0.0,0.0,-3.3466,-3.3294,-3.2356,-2.8279,-2.5514,-2.5588,-2.3722,0.0,0.0,0.0,0.0,0.0,0.0,0.0,-2.5028,-2.8518,0.0,-3.3292,-3.5137,-3.6016,-3.6035,-3.7305,-3.7695,-3.7324,-3.8184,-3.8555,-3.8574,-3.8574,-3.8574,-3.8574,-3.8574,-3.8574,-3.8574,-3.8574,-3.8574,-3.8574,-3.8574,-3.8574,-3.8574,-3.2313,-3.256,-3.2736,-3.3123,-3.5038,-3.6423,-3.6423,-3.6423,-3.7032,-3.8409,-3.7345,-3.7145,-3.8817,-3.7743,-3.7389,0.0,-3.618,-3.521,0.0,-3.4018,-3.2809,-3.3398,-3.0207,-2.8983,-3.0361,-2.8172,-2.7059,-2.6864,0.0,0.0,0.0,-2.3639,-2.3379,-2.3254,-2.2722,-2.3873,-2.6496,-3.0462,-3.2411,-3.297,-3.449,-3.5488,-3.5992,-3.5937,-3.5957,-3.6035,-3.6035,-3.6035,-3.5742,-3.3918,-3.2999,-3.2438,-3.2221,-3.1471,-3.0096,-2.6282,-2.512,-2.5119,-2.5211,-2.7008,-3.0585,-3.6942,-3.8642,-3.8583,-3.8604,-3.7409,-3.6305,-3.6441,-3.6327,-3.5268,-3.2208,-3.1554,-3.0381,-2.7217,-2.8572,0.0,-2.9552,0.0,-2.9902,-2.7849,-2.6663,-2.5477,0.0,-2.4404,0.0,0.0,0.0,0.0,0.0,0.0,0.0,0.0,-3.0717,0.0,-3.4277,-3.5449,-3.6172,-3.6465,-3.7168,-3.7734,-3.8184,-3.8457,-3.8574,-3.8574,-3.8574,-3.8574,-3.8574,-3.8574,-3.8574,-3.8574,-3.8574,-3.8574,-3.8574,-3.8574,-3.8574,-3.8574,-3.0421,-3.0479,-3.075,-3.0878,-3.2625,-3.4066,-3.4206,-3.4711,-3.5522,-3.6891,-3.6581,-3.6727,-3.7942,-3.6891,0.0,-3.8156,-3.6202,-3.4865,-3.5298,-3.4214,-3.3247,-3.2505,-3.0515,-2.9743,-3.0515,0.0,0.0,-2.7158,-2.5813,-2.4649,-2.3821,-2.3652,-2.3492,-2.3213,-2.2652,-2.44,-2.7905,-3.1844,-3.3137,-3.2879,-3.4049,-3.5098,-3.5969,-3.6032,-3.4214,-3.17,-3.17,-3.2325,-3.3026,-3.1896,-3.1226,-3.0766,-3.0356,-2.8773,-2.6671,-2.508,-2.4586,-2.4723,-2.5152,-2.5264,-2.7395,-3.6421,-3.858,-3.8448,-3.7773,-3.7269,-3.6483,-3.492,-3.4575,-3.3418,-2.9916,-2.9186,-2.8259,-2.531,-2.6969,-2.8213,-2.7447,0.0,-2.7916,-2.634,0.0,0.0,0.0,-2.6049,0.0,0.0,0.0,0.0,0.0,0.0,0.0,-2.8962,-3.2066,0.0,-3.4961,-3.584,-3.6406,-3.668,-3.7266,-3.7891,-3.8574,-3.8574,-3.8574,-3.8574,-3.8574,-3.8574,-3.8574,-3.8574,-3.8574,-3.8574,-3.7805,-3.7951,-3.8574,-3.7658,-3.7951,-3.8574,-2.757,-2.8059,0.0,0.0,-3.0292,0.0,-3.1712,-3.3249,-3.4342,-3.4486,-3.5972,-3.7003,-3.7144,-3.7164,-3.7441,-3.765,0.0,0.0,0.0,-3.4984,-3.4151,-3.2201,-3.0207,-3.0053,-3.2048,-2.8345,-2.7098,-2.8743,-2.6226,-2.4943,-2.4663,-2.4649,-2.4316,-2.3852,-2.4331,-2.6444,-3.0001,-3.2427,-3.3666,-3.4191,-3.3688,-3.4381,-3.583,-3.5909,-3.123,-2.4581,-2.4609,-2.6283,-2.8601,-2.9676,-2.9409,-2.8702,-2.96,-2.7437,-2.4541,-2.4631,-2.4661,-2.5012,-2.673,-2.6758,-2.8088,-3.5803,-3.8139,-3.8073,-3.5754,-3.6466,-3.6437,-3.2454,-3.1713,-3.0793,-2.7955,-2.7505,-2.6925,-2.4891,-2.732,-2.875,-2.6553,0.0,-2.7167,0.0,0.0,0.0,0.0,-2.84,-2.8473,0.0,0.0,0.0,0.0,0.0,-2.7538,-3.0025,-3.2823,-3.457,-3.543,-3.625,-3.6699,-3.6758,-3.7578,-3.8184,-3.8574,-3.8574,-3.8574,-3.8409,-3.8409,-3.8263,-3.8117,-3.8117,-3.8117,-3.797,-3.6109,-3.6423,-3.797,-3.5961,-3.6571,-3.8117,0.0,0.0,-2.5937,-2.6006,-2.9087,-3.099,-2.9617,-3.1023,-3.2715,-3.4342,-3.3458,-3.3458,-3.4935,-3.6417,-3.6605,-3.4926,-3.541,-3.4881,-3.2706,-3.1533,-2.9898,-2.7919,-2.7305,-2.7305,-2.7762,-2.6398,-2.5878,-2.602,-2.5445,-2.505,-2.4983,-2.4743,-2.4329,-2.3865,-2.3479,-2.5411,-2.9161,-3.2095,-3.3502,-3.3613,-3.3425,-3.3676,-3.4115,-3.5481,-3.1226,-2.463,-2.4538,-2.6283,-2.8317,-2.828,-2.896,-2.9439,-2.6793,-2.5253,-2.4649,-2.4568,-2.4999,-2.6744,-3.377,-3.0479,-2.5675,-2.8639,-3.3953,-3.6651,-2.9042,-2.7605,-2.7656,-2.6559,-2.6413,-2.6555,-2.7416,-2.7505,-2.6852,-2.462,-2.5997,-2.6358,-2.3454,-2.4272,0.0,0.0,-2.4881,-2.6332,-2.8595,-3.0344,-3.0997,0.0,0.0,0.0,0.0,-2.9958,-3.023,-3.2459,-3.4264,-3.5332,-3.5859,-3.6406,-3.6992,-3.7637,-3.8164,-3.8476,-3.8574,-3.8574,-3.7805,-3.6275,-3.6275,-3.5366,-3.4018,-3.4018,-3.4018,-3.3868,-3.3398,-3.3566,-3.3868,-3.3398,-3.3549,-3.4018,-2.4286,-2.4462,-2.477,-2.5037,-2.6829,-2.8014,-2.6858,-2.8456,-2.9986,-3.0959,-3.0932,-3.132,-3.2485,-3.35,-3.357,-3.2349,-3.4484,-3.474,-3.1612,-3.1647,-3.0489,-2.7494,-2.7354,-2.7354,-2.7354,-2.6126,-2.5371,-2.5077,-2.4943,-2.4877,-2.4877,-2.4743,-2.4448,-2.4296,-2.3841,-2.5437,-2.8594,-3.2041,-3.3367,-3.3437,-3.3359,-3.345,-3.3538,-3.4394,-3.1714,-2.6994,-2.5201,-2.547,-2.6619,-2.6314,-2.6896,-2.7276,-2.5253,-2.4636,-2.4636,-2.4636,-2.4905,-2.6112,-3.0871,-2.8881,-2.5438,-2.5604,-3.0206,-3.299,-2.6125,-2.4657,-2.4643,-2.462,-2.4539,-2.4974,-2.6008,-2.621,-2.5646,-2.4219,-2.5143,-2.511,-2.2187,-2.3518,0.0,-2.4495,-2.5518,-2.7279,-2.9996,-3.1484,-3.1798,-3.0971,0.0,0.0,-3.2119,-3.2227,-3.273,-3.375,-3.4824,-3.5703,-3.6309,-3.6738,-3.7285,-3.793,-3.7969,-3.8203,-3.8574,-3.8359,-3.7302,-3.5497,-3.5316,-3.4294,-3.2489,-3.2324,-3.2357,-3.2353,-3.1437,-3.159,-3.2353,-3.1437,-3.1743,-3.2505,-2.3968,-2.4102,-2.4315,-2.485,-2.4985,-2.4796,-2.4569,-2.6097,-2.7236,-2.6937,-2.8554,-2.9721,-2.9721,-3.0053,-3.0086,-2.9802,-3.3729,-3.4623,-3.0582,-3.2364,-3.2002,-2.8327,-2.8177,-2.8177,-2.8177,-2.6309,-2.5211,-2.4877,-2.4623,-2.4516,-2.4663,-2.458,-2.4467,-2.4323,-2.4524,-2.5802,-2.8147,-3.1801,-3.3386,-3.3369,-3.3369,-3.3417,-3.3308,-3.2411,-3.0977,-2.9057,-2.5781,-2.4542,-2.4636,-2.4636,-2.4636,-2.4636,-2.4636,-2.4636,-2.4636,-2.4636,-2.4609,-2.4649,-2.4644,-2.5402,-2.606,-2.4822,-2.705,-2.8552,-2.5414,-2.4583,-2.4636,-2.4636,-2.4636,-2.4636,-2.4636,-2.4596,-2.4396,-2.3861,-2.4398,-2.4127,-2.1862,0.0,-2.4736,-2.5577,-2.5911,-2.7383,-3.1034,-3.2049,-3.2185,-3.1304,-3.3049,-3.3155,0.0,-3.2322,-3.3378,-3.3666,-3.4813,-3.5859,-3.666,-3.709,-3.748,-3.7832,-3.7294,-3.7344,-3.7924,-3.7383,-3.6218,-3.4496,-3.438,-3.3259,-3.1558,-3.1253,-3.1317,-3.1421,-2.9544,-2.9976,-3.1357,-2.9529,-2.9976,-3.151,-2.3394,-2.3661,-2.3941,-2.4275,-2.5484,-2.5768,-2.4512,-2.5727,-2.6764,-2.6703,-2.7028,-2.7198,-2.7198,-2.8847,-2.9288,-2.7611,-2.9944,-3.059,-2.8542,-2.9026,-2.8477,-2.6101,-2.5963,-2.5963,-2.5963,-2.5173,-2.4516,-2.3968,-2.3928,-2.4215,-2.4556,-2.4188,-2.3688,-2.3227,-2.4122,-2.5337,-2.7014,-3.1468,-3.3392,-3.3354,-3.3354,-3.3383,-3.2803,-2.7932,-2.5731,-2.5426,-2.4809,-2.4542,-2.4636,-2.4636,-2.4636,-2.4636,-2.4636,-2.4636,-2.4636,-2.4636,-2.4636,-2.4541,-2.4657,-2.5104,-2.5418,-2.4796,-2.5053,-2.5294,-2.4793,-2.4609,-2.4636,-2.4636,-2.4636,-2.4636,-2.4636,-2.4436,-2.4155,-2.3821,-2.3106,-2.2277,-2.1269,0.0,-2.1954,-2.3369,-2.4684,-2.647,-2.9213,-3.2427,-3.3992,-3.3084,-3.2033,-2.9343,-2.462,-2.5513,-2.7616,-3.0806,-3.4153,-3.6172,-3.666,-3.709,-3.7324,-3.7402,-3.6234,-3.5486,-3.5137,-3.3953,-3.2123,-2.9945,-3.0176,-2.9249,-2.7305,-2.725,-2.7264,-2.7278,-2.6731,-2.6776,-2.6932,-2.6635,-2.6776,-2.6973,-2.3233,-2.3434,-2.3621,-2.3915,-2.4547,-2.472,-2.387,-2.4437,-2.5073,-2.4903,-2.5031,-2.513,-2.513,-2.595,-2.6179,-2.5342,-2.6328,-2.6647,-2.5795,-2.8091,-2.8658,-2.6638,-2.7335,-2.7158,-2.5979,-2.4725,-2.4035,-2.3768,-2.3768,-2.3924,-2.3937,-2.3776,-2.346,-2.2854,-2.346,-2.4003,-2.4804,-2.8908,-3.0662,-3.0467,-2.8521,-2.7751,-2.7486,-2.4761,-2.4024,-2.4616,-2.4404,-2.4382,-2.4636,-2.4636,-2.4636,-2.4636,-2.4636,-2.4636,-2.4636,-2.4636,-2.4636,-2.4703,-2.482,-2.4957,-2.5012,-2.4863,-2.4743,-2.4596,-2.4622,-2.4543,-2.4636,-2.4636,-2.4636,-2.4636,-2.4636,-2.4555,-2.4273,-2.3977,-2.2944,0.0,0.0,-2.1562,-2.2241,-2.3783,-2.4857,-2.6324,-2.882,-2.922,-2.907,-2.8694,-2.7974,-2.6409,-2.391,-2.4241,-2.5356,-2.7184,-3.1192,-3.3426,-3.3606,-3.4815,-3.5586,-3.5811,-3.4719,-3.4288,-3.4504,-3.2634,-3.0878,-2.897,-2.912,-2.7974,-2.6146,-2.5985,-2.5919,-2.5905,-2.5772,-2.5718,-2.5732,-2.5892,-2.5959,-2.5999,-2.2993,-2.3113,-2.3233,-2.3607,-2.3607,-2.3487,-2.326,-2.3354,-2.3354,-2.306,-2.3273,-2.346,-2.346,-2.3581,-2.3661,-2.3661,-2.3941,-2.4008,-2.3794,-2.7393,-2.8664,-2.6705,-2.7722,-2.7555,-2.5702,-2.4341,-2.3634,-2.3554,-2.3554,-2.3554,-2.3386,-2.3327,-2.322,-2.2902,-2.2953,-2.3161,-2.3941,-2.6625,-2.7761,-2.7503,-2.5128,-2.3616,-2.2873,-2.2939,-2.3547,-2.4336,-2.4075,-2.413,-2.4543,-2.4543,-2.4583,-2.4636,-2.4636,-2.4636,-2.4636,-2.4636,-2.4636,-2.469,-2.4917,-2.481,-2.469,-2.4917,-2.481,-2.4636,-2.4636,-2.4636,-2.4636,-2.4636,-2.4636,-2.4636,-2.4636,-2.4569,-2.4444,-2.3977,0.0,0.0,0.0,-2.2048,-2.2835,-2.4013,-2.4701,-2.5891,-2.7617,-2.5823,-2.4648,-2.4556,-2.4597,-2.4562,-2.462,-2.4562,-2.4665,-2.4593,-2.8403,-3.0353,-3.0353,-3.2221,-3.3269,-3.3482,-3.2631,-3.2416,-3.2884,-3.0909,-2.9333,-2.8256,-2.8256,-2.7353,-2.5838,-2.5611,-2.5518,-2.5504,-2.5438,-2.5411,-2.5451,-2.5745,-2.5812,-2.5798,-2.2378,-2.2485,-2.2672,-2.326,-2.3126,-2.2926,-2.2899,-2.2686,-2.2418,-2.2124,-2.2338,-2.2512,-2.2512,-2.302,-2.3367,-2.3367,-2.3634,-2.3937,-2.3937,-2.5736,-2.6018,-2.4106,-2.4235,-2.4072,-2.3493,-2.3354,-2.322,-2.2926,-2.2926,-2.2926,-2.2926,-2.2899,-2.2899,-2.2886,-2.2873,-2.4088,-2.6145,-2.646,-2.646,-2.6594,-2.7391,-2.5847,-2.2886,-2.2875,-2.3174,-2.3588,-2.3714,-2.3995,-2.4235,-2.4566,-2.4582,-2.4636,-2.4636,-2.4636,-2.4636,-2.4636,-2.4636,-2.4636,-2.4663,-2.4649,-2.4636,-2.4663,-2.4649,-2.4636,-2.4636,-2.4636,-2.4636,-2.4636,-2.4636,-2.4636,-2.4636,-2.4569,-2.4431,-2.3964,0.0,0.0,-2.1846,-2.1884,-2.2109,-2.2472,-2.3403,-2.4066,-2.4273,-2.4542,-2.4556,-2.4569,-2.4583,-2.4583,-2.4609,-2.4583,-2.4583,-2.4609,-2.7167,-2.8633,-2.8633,-3.0287,-3.0993,-3.0534,-2.9446,-2.8714,-2.8323,-2.6706,-2.5824,-2.5698,-2.5698,-2.5698,-2.5545,-2.5518,-2.5518,-2.5491,-2.5224,-2.5117,-2.5144,-2.5438,-2.5371,-2.5224,-2.2071,-2.2151,-2.2218,-2.2458,-2.2392,-2.2311,-2.2311,-2.2218,-2.2111,-2.2004,-2.2084,-2.2218,-2.2257,-2.2619,-2.2832,-2.302,-2.3313,-2.342,-2.3372,-2.4245,-2.5466,-2.6893,-2.5928,-2.5106,-2.4653,-2.3571,-2.2979,-2.2859,-2.2859,-2.2859,-2.2859,-2.2859,-2.2766,-2.2592,-2.2779,-2.3311,-2.3955,-2.3955,-2.3955,-2.3955,-2.4578,-2.404,-2.293,-2.2926,-2.3153,-2.3507,-2.346,-2.3688,-2.3941,-2.4098,-2.4286,-2.4369,-2.4369,-2.4489,-2.4636,-2.4636,-2.4636,-2.4636,-2.4636,-2.4636,-2.4636,-2.4636,-2.4636,-2.4636,-2.4636,-2.4636,-2.4636,-2.4636,-2.4636,-2.4636,-2.4636,-2.4569,-2.4553,-2.4302,0.0,-2.3092,-2.306,-2.2603,-2.2413,-2.3193,-2.3559,-2.3984,-2.4289,-2.4569,-2.4636,-2.4636,-2.4636,-2.4636,-2.4636,-2.4462,-2.4449,-2.4623,-2.5375,-2.5897,-2.6082,-2.7855,-2.8753,-2.8485,-2.8182,-2.7909,-2.7851,-2.6074,-2.5344,-2.5518,-2.5518,-2.5411,-2.5251,-2.5251,-2.513,-2.4957,-2.485,-2.481,-2.4836,-2.513,-2.5211,-2.5224,-2.179,-2.1844,-2.1884,-2.1977,-2.1991,-2.1951,-2.1857,-2.1844,-2.1817,-2.1724,-2.179,-2.1924,-2.2124,-2.2231,-2.2553,-2.2848,-2.2983,-2.2899,-2.2859,-2.326,-2.4526,-2.6966,-2.5906,-2.494,-2.4723,-2.3529,-2.2859,-2.2859,-2.2859,-2.2859,-2.2859,-2.2859,-2.2752,-2.2565,-2.2766,-2.2752,-2.2552,-2.2458,-2.2472,-2.2552,-2.2606,-2.2768,-2.289,-2.2929,-2.3006,-2.3332,-2.318,-2.338,-2.3634,-2.3634,-2.3888,-2.4209,-2.4209,-2.4396,-2.4636,-2.4636,-2.4636,-2.4636,-2.4636,-2.4636,-2.4636,-2.4636,-2.4636,-2.4636,-2.4636,-2.4636,-2.4663,-2.4756,-2.4703,-2.4663,-2.4595,-2.4543,-2.4542,-2.4649,-2.3977,-2.3561,-2.4052,-2.3407,-2.3134,-2.3714,-2.3785,-2.401,-2.4476,-2.4422,-2.4436,-2.4623,-2.4556,-2.4543,-2.4636,-2.4449,-2.4276,-2.4301,-2.4289,-2.4382,-2.4342,-2.5876,-2.6648,-2.6648,-2.6648,-2.6807,-2.6978,-2.5664,-2.5184,-2.5371,-2.5371,-2.5211,-2.4943,-2.4943,-2.4823,-2.4636,-2.4636,-2.4636,-2.4676,-2.497,-2.5064,-2.4927,-2.1496,-2.155,-2.1643,-2.1924,-2.1977,-2.1884,-2.159,-2.155,-2.1443,-2.1149,-2.1363,-2.1679,-2.1692,-2.2092,-2.2403,-2.2848,-2.259,-2.2525,-2.2819,-2.2859,-2.2993,-2.33,-2.3033,-2.2859,-2.2859,-2.2859,-2.2859,-2.2859,-2.2859,-2.2859,-2.2859,-2.2859,-2.2859,-2.2859,-2.2859,-2.2859,-2.2832,-2.2539,-2.2579,-2.2832,-2.2229,-2.2295,-2.2859,-2.2859,-2.2859,-2.2859,-2.2859,-2.306,-2.3327,-2.3327,-2.3714,-2.4195,-2.4209,-2.4396,-2.4636,-2.4636,-2.4636,-2.4636,-2.4636,-2.4636,-2.4636,-2.4636,-2.4636,-2.4636,-2.4636,-2.4636,-2.473,-2.5187,-2.485,-2.4568,-2.4671,-2.4661,-2.4556,-2.4593,-2.4539,-2.4603,-2.4616,-2.4263,-2.3937,-2.3781,-2.3781,-2.3888,-2.4168,-2.3941,-2.4022,-2.4596,-2.4542,-2.4661,-2.4623,-2.4623,-2.4301,-2.3806,-2.4301,-2.4329,-2.3879,-2.4329,-2.4636,-2.4636,-2.4636,-2.4796,-2.5077,-2.5077,-2.5077,-2.5077,-2.5077,-2.4917,-2.4636,-2.4636,-2.4636,-2.4636,-2.4636,-2.4636,-2.4676,-2.497,-2.489,-2.469,-2.1189,-2.1243,-2.1269,-2.1349,-2.1376,-2.1336,-2.1256,-2.1243,-2.1203,-2.1122,-2.1189,-2.1309,-2.1239,-2.1331,-2.1503,-2.1634,-2.1885,-2.2203,-2.2231,-2.2432,-2.2592,-2.2686,-2.2806,-2.2859,-2.2859,-2.2859,-2.2859,-2.2859,-2.2859,-2.2859,-2.2859,-2.2859,-2.2752,-2.2552,-2.2552,-2.2432,-2.2231,-2.1937,-2.1964,-2.2085,-2.2005,-2.2138,-2.2565,-2.2779,-2.2859,-2.2859,-2.2859,-2.2926,-2.3006,-2.3006,-2.326,-2.3661,-2.4075,-2.4396,-2.4636,-2.4636,-2.4636,-2.4636,-2.4636,-2.4636,-2.4636,-2.4636,-2.4636,-2.4636,-2.4636,-2.4796,-2.497,-2.5064,-2.5173,-2.5147,-2.4723,-2.4661,-2.4609,-2.4529,-2.4663,-2.4636,-2.4569,-2.4542,-2.4382,-2.4382,-2.4382,-2.417,-2.372,-2.4143,-2.4369,-2.4329,-2.4262,-2.4249,-2.4329,-2.4142,-2.4128,-2.4329,-2.4329,-2.4382,-2.4342,-2.4583,-2.4529,-2.4329,-2.4543,-2.4796,-2.5077,-2.4863,-2.489,-2.5064,-2.4863,-2.4716,-2.4636,-2.4636,-2.4636,-2.4636,-2.4636,-2.4636,-2.4649,-2.4918,-2.4891,-2.4663,-2.0909,-2.1029,-2.1109,-2.1109,-2.1109,-2.1109,-2.1109,-2.1015,-2.0975,-2.1096,-2.0909,-2.0783,-2.1041,-2.1129,-2.108,-2.1045,-2.1621,-2.1937,-2.1817,-2.2084,-2.2245,-2.2245,-2.2418,-2.2565,-2.2686,-2.2686,-2.2686,-2.2686,-2.2686,-2.2752,-2.2859,-2.2859,-2.2766,-2.2592,-2.2472,-2.2325,-2.2284,-2.1867,-2.1777,-2.1846,-2.1727,-2.1859,-2.231,-2.2739,-2.2792,-2.2699,-2.2819,-2.2859,-2.2859,-2.2859,-2.3073,-2.3434,-2.4022,-2.4329,-2.4489,-2.4609,-2.4636,-2.4636,-2.4636,-2.4636,-2.4636,-2.4636,-2.4636,-2.4636,-2.4636,-2.4783,-2.497,-2.5197,-2.5241,-2.531,-2.4869,-2.4741,-2.4636,-2.4636,-2.4636,-2.4636,-2.4636,-2.4636,-2.4596,-2.4636,-2.4636,-2.4356,-2.372,-2.4037,-2.4275,-2.4209,-2.4302,-2.4369,-2.4369,-2.4209,-2.4209,-2.4542,-2.4382,-2.4396,-2.4302,-2.4569,-2.4556,-2.4382,-2.4556,-2.473,-2.4903,-2.4836,-2.485,-2.4903,-2.4836,-2.4743,-2.4636,-2.4636,-2.4636,-2.4636,-2.4636,-2.4636,-2.4649,-2.4945,-2.489,-2.4618,-2.0902,-2.0994,-2.1042,-2.1096,-2.1082,-2.1082,-2.1109,-2.0869,-2.0775,-2.1042,-2.0588,-2.0454,-2.1015,-2.1105,-2.1047,-2.1159,-2.1607,-2.179,-2.1537,-2.179,-2.1951,-2.1951,-2.1977,-2.2098,-2.2338,-2.2392,-2.2418,-2.2418,-2.2418,-2.2552,-2.2819,-2.2819,-2.2819,-2.2806,-2.2512,-2.2512,-2.2753,-2.2038,-2.1844,-2.191,-2.1489,-2.1726,-2.2337,-2.2726,-2.2659,-2.2458,-2.2726,-2.2819,-2.2819,-2.2859,-2.3073,-2.342,-2.3995,-2.4182,-2.4262,-2.4556,-2.4636,-2.4636,-2.4636,-2.4636,-2.4636,-2.4636,-2.4636,-2.4636,-2.4636,-2.4663,-2.4836,-2.5398,-2.5404,-2.5202,-2.5232,-2.486,-2.4636,-2.4636,-2.4636,-2.4636,-2.4636,-2.4636,-2.4543,-2.4607,-2.4553,-2.4417,-2.3834,-2.3964,-2.4085,-2.4222,-2.4462,-2.4596,-2.4596,-2.4596,-2.4596,-2.4596,-2.4623,-2.4356,-2.4077,-2.4356,-2.4623,-2.4596,-2.4623,-2.4636,-2.4649,-2.4917,-2.489,-2.4649,-2.4917,-2.489,-2.4636,-2.4636,-2.4636,-2.4636,-2.4636,-2.4636,-2.4676,-2.4943,-2.4895,-2.4709,-2.2384,-2.138,-2.0561,-2.1029,-2.0922,-2.0842,-2.1069,-2.0869,-2.0695,-2.0762,-2.059,-2.051,-2.0597,-2.0571,-2.0815,-2.1036,-2.1256,-2.1269,-2.1203,-2.1483,-2.1643,-2.1643,-2.1857,-2.1911,-2.175,-2.2191,-2.2418,-2.2418,-2.2418,-2.2458,-2.2512,-2.2512,-2.2512,-2.2498,-2.2205,-2.2096,-2.1867,-2.1491,-2.1537,-2.2058,-2.2017,-2.2298,-2.2739,-2.2565,-2.2324,-2.2284,-2.2485,-2.2512,-2.2552,-2.2779,-2.3073,-2.3394,-2.3754,-2.4022,-2.4262,-2.4556,-2.4636,-2.4636,-2.4636,-2.4636,-2.4636,-2.4636,-2.4636,-2.4636,-2.4636,-2.4823,-2.509,-2.5438,-2.558,-2.5595,-2.5272,-2.486,-2.4636,-2.4636,-2.4636,-2.4636,-2.4636,-2.4636,-2.4623,-2.4556,-2.4342,-2.4024,-2.3957,-2.4102,-2.4235,-2.4516,-2.4396,-2.4302,-2.4302,-2.4302,-2.4289,-2.413,-2.4516,-2.4609,-2.4543,-2.4596,-2.4516,-2.4302,-2.4529,-2.4636,-2.4636,-2.4703,-2.469,-2.4636,-2.4703,-2.469,-2.4636,-2.4636,-2.4636,-2.4636,-2.4636,-2.4636,-2.4649,-2.5039,-2.4957,-2.4553,-2.2409,-2.1886,-2.1157,-2.0752,-2.0561,-2.0521,-2.0668,-2.0441,-2.0361,-2.0641,-2.0429,-2.0254,-2.0526,-2.0611,-2.0788,-2.1082,-2.1109,-2.1109,-2.1109,-2.1256,-2.1336,-2.1336,-2.1483,-2.1563,-2.155,-2.1844,-2.2004,-2.2004,-2.2151,-2.2218,-2.2218,-2.2218,-2.2285,-2.2405,-2.1977,-2.1907,-2.1867,-2.1296,-2.1598,-2.244,-2.2572,-2.2471,-2.2445,-2.258,-2.2245,-2.1727,-2.2005,-2.2151,-2.2458,-2.2766,-2.2966,-2.3153,-2.346,-2.3661,-2.3875,-2.4302,-2.4501,-2.4607,-2.4569,-2.4543,-2.4622,-2.4609,-2.4636,-2.4636,-2.4636,-2.4756,-2.4957,-2.5251,-2.5241,-2.5133,-2.5086,-2.4781,-2.4636,-2.4636,-2.4636,-2.4636,-2.4636,-2.4636,-2.4636,-2.4636,-2.4342,-2.4249,-2.4249,-2.4275,-2.4329,-2.4609,-2.4489,-2.4409,-2.4409,-2.4409,-2.4409,-2.4249,-2.4556,-2.4636,-2.4636,-2.4636,-2.4556,-2.4409,-2.4569,-2.4636,-2.4636,-2.4636,-2.4636,-2.4636,-2.4636,-2.4636,-2.4636,-2.4636,-2.4636,-2.4636,-2.4636,-2.4636,-2.4663,-2.4972,-2.4983,-2.4763,-2.2397,-2.2376,-2.1993,-2.0805,-2.0308,-2.0174,-2.0227,-1.9987,-1.9973,-2.0468,-2.0054,-1.9893,-2.0375,-2.0611,-2.0788,-2.1082,-2.1109,-2.1109,-2.1109,-2.1109,-2.1109,-2.1109,-2.1109,-2.1229,-2.147,-2.1523,-2.155,-2.155,-2.179,-2.1911,-2.1911,-2.1911,-2.2044,-2.2245,-2.1907,-2.18,-2.1804,-2.1323,-2.1713,-2.2649,-2.2717,-2.2572,-2.2163,-2.2565,-2.2149,-2.1136,-2.1516,-2.1978,-2.2472,-2.2766,-2.2859,-2.2913,-2.3233,-2.3327,-2.3447,-2.4035,-2.4363,-2.461,-2.4649,-2.4622,-2.4661,-2.4583,-2.4636,-2.4636,-2.4636,-2.4636,-2.4716,-2.5024,-2.4836,-2.473,-2.5024,-2.4836,-2.4636,-2.4636,-2.4636,-2.4636,-2.4636,-2.4636,-2.4636,-2.4636,-2.4636,-2.4623,-2.4569,-2.4396,-2.4382,-2.4623,-2.4636,-2.4636,-2.4636,-2.4636,-2.4636,-2.4636,-2.4636,-2.4636,-2.4636,-2.4636,-2.4636,-2.4636,-2.4636,-2.4636,-2.4636,-2.4636,-2.4636,-2.4636,-2.4636,-2.4636,-2.4636,-2.4636,-2.4636,-2.4636,-2.4636,-2.4636,-2.4663,-2.4917,-2.4997,-2.497,-2.3959,-2.2788,-2.1784,-2.2142,-2.0851,-1.9947,-2.0187,-1.9987,-1.9826,-1.9907,-1.9626,-1.9559,-1.9814,-2.0388,-2.0788,-2.1082,-2.1109,-2.1109,-2.1109,-2.1109,-2.1109,-2.1109,-2.1109,-2.1122,-2.1162,-2.1416,-2.155,-2.155,-2.159,-2.1617,-2.1617,-2.1617,-2.163,-2.167,-2.1733,-2.1571,-2.1229,-2.1136,-2.1168,-2.1344,-2.2042,-2.2572,-2.2745,-2.2481,-2.1844,-2.1109,-2.1149,-2.1951,-2.2781,-2.2916,-2.2859,-2.2913,-2.3233,-2.3327,-2.3447,-2.4035,-2.434,-2.4553,-2.4556,-2.4609,-2.4596,-2.4623,-2.4636,-2.4636,-2.4636,-2.4636,-2.4716,-2.5024,-2.4836,-2.473,-2.5024,-2.4836,-2.4636,-2.4636,-2.4636,-2.4636,-2.4636,-2.4636,-2.4636,-2.4636,-2.4636,-2.4543,-2.4289,-2.4449,-2.4596,-2.4636,-2.4636,-2.4636,-2.4636,-2.4636,-2.4636,-2.4636,-2.4636,-2.4636,-2.4636,-2.4636,-2.4636,-2.4636,-2.4636,-2.4636,-2.4636,-2.4636,-2.4636,-2.4636,-2.4636,-2.4636,-2.4636,-2.4636,-2.4636,-2.4636,-2.4636,-2.4636,-2.4636,-2.4676,-2.469,-2.469,-2.5155,-2.3937,-2.2683,-2.209,-2.1336,-2.0611,-1.9838,-1.9639,-1.9613,-1.9773,-1.9693,-1.972,-2.0013,-2.0428,-2.0788,-2.1082,-2.1109,-2.1109,-2.1109,-2.1109,-2.1109,-2.1109,-2.1109,-2.1109,-2.1109,-2.1243,-2.1309,-2.1309,-2.147,-2.147,-2.1309,-2.1309,-2.1403,-2.1679,-2.1518,-2.1619,-2.2084,-2.1363,-2.1083,-2.1071,-2.149,-2.2136,-2.2863,-2.2697,-2.1957,-2.1123,-2.1137,-2.1674,-2.2671,-2.2822,-2.2875,-2.2886,-2.302,-2.3073,-2.3153,-2.3594,-2.3883,-2.4147,-2.4275,-2.4555,-2.4609,-2.4596,-2.4636,-2.4636,-2.4636,-2.4636,-2.4676,-2.481,-2.473,-2.4676,-2.481,-2.473,-2.4636,-2.4636,-2.4636,-2.4636,-2.4636,-2.4636,-2.4636,-2.4636,-2.4636,-2.4583,-2.4449,-2.4556,-2.4636,-2.4636,-2.4636,-2.4636,-2.4636,-2.4649,-2.4569,-2.4569,-2.4569,-2.4488,-2.4313,-2.4315,-2.4236,-2.4396,-2.4396,-2.4476,-2.4636,-2.4636,-2.4636,-2.4636,-2.4636,-2.4636,-2.4636,-2.4636,-2.4636,-2.4623,-2.4462,-2.4396,-2.4409,-2.4569,-2.4636,-2.4636]},{"header":{"parameterUnit":"m.s-1","parameterCategory":1,"la1":30.6,"la2":28.766,"lo1":-90.7593,"lo2":-88.6598,"dy":0.0162,"dx":0.0183,"nx":116,"ny":114,"refTime":"2023-06-17T00:00:00:Z","depth":0,"parameterNumber":3,"parameterNumberName":"V-component_of_WINDS"},"data":[0.0,0.0,0.0,0.0,0.0,0.0,0.0,0.0,0.0,0.0,0.0,0.0,0.0,0.0,0.0,0.0,0.0,0.0,0.0,0.0,0.0,0.0,0.0,0.0,0.0,0.0,0.0,0.0,0.0,0.0,0.0,0.0,0.0,0.0,0.0,0.0,0.0,0.0,0.0,0.0,0.0,0.0,0.0,0.0,0.0,0.0,0.0,0.0,0.0,0.0,0.0,0.0,0.0,0.0,0.0,0.0,0.0,0.0,0.0,0.0,0.0,0.0,0.0,0.0,0.0,0.0,0.0,0.0,0.0,0.0,0.0,0.0,0.0,0.0,0.0,0.0,0.0,0.0,0.0,0.0,0.0,0.0,0.0,0.0,0.0,0.0,0.0,0.0,0.0,0.0,0.0,0.0,0.0,0.0,0.0,0.0,0.0,0.0,0.0,0.0,0.0,0.0,0.0,0.0,0.0,0.0,0.0,0.0,0.0,0.0,0.0,0.0,0.0,0.0,0.0,0.0,0.0,0.0,0.0,0.0,0.0,0.0,0.0,0.0,0.0,0.0,0.0,0.0,0.0,0.0,0.0,0.0,0.0,0.0,0.0,0.0,0.0,0.0,0.0,0.0,0.0,0.0,0.0,0.0,0.0,0.0,0.0,0.0,0.0,0.0,0.0,0.0,0.0,0.0,0.0,0.0,0.0,0.0,0.0,0.0,0.0,0.0,0.0,0.0,0.0,0.0,0.0,0.0,0.0,0.0,0.0,0.0,0.0,0.0,0.0,0.0,0.0,0.0,0.0,0.0,0.0,0.0,0.0,0.0,0.0,0.0,0.0,0.0,0.0,0.0,0.0,0.0,0.0,0.0,0.0,0.0,0.0,0.0,0.0,0.0,0.0,0.0,0.0,0.0,0.0,0.0,0.0,0.0,0.0,0.0,0.0,0.0,0.0,0.0,0.0,0.0,0.0,0.0,0.0,0.0,0.0,0.0,0.0,0.0,0.0,0.0,0.0,0.0,0.0,0.0,0.0,0.0,0.0,0.0,0.0,0.0,0.0,0.0,0.0,0.0,0.0,0.0,0.0,0.0,0.0,0.0,0.0,0.0,0.0,0.0,0.0,0.0,0.0,0.0,0.0,0.0,0.0,0.0,0.0,0.0,0.0,0.0,0.0,0.0,0.0,0.0,0.0,0.0,0.0,0.0,0.0,0.0,0.0,0.0,0.0,0.0,0.0,0.0,0.0,0.0,0.0,0.0,0.0,0.0,0.0,0.0,0.0,0.0,0.0,0.0,0.0,0.0,0.0,0.0,0.0,0.0,0.0,0.0,0.0,0.0,0.0,0.0,0.0,0.0,0.0,0.0,0.0,0.0,0.0,0.0,0.0,0.0,0.0,0.0,0.0,0.0,0.0,0.0,0.0,0.0,0.0,0.0,0.0,0.0,0.0,0.0,0.0,0.0,0.0,0.0,0.0,0.0,0.0,0.0,0.0,0.0,0.0,0.0,0.0,0.0,0.0,0.0,0.0,0.0,0.0,0.0,0.0,0.0,0.0,0.0,0.0,0.0,0.0,0.0,0.0,0.0,0.0,0.0,0.0,0.0,0.0,0.0,0.0,0.0,0.0,0.0,0.0,0.0,0.0,0.0,0.0,0.0,0.0,0.0,0.0,0.0,0.0,0.0,0.0,0.0,0.0,0.0,0.0,0.0,0.0,0.0,0.0,0.0,0.0,0.0,0.0,0.0,0.0,0.0,0.0,0.0,0.0,0.0,0.0,0.0,0.0,0.0,0.0,0.0,0.0,0.0,0.0,0.0,0.0,0.0,0.0,0.0,0.0,0.0,0.0,0.0,0.0,0.0,0.0,0.0,0.0,0.0,0.0,0.0,0.0,0.0,0.0,0.0,0.0,0.0,0.0,0.0,0.0,0.0,0.0,0.0,0.0,0.0,0.0,0.0,0.0,0.0,0.0,0.0,0.0,0.0,0.0,0.0,0.0,0.0,0.0,0.0,0.0,0.0,0.0,0.0,0.0,0.0,0.0,0.0,0.0,0.0,0.0,0.0,0.0,0.0,0.0,0.0,0.0,0.0,0.0,0.0,0.0,0.0,0.0,0.0,0.0,0.0,0.0,0.0,0.0,0.0,0.0,0.0,0.0,0.0,0.0,0.0,0.0,0.0,0.0,0.0,0.0,0.0,0.0,0.0,0.0,0.0,0.0,0.0,0.0,0.0,0.0,0.0,0.0,0.0,0.0,0.0,0.0,0.0,0.0,0.0,0.0,0.0,0.0,0.0,0.0,0.0,0.0,0.0,0.0,0.0,0.0,0.0,0.0,0.0,0.0,0.0,0.0,0.0,0.0,0.0,0.0,0.0,0.0,0.0,0.0,0.0,0.0,0.0,0.0,0.0,0.0,0.0,0.0,0.0,0.0,0.0,0.0,0.0,0.0,0.0,0.0,0.0,0.0,0.0,0.0,0.0,0.0,0.0,0.0,0.0,0.0,0.0,0.0,0.0,0.0,0.0,0.0,0.0,0.0,0.0,0.0,0.0,0.0,0.0,0.0,0.0,0.0,0.0,0.0,0.0,0.0,0.0,0.0,0.0,0.0,0.0,0.0,0.0,0.0,0.0,0.0,0.0,0.0,0.0,0.0,0.0,0.0,0.0,0.0,0.0,0.0,0.0,0.0,0.0,0.0,0.0,0.0,0.0,0.0,0.0,0.0,0.0,0.0,0.0,0.0,0.0,0.0,0.0,0.0,0.0,0.0,0.0,0.0,0.0,0.0,0.0,0.0,0.0,0.0,0.0,0.0,0.0,0.0,0.0,0.0,0.0,0.0,0.0,0.0,0.0,0.0,0.0,0.0,0.0,0.0,0.0,0.0,0.0,0.0,0.0,0.0,0.0,0.0,0.0,0.0,0.0,0.0,0.0,0.0,0.0,0.0,0.0,0.0,0.0,0.0,0.0,0.0,0.0,0.0,0.0,0.0,0.0,0.0,0.0,0.0,0.0,0.0,0.0,0.0,0.0,0.0,0.0,0.0,0.0,0.0,0.0,0.0,0.0,0.0,0.0,0.0,0.0,0.0,0.0,0.0,0.0,0.0,0.0,0.0,0.0,0.0,0.0,0.0,0.0,0.0,0.0,0.0,0.0,0.0,0.0,0.0,0.0,0.0,0.0,0.0,0.0,0.0,0.0,0.0,0.0,0.0,0.0,0.0,0.0,0.0,0.0,0.0,0.0,0.0,0.0,0.0,0.0,0.0,0.0,0.0,0.0,0.0,0.0,0.0,0.0,0.0,0.0,0.0,0.0,0.0,0.0,0.0,0.0,0.0,0.0,0.0,0.0,0.0,0.0,0.0,0.0,0.0,0.0,0.0,0.0,0.0,0.0,0.0,0.0,0.0,0.0,0.0,0.0,0.0,0.0,0.0,0.0,0.0,0.0,0.0,0.0,0.0,0.0,0.0,0.0,0.0,0.0,0.0,0.0,0.0,0.0,0.0,0.0,0.0,0.0,0.0,0.0,0.0,0.0,0.0,0.0,0.0,0.0,0.0,0.0,0.0,0.0,0.0,0.0,0.0,0.0,0.0,0.0,0.0,0.0,0.0,0.0,0.0,0.0,0.0,0.0,0.0,0.0,0.0,0.0,0.0,0.0,0.0,0.0,0.0,0.0,0.0,0.0,0.0,0.0,0.0,0.0,0.0,0.0,0.0,0.0,0.0,0.0,0.0,0.0,0.0,0.0,0.0,0.0,0.0,0.0,0.0,0.0,0.0,0.0,0.0,0.0,0.0,0.0,0.0,0.0,0.0,0.0,0.0,0.0,0.0,0.0,0.0,0.0,0.0,0.0,0.0,0.0,0.0,0.0,0.0,0.0,0.0,0.0,0.0,0.0,0.0,0.0,0.0,0.0,0.0,0.0,0.0,0.0,0.0,0.0,0.0,0.0,0.0,0.0,0.0,0.0,0.0,0.0,0.0,0.0,0.0,0.0,0.0,0.0,0.0,0.0,0.0,0.0,0.0,0.0,0.0,0.0,0.0,0.0,0.0,0.0,0.0,0.0,0.0,0.0,0.0,0.0,0.0,0.0,0.0,0.0,0.0,0.0,0.0,0.0,0.0,0.0,0.0,0.0,0.0,0.0,0.0,0.0,0.0,0.0,0.0,0.0,0.0,0.0,0.0,0.0,0.0,0.0,0.0,0.0,0.0,0.0,0.0,0.0,0.0,0.0,0.0,0.0,0.0,0.0,0.0,0.0,0.0,0.0,0.0,0.0,0.0,0.0,0.0,0.0,0.0,0.0,0.0,0.0,0.0,0.0,0.0,0.0,0.0,0.0,0.0,0.0,0.0,0.0,0.0,0.0,0.0,0.0,0.0,0.0,0.0,0.0,0.0,0.0,0.0,0.0,0.0,0.0,0.0,0.0,0.0,0.0,0.0,0.0,0.0,0.0,0.0,0.0,0.0,0.0,0.0,0.0,0.0,0.0,0.0,0.0,0.0,0.0,0.0,0.0,0.0,0.0,0.0,0.0,0.0,0.0,0.0,0.0,0.0,0.0,0.0,0.0,0.0,0.0,0.0,0.0,0.0,0.0,0.0,0.0,0.0,0.0,0.0,0.0,0.0,0.0,0.0,0.0,0.0,0.0,0.0,0.0,0.0,0.0,0.0,0.0,0.0,0.0,0.0,0.0,0.0,0.0,0.0,0.0,0.0,0.0,0.0,0.0,0.0,0.0,0.0,0.0,0.0,0.0,0.0,0.0,0.0,0.0,0.0,0.0,0.0,0.0,0.0,0.0,0.0,0.0,0.0,0.0,0.0,0.0,0.0,0.0,0.0,0.0,0.0,0.0,0.0,0.0,0.0,0.0,0.0,0.0,0.0,0.0,0.0,0.0,0.0,0.0,0.0,0.0,0.0,0.0,0.0,0.0,0.0,0.0,0.0,0.0,0.0,0.0,0.0,0.0,0.0,0.0,0.0,0.0,0.0,0.0,0.0,0.0,0.0,0.0,0.0,0.0,0.0,0.0,0.0,0.0,0.0,0.0,0.0,0.0,0.0,0.0,0.0,0.0,0.0,0.0,0.0,0.0,0.0,0.0,0.0,0.0,0.0,0.0,0.0,0.0,0.0,0.0,0.0,0.0,0.0,0.0,0.0,0.0,0.0,0.0,0.0,0.0,0.0,0.0,0.0,0.0,0.0,0.0,0.0,0.0,0.0,0.0,0.0,0.0,0.0,0.0,0.0,0.0,0.0,0.0,0.0,0.0,0.0,0.0,0.0,0.0,0.0,0.0,0.0,0.0,0.0,0.0,0.0,0.0,0.0,0.0,0.0,0.0,0.0,0.0,0.0,0.0,0.0,0.0,0.0,0.0,0.0,0.0,0.0,0.0,0.0,0.0,0.0,0.0,0.0,0.0,0.0,0.0,0.0,0.0,0.0,0.0,0.0,0.0,0.0,0.0,0.0,0.0,0.0,0.0,0.0,0.0,0.0,0.0,0.0,0.0,0.0,0.0,0.0,0.0,0.0,0.0,0.0,0.0,0.0,0.0,0.0,0.0,0.0,0.0,0.0,0.0,0.0,0.0,0.0,0.0,0.0,0.0,0.0,0.0,0.0,0.0,0.0,0.0,0.0,0.0,0.0,0.0,0.0,0.0,0.0,0.0,0.0,0.0,0.0,0.0,0.0,0.0,0.0,0.0,0.0,0.0,0.0,0.0,0.0,0.0,0.0,0.0,0.0,0.0,0.0,0.0,0.0,0.0,0.0,0.0,0.0,0.0,0.0,0.0,0.0,0.0,0.0,0.0,0.0,0.0,0.0,0.0,0.0,0.0,0.0,0.0,0.0,0.0,0.0,0.0,0.0,0.0,0.0,0.0,0.0,0.0,0.0,0.0,0.0,0.0,0.0,0.0,0.0,0.0,0.0,0.0,0.0,0.0,0.0,0.0,0.0,0.0,0.0,0.0,0.0,0.0,0.0,0.0,0.0,0.0,0.0,0.0,0.0,0.0,0.0,0.0,0.0,0.0,0.0,0.0,0.0,0.0,0.0,0.0,0.0,0.0,0.0,0.0,0.0,0.0,0.0,0.0,0.0,0.0,0.0,0.0,0.0,0.0,-3.111,0.0,0.0,0.0,0.0,0.0,0.0,0.0,0.0,0.0,0.0,0.0,0.0,0.0,0.0,0.0,0.0,0.0,0.0,0.0,0.0,0.0,0.0,0.0,0.0,0.0,0.0,0.0,0.0,0.0,0.0,0.0,0.0,0.0,0.0,0.0,0.0,0.0,0.0,0.0,0.0,0.0,0.0,0.0,0.0,0.0,0.0,0.0,0.0,0.0,0.0,0.0,0.0,0.0,0.0,0.0,0.0,0.0,0.0,0.0,0.0,0.0,0.0,0.0,0.0,0.0,0.0,0.0,0.0,0.0,0.0,0.0,0.0,0.0,0.0,0.0,0.0,0.0,0.0,0.0,0.0,0.0,0.0,0.0,0.0,0.0,0.0,0.0,0.0,0.0,0.0,0.0,0.0,0.0,0.0,0.0,0.0,0.0,0.0,0.0,0.0,0.0,0.0,0.0,0.0,0.0,0.0,0.0,0.0,0.0,0.0,0.0,0.0,0.0,0.0,0.0,0.0,-3.2777,0.0,0.0,0.0,0.0,0.0,0.0,0.0,0.0,0.0,0.0,0.0,0.0,0.0,0.0,0.0,0.0,0.0,0.0,0.0,0.0,0.0,0.0,0.0,0.0,0.0,0.0,0.0,0.0,0.0,0.0,0.0,0.0,0.0,0.0,0.0,0.0,0.0,0.0,0.0,0.0,0.0,0.0,0.0,0.0,0.0,0.0,0.0,0.0,0.0,0.0,0.0,0.0,0.0,0.0,0.0,0.0,0.0,0.0,0.0,0.0,0.0,0.0,0.0,0.0,0.0,0.0,0.0,0.0,0.0,0.0,0.0,0.0,0.0,0.0,0.0,0.0,0.0,0.0,0.0,0.0,0.0,0.0,0.0,0.0,0.0,0.0,0.0,0.0,0.0,0.0,0.0,0.0,0.0,0.0,0.0,0.0,0.0,0.0,0.0,0.0,0.0,0.0,0.0,0.0,0.0,0.0,0.0,0.0,-3.5328,-3.568,-3.6659,-3.6784,-3.6835,-3.6709,-3.5353,-3.4363,-3.3929,-3.6082,0.0,0.0,0.0,0.0,0.0,0.0,0.0,0.0,0.0,0.0,0.0,0.0,0.0,0.0,0.0,0.0,0.0,0.0,0.0,0.0,0.0,0.0,0.0,0.0,0.0,0.0,0.0,0.0,0.0,0.0,0.0,0.0,0.0,0.0,0.0,0.0,0.0,0.0,-4.0153,-3.9856,-3.9737,-3.9809,-4.1484,0.0,0.0,0.0,0.0,0.0,0.0,0.0,0.0,0.0,0.0,0.0,0.0,0.0,0.0,0.0,0.0,0.0,0.0,0.0,0.0,0.0,0.0,0.0,0.0,0.0,0.0,0.0,0.0,0.0,0.0,0.0,0.0,0.0,0.0,0.0,0.0,0.0,0.0,0.0,0.0,0.0,0.0,0.0,-3.5908,-3.4122,0.0,0.0,0.0,0.0,0.0,0.0,0.0,0.0,0.0,0.0,0.0,0.0,0.0,-3.2616,-3.3671,-3.4148,-3.5027,-3.6257,-3.6659,-3.7186,-3.7814,-3.8316,-3.8542,-3.8517,-3.8316,0.0,-3.6541,-3.6445,0.0,0.0,0.0,0.0,0.0,0.0,0.0,0.0,0.0,0.0,0.0,0.0,0.0,0.0,0.0,0.0,0.0,0.0,0.0,0.0,0.0,0.0,0.0,0.0,0.0,0.0,0.0,0.0,0.0,0.0,0.0,0.0,0.0,0.0,0.0,0.0,-4.2179,-4.0659,-3.9525,-3.9433,-3.9409,-3.9409,-4.02,-4.0976,-4.1893,-4.3105,0.0,0.0,0.0,0.0,0.0,0.0,0.0,0.0,0.0,0.0,0.0,0.0,0.0,0.0,0.0,0.0,0.0,0.0,0.0,0.0,0.0,0.0,0.0,0.0,0.0,0.0,0.0,0.0,0.0,0.0,0.0,0.0,0.0,0.0,0.0,0.0,0.0,0.0,0.0,-3.6337,-3.4679,-3.2027,-3.1541,-3.1241,0.0,0.0,0.0,0.0,0.0,0.0,0.0,0.0,0.0,-3.3596,-3.3922,-3.4625,-3.573,-3.6307,-3.7287,-3.8693,-3.8944,-3.9346,-3.9898,-4.0149,-4.0249,-4.0249,-4.0249,-3.9626,-3.8492,-3.7599,-3.7016,-3.6649,0.0,0.0,0.0,0.0,-3.6079,-3.6935,0.0,0.0,0.0,0.0,0.0,0.0,0.0,0.0,0.0,0.0,0.0,0.0,0.0,0.0,0.0,0.0,0.0,0.0,0.0,0.0,0.0,0.0,0.0,0.0,0.0,0.0,0.0,0.0,-4.0896,-4.0111,-3.9116,-3.8949,-3.908,-3.9409,-3.9414,-4.0112,-4.1247,-4.2509,-4.3331,0.0,0.0,0.0,0.0,0.0,0.0,0.0,0.0,0.0,0.0,0.0,0.0,0.0,0.0,0.0,0.0,0.0,0.0,0.0,0.0,0.0,0.0,0.0,0.0,0.0,0.0,0.0,0.0,0.0,0.0,0.0,0.0,0.0,0.0,0.0,0.0,0.0,0.0,-3.5418,-3.3579,-3.0481,-3.0273,-3.0269,0.0,0.0,0.0,0.0,0.0,0.0,-3.3597,-3.2779,-3.3256,-3.5437,-3.5956,-3.6835,-3.8241,-3.8517,-3.9546,-4.1354,-4.1078,-4.1304,-4.1957,-4.1831,-4.1756,-4.1756,-4.1605,-4.1003,-4.0052,-3.8717,-3.7508,-3.6311,-3.6155,-3.626,-3.6377,-3.5149,-3.5538,-3.6614,0.0,0.0,0.0,0.0,0.0,0.0,0.0,0.0,0.0,0.0,0.0,0.0,0.0,0.0,0.0,0.0,0.0,0.0,0.0,0.0,0.0,0.0,0.0,0.0,0.0,0.0,0.0,-4.0821,-3.8841,-3.8023,-3.8411,-3.7804,-3.8182,-3.9379,-3.9566,-3.9589,-3.9715,-4.2086,-4.2718,-4.2302,0.0,0.0,0.0,0.0,0.0,0.0,0.0,0.0,0.0,0.0,0.0,0.0,0.0,0.0,0.0,0.0,0.0,0.0,0.0,0.0,0.0,0.0,0.0,0.0,0.0,0.0,0.0,0.0,0.0,0.0,0.0,0.0,0.0,0.0,0.0,0.0,0.0,0.0,0.0,-3.0673,-3.0074,0.0,0.0,0.0,0.0,-3.1683,-3.085,-3.1179,-3.3244,-3.3267,-3.4679,-3.769,-3.7864,-3.8919,-4.1103,-4.0651,-4.148,-4.3614,-4.2559,-4.2635,-4.3664,-4.3137,-4.2886,-4.2861,-4.2333,-4.1781,-4.1128,-3.9548,-3.7862,-3.6326,-3.5798,-3.5244,-3.4855,-3.47,-3.5027,-3.5621,0.0,0.0,0.0,0.0,0.0,0.0,0.0,0.0,0.0,0.0,0.0,0.0,0.0,0.0,0.0,0.0,0.0,0.0,0.0,0.0,0.0,0.0,0.0,0.0,0.0,0.0,-4.0889,-3.9358,-3.8111,-3.7576,-3.7745,-3.805,-3.8427,-3.8886,-3.9531,-3.9974,-4.0501,-4.2396,-4.332,-4.364,-4.4591,-4.5128,0.0,0.0,0.0,0.0,0.0,0.0,0.0,0.0,0.0,0.0,0.0,0.0,0.0,0.0,0.0,0.0,0.0,0.0,0.0,0.0,0.0,0.0,0.0,0.0,0.0,0.0,0.0,0.0,0.0,0.0,0.0,0.0,0.0,0.0,0.0,0.0,0.0,-2.9652,-3.0187,0.0,-2.9496,-3.0119,-3.133,-3.3195,-3.281,-3.3935,-3.7216,-3.6946,-3.7758,-4.0019,-4.0149,-4.0877,-4.2384,-4.2208,-4.2861,-4.4317,-4.394,-4.394,-4.4317,-4.3765,-4.3514,-4.3489,-4.2911,-4.2384,-4.1915,-4.2213,-4.0568,-3.8013,-3.8247,-3.8028,-3.7625,-3.8389,-3.855,-3.8497,0.0,0.0,0.0,0.0,0.0,0.0,0.0,0.0,0.0,0.0,0.0,0.0,0.0,0.0,0.0,0.0,0.0,0.0,0.0,0.0,0.0,0.0,0.0,0.0,0.0,-4.149,-3.9987,-3.8265,-3.748,-3.7272,-3.7499,-3.8059,-3.859,-3.903,-3.9646,-4.0458,-4.1455,-4.2789,-4.3595,-4.4103,-4.4438,-4.4722,-4.4846,0.0,0.0,0.0,0.0,0.0,0.0,0.0,0.0,0.0,0.0,0.0,0.0,0.0,0.0,0.0,0.0,0.0,0.0,0.0,0.0,0.0,0.0,0.0,0.0,0.0,0.0,0.0,0.0,0.0,0.0,0.0,0.0,0.0,0.0,-3.2959,-3.1487,-2.9058,-3.0049,-3.0764,-3.0499,-3.1391,-3.302,-3.5443,-3.5092,-3.6171,-3.9308,-3.9177,-3.9746,-4.1605,-4.1982,-4.261,-4.3514,-4.3539,-4.4091,-4.5196,-4.4794,-4.4719,-4.4895,-4.4342,-4.3966,-4.379,-4.4153,-4.3968,-4.365,-4.497,-4.4067,-4.1716,-4.1576,-4.1207,-4.0761,-4.1498,-4.1474,-4.1091,0.0,0.0,0.0,0.0,0.0,0.0,0.0,0.0,0.0,0.0,0.0,0.0,0.0,0.0,0.0,0.0,0.0,0.0,0.0,0.0,0.0,0.0,0.0,0.0,-4.1358,-4.1053,-3.9847,-3.7606,-3.6949,-3.694,-3.7572,-3.7725,-3.8547,-3.9745,-4.0009,-4.0842,-4.2195,-4.3004,-4.3327,-4.341,-4.4236,-4.4113,-4.3538,0.0,0.0,0.0,0.0,0.0,0.0,0.0,0.0,0.0,0.0,0.0,0.0,0.0,0.0,0.0,0.0,0.0,0.0,0.0,0.0,0.0,0.0,0.0,0.0,0.0,0.0,0.0,0.0,0.0,0.0,0.0,0.0,0.0,-3.4072,-3.1944,-3.0219,-2.8969,-2.9667,-3.1238,-3.3793,-3.3961,-3.526,-3.8176,-3.7515,-3.7678,-3.9205,-3.9842,-4.0828,-4.2233,-4.3263,-4.4091,-4.4618,-4.4644,-4.5196,-4.6276,-4.5196,-4.497,-4.5497,-4.492,-4.4367,-4.3979,-4.6021,-4.6584,-4.6246,-4.7773,-4.8069,-4.7244,-4.5483,-4.4399,-4.3965,-4.3965,-4.3547,-4.3174,0.0,0.0,0.0,0.0,0.0,0.0,0.0,0.0,0.0,0.0,0.0,0.0,0.0,0.0,0.0,0.0,0.0,0.0,0.0,0.0,0.0,0.0,0.0,0.0,-4.0963,-4.0022,-3.8852,-3.7667,-3.6979,-3.6751,-3.6987,-3.7531,-3.8264,-3.9168,-3.9821,-4.0639,-4.1493,-4.2247,-4.2888,-4.3452,-4.426,-4.4451,-4.4359,0.0,0.0,0.0,0.0,0.0,0.0,0.0,0.0,0.0,0.0,0.0,0.0,0.0,0.0,0.0,0.0,0.0,0.0,0.0,0.0,0.0,0.0,0.0,0.0,0.0,0.0,0.0,0.0,0.0,0.0,0.0,-3.7402,-3.5647,-3.2906,-3.2083,-3.16,-3.0979,-3.1892,-3.3311,-3.529,-3.587,-3.7019,-3.9355,-3.9651,-4.0559,-4.2386,-4.3044,-4.3457,-4.394,-4.4242,-4.4468,-4.4618,-4.5045,-4.5397,-4.5723,-4.5799,-4.5924,-4.6075,-4.5497,-4.5704,-4.6647,-4.681,-4.7347,-4.8404,-5.0332,-5.0938,-5.0595,-4.8709,-4.7595,-4.7148,-4.815,-4.7724,-4.6785,0.0,0.0,0.0,0.0,0.0,0.0,0.0,0.0,0.0,0.0,0.0,0.0,0.0,0.0,0.0,0.0,0.0,0.0,0.0,0.0,0.0,0.0,0.0,-4.1345,-4.0428,-3.9418,-3.8527,-3.7689,-3.7042,-3.6864,-3.7163,-3.7936,-3.8671,-3.942,-3.9901,-4.0493,-4.1238,-4.2261,-4.3166,-4.3926,-4.4932,-4.502,-4.4643,-4.5923,-4.6236,-4.607,-4.6941,-4.7263,-4.7226,-4.7128,0.0,0.0,0.0,0.0,0.0,0.0,0.0,0.0,0.0,0.0,0.0,0.0,0.0,0.0,0.0,0.0,0.0,0.0,0.0,0.0,0.0,0.0,0.0,0.0,-3.7609,-3.6463,-3.434,-3.3559,-3.3249,-3.3269,-3.409,-3.553,-3.7494,-3.8113,-3.9309,-4.1387,-4.1842,-4.2602,-4.4116,-4.4669,-4.4869,-4.4644,-4.507,-4.5095,-4.4618,-4.5196,-4.5497,-4.5497,-4.5824,-4.6075,-4.6301,-4.5974,-4.6473,0.0,-4.861,-4.9611,-5.0954,-5.3239,-5.4023,0.0,0.0,0.0,0.0,0.0,-5.0391,-4.9374,0.0,0.0,0.0,0.0,0.0,0.0,0.0,0.0,0.0,0.0,0.0,0.0,0.0,0.0,0.0,0.0,0.0,0.0,0.0,0.0,0.0,-4.0018,-4.115,-4.1202,-3.9851,-3.9244,-3.8488,-3.7603,-3.6975,-3.7103,-3.782,-3.8516,-3.9278,-4.0138,-4.0154,-4.0561,-4.1256,-4.2733,-4.3768,-4.4502,-4.5908,-4.5725,-4.4788,-4.6023,-4.6046,-4.5569,-4.6908,-4.7306,-4.7234,-4.7204,0.0,0.0,0.0,0.0,0.0,0.0,0.0,0.0,0.0,0.0,0.0,0.0,0.0,0.0,0.0,0.0,0.0,0.0,0.0,0.0,0.0,0.0,0.0,0.0,-3.8395,-3.8313,-3.7067,-3.5829,-3.516,-3.555,-3.6365,-3.7725,-3.9801,-4.0488,-4.1662,-4.3651,-4.3865,-4.4141,-4.4694,0.0,0.0,0.0,0.0,-4.5698,-4.4644,-4.5121,-4.5397,-4.5397,-4.5447,-4.5773,-4.6301,-4.6421,-4.7067,-4.8239,-5.0846,-5.2622,-5.3704,-5.6258,-5.6885,-5.6256,-5.494,-5.4491,-5.4371,-5.3025,-5.2067,0.0,0.0,0.0,0.0,0.0,0.0,0.0,0.0,0.0,0.0,0.0,0.0,0.0,0.0,0.0,0.0,0.0,0.0,0.0,0.0,0.0,-4.0906,-4.0696,-4.0597,-4.0089,-3.9177,-3.9071,-3.8311,-3.6932,-3.6865,-3.7171,-3.7854,-3.8048,-3.8807,-4.0138,-4.0528,-4.0803,-4.112,-4.3096,-4.4028,-4.4353,-4.6372,-4.672,-4.6122,-4.691,-4.6721,-4.6104,-4.6884,-4.6757,-4.6323,-4.7262,-4.7694,-4.7955,-4.8796,-4.9213,0.0,0.0,0.0,0.0,0.0,0.0,0.0,0.0,0.0,0.0,0.0,0.0,0.0,0.0,0.0,0.0,0.0,0.0,0.0,-3.8043,-3.811,-3.8263,-3.844,-3.8209,-3.7868,-3.7192,-3.8052,-3.9292,-4.0913,-4.1916,-4.2849,-4.3765,-4.4217,-4.4719,-4.5296,-4.5849,-4.61,-4.5999,-4.5773,-4.5321,-4.4644,-4.4744,-4.4794,-4.4794,0.0,0.0,-4.6301,-4.7534,-4.9178,-5.0983,-5.2763,-5.4546,-5.6452,-5.7467,-5.7842,-5.7603,-5.6316,-5.6107,-5.6376,-5.5089,-5.3832,-5.2606,0.0,0.0,0.0,0.0,0.0,0.0,0.0,0.0,0.0,0.0,0.0,0.0,0.0,0.0,0.0,0.0,0.0,0.0,0.0,-4.0623,-4.0446,-3.9952,-3.9682,-3.9396,-3.9026,-3.8274,-3.7535,-3.6808,-3.6412,-3.6774,-3.7933,-3.8174,-3.9088,-4.0516,-4.1091,-4.1359,-4.1484,-4.3694,-4.4589,-4.4779,-4.7214,-4.7844,-4.742,-4.7715,-4.7575,-4.7296,-4.7602,-4.7571,-4.7427,-4.762,-4.8084,-4.8625,-4.8862,-4.9305,-4.9792,0.0,0.0,0.0,0.0,0.0,0.0,0.0,0.0,0.0,0.0,0.0,0.0,0.0,0.0,-4.237,-4.0845,0.0,-3.7369,-3.7568,-3.7851,-3.8288,-3.9257,-3.9539,-3.9398,-3.8718,-3.9047,-3.9833,-4.0796,-4.1932,-4.2911,-4.374,-4.4317,-4.4995,-4.5849,-4.615,-4.6175,-4.5899,-4.5623,-4.5221,-4.4644,-4.4618,-4.4769,-4.5045,-4.5347,-4.6222,-4.7442,-4.8498,-5.0357,-5.2905,-5.4328,-5.5938,-5.7663,-5.8351,-5.862,-5.856,-5.7902,-5.7423,-5.7004,-5.6376,-5.5299,-5.4042,0.0,0.0,0.0,0.0,0.0,0.0,0.0,0.0,0.0,0.0,0.0,0.0,0.0,0.0,0.0,0.0,0.0,0.0,0.0,-4.0114,-3.9986,-3.9026,-3.8992,-3.8942,-3.8805,-3.7581,-3.6878,-3.6732,-3.6185,-3.6627,-3.7968,-3.8451,-3.9434,-4.0866,-4.144,-4.1839,-4.222,-4.4443,-4.5423,-4.5658,-4.7866,-4.8569,-4.8266,-4.8126,-4.8014,-4.7942,-4.794,-4.8088,-4.8236,-4.782,-4.8419,-4.9264,-4.8719,-4.9327,-5.0259,-5.0302,-5.0511,0.0,0.0,0.0,0.0,0.0,0.0,0.0,0.0,-4.6578,-4.5166,-4.4983,-4.332,-4.1563,-4.0452,-3.8778,-3.7543,-3.7818,-3.8287,-3.8884,-3.9944,-4.0452,-4.0518,-4.0055,-4.021,-4.0517,-4.0977,-4.2234,-4.3336,-4.4147,-4.494,-4.5668,-4.6375,-4.6628,-4.6382,-4.5497,-4.5497,-4.5221,-4.4644,-4.4618,-4.497,-4.5648,-4.5978,-4.7107,-4.8875,-5.0024,-5.1873,-5.4396,-5.591,-5.7261,-5.8351,-5.889,-5.9099,-5.9099,-5.9099,-5.8441,-5.7483,-5.7334,-5.6555,-5.5448,0.0,0.0,0.0,0.0,0.0,0.0,0.0,0.0,0.0,0.0,0.0,0.0,0.0,0.0,0.0,0.0,0.0,0.0,-4.0492,-3.9896,-3.9396,-3.9026,-3.8992,-3.8652,-3.8048,-3.765,-3.7091,-3.6447,-3.6827,-3.7421,-3.8264,-3.83,-3.9135,-4.0672,-4.1214,-4.202,-4.3202,-4.5406,-4.6544,-4.6855,-4.786,-4.8253,-4.8136,-4.7411,-4.6911,-4.6628,-4.6617,-4.6387,-4.6307,-4.7219,-4.815,-4.8935,-4.9329,-5.0086,-5.0816,-5.0932,-5.0952,-5.0875,-5.0875,-5.0538,-5.0239,-5.0553,-4.9288,-4.7975,0.0,-4.718,-4.5629,-4.4256,-4.2978,-4.1876,-4.0741,-3.962,-3.9074,-4.0103,-4.0349,-4.0595,-4.1206,-4.0968,-4.0822,-4.124,-4.2249,-4.2903,-4.2985,-4.4566,-4.5758,-4.5792,-4.7425,-4.7893,-4.675,-4.7634,-4.7393,-4.5497,-4.5497,-4.5221,-4.4644,-4.4618,-4.5171,-4.6225,-4.7665,-4.9007,-5.0181,-5.2994,-5.4816,-5.5834,-5.7833,-5.8871,-5.9009,-5.9069,-5.9099,-5.9099,-5.9099,-5.9009,-5.88,-5.8231,-5.7513,-5.6705,0.0,0.0,0.0,0.0,0.0,0.0,0.0,0.0,0.0,0.0,0.0,0.0,0.0,0.0,0.0,0.0,0.0,0.0,-3.9915,-3.9236,-3.8778,-3.8774,-3.8372,-3.8128,-3.8149,-3.7607,-3.7173,-3.6887,-3.7106,-3.7575,-3.8343,-3.8643,-3.9583,-4.1089,-4.1842,-4.277,-4.3796,-4.5903,-4.6873,-4.7116,-4.8115,-4.841,-4.8087,-4.6996,-4.6506,-4.6443,-4.7186,-4.7512,0.0,0.0,-4.9401,-4.9963,-5.0259,-5.0606,-5.0952,-5.1068,-5.1029,-5.0835,-5.0541,-5.0418,-5.0312,-4.9877,-4.8773,-4.7829,-4.7996,-4.6111,-4.4367,-4.4548,-4.2818,-4.1259,-4.1208,-4.0266,-3.9664,-4.0161,-4.0548,-4.0891,-4.1508,-4.1651,-4.1852,-4.2478,-4.3343,-4.3624,-4.2896,-4.3849,-4.4952,-4.6027,-4.746,-4.7947,-4.7238,-4.7968,-4.76,-4.5615,-4.5497,-4.5372,-4.5121,-4.5447,-4.5999,-4.6803,-4.8692,-5.0361,-5.1611,-5.429,-5.631,-5.7753,-5.8733,-5.9099,-5.9099,-5.9099,-5.9099,-5.9099,-5.9099,-5.9099,-5.9069,-5.88,-5.8261,-5.7633,0.0,0.0,0.0,0.0,0.0,0.0,0.0,0.0,0.0,0.0,0.0,0.0,0.0,0.0,0.0,0.0,0.0,0.0,0.0,-3.8832,-3.8494,-3.8516,-3.8001,-3.7877,-3.8266,-3.7713,-3.7362,-3.7358,-3.7542,-3.7891,-3.8409,-3.886,-3.9798,-4.1156,-4.2143,-4.3118,-4.404,-4.5988,-4.6877,-4.705,-4.7934,-4.8106,-4.7696,-4.6275,-4.5913,-4.6291,-4.7315,-4.792,0.0,0.0,-4.9952,-5.0433,-5.0587,-5.0818,-5.0991,-5.1106,-5.0952,-5.064,-5.0225,-5.0043,-4.9777,-4.8974,-4.8119,-4.7312,-4.7044,-4.5263,-4.3878,-4.4637,-4.3217,-4.2,-4.2476,-4.2012,-4.1555,-4.1279,-4.1567,-4.1879,-4.2087,-4.2407,-4.2802,-4.323,-4.3898,-4.4044,-4.3352,-4.3963,-4.5119,-4.6812,-4.8252,-4.8764,-4.7878,-4.8652,-4.8037,-4.5615,-4.5773,-4.5874,-4.5723,-4.6401,-4.7029,-4.7581,-5.006,-5.1846,-5.3148,-5.559,-5.7584,-5.9099,-5.9099,-5.9099,-5.9099,-5.9099,-5.9099,-5.9099,-5.9099,-5.9099,-5.9099,-5.9099,-5.88,-5.8381,0.0,0.0,0.0,0.0,0.0,0.0,0.0,0.0,0.0,0.0,0.0,0.0,0.0,0.0,0.0,0.0,0.0,0.0,0.0,-3.9014,-3.8767,-3.8322,-3.8294,-3.8272,-3.8297,-3.8047,-3.7903,-3.7864,-3.8405,-3.8664,-3.87,-3.8946,-3.9537,-4.0373,-4.159,-4.2752,-4.3943,-4.5621,-4.6549,-4.6897,-4.6935,-4.6972,-4.6737,-4.503,-4.4991,-4.586,-4.6228,0.0,0.0,0.0,-4.8933,-4.9702,-4.9949,-5.0547,-5.1183,-5.1183,-5.0779,-5.0276,-5.0139,-4.9134,-4.8088,-4.8049,-4.7329,-4.6389,-4.5479,-4.5296,-4.508,-4.4193,-4.4532,-4.4941,-4.4973,-4.5585,-4.5746,-4.4781,-4.4662,-4.4389,-4.3409,-4.325,-4.328,-4.3329,-4.3898,-4.4586,-4.5161,-4.6446,-4.776,-4.9104,-5.0986,-5.1128,-4.8838,-4.9968,-4.9013,-4.5615,-4.6527,-4.6828,-4.6301,-4.733,-4.8159,-4.8838,-5.191,-5.3751,-5.4477,-5.7523,-5.9069,-5.9099,-5.9099,-5.9099,-5.9099,-5.9099,-5.9099,-5.9099,-5.9099,-5.9099,-5.9099,-5.9099,-5.9099,-5.8979,0.0,0.0,0.0,0.0,0.0,0.0,0.0,0.0,0.0,0.0,0.0,0.0,0.0,0.0,0.0,0.0,0.0,0.0,0.0,-3.857,-3.8187,-3.8043,-3.8012,-3.8444,-3.9323,-3.9287,-3.9507,-4.002,-4.0215,-4.0419,-4.0634,-4.0708,-4.129,-4.2353,-4.3551,-4.4616,-4.5593,-4.7624,-4.8568,-4.8641,-4.8161,-4.7987,-4.7773,-4.6026,-4.556,-4.594,0.0,0.0,0.0,-4.8798,-4.9471,-4.974,-4.9854,-5.0066,-5.0106,-4.9202,-4.8568,-4.7979,-4.733,-4.6539,-4.5839,-4.5633,-4.5374,-4.5096,-4.4856,-4.439,-4.4023,-4.4168,-4.3557,-4.3097,-4.3512,-4.415,-4.4351,-4.3417,-4.4489,-4.508,-4.4118,-4.4377,-4.4646,-4.4646,-4.5244,-4.5903,-4.6561,-4.704,-4.8027,-4.9793,-5.0405,-5.0341,-4.947,-4.9301,-4.8379,-4.6577,-4.6928,-4.7205,-4.738,-4.8109,-4.8586,-4.8888,-5.2339,-5.5247,-5.7581,-5.908,-5.9518,-5.9129,-5.9578,-5.9518,-5.9099,-5.9099,-5.9099,-5.9099,-5.9099,-5.9099,-5.9099,-5.9099,-5.9099,-5.9069,0.0,0.0,0.0,0.0,0.0,0.0,0.0,0.0,0.0,0.0,0.0,0.0,0.0,0.0,0.0,0.0,0.0,0.0,0.0,0.0,-3.8187,-3.8187,-3.8187,-3.8756,-4.0037,-3.9963,-4.0409,-4.1483,-4.1014,-4.1162,-4.1751,-4.1586,-4.2041,-4.3102,-4.4288,-4.5299,-4.6232,-4.7969,-4.874,-4.8677,-4.7889,-4.7412,-4.6962,-4.5202,-4.4944,0.0,0.0,0.0,0.0,-4.8837,-4.9375,-4.9335,-4.9373,-4.9258,-4.8874,-4.7722,-4.6954,-4.6342,-4.5463,-4.4761,-4.4214,-4.4025,-4.3846,-4.3649,-4.3749,-4.3518,-4.3531,-4.4164,-4.3713,-4.335,-4.3986,-4.45,-4.4429,-4.3178,-4.4181,-4.4936,-4.4358,-4.4466,-4.4945,-4.5903,-4.5925,-4.6255,-4.714,-4.6953,-4.7809,-5.003,-5.034,-5.0058,-4.9442,-4.9066,-4.821,-4.7129,-4.7506,-4.7883,-4.8209,-4.8786,-4.9672,-5.0871,-5.3837,-5.6737,-5.9458,-5.9877,-5.9847,-5.9488,-5.9907,-5.9727,-5.9099,-5.9099,-5.9099,-5.9099,-5.9099,-5.9099,-5.9099,-5.9099,-5.9099,-5.9099,0.0,0.0,0.0,0.0,0.0,0.0,0.0,0.0,0.0,0.0,0.0,0.0,0.0,0.0,0.0,0.0,0.0,0.0,0.0,0.0,0.0,-3.8689,-3.8689,-3.9224,-4.0371,-4.0067,-4.0625,-4.2055,-4.0928,-4.0969,-4.2099,-4.1601,-4.1813,-4.2654,-4.3803,-4.4812,-4.5773,-4.6673,-4.7056,-4.7031,-4.6172,-4.5391,-4.4527,-4.2796,0.0,0.0,0.0,0.0,-4.6531,-4.8087,-4.8489,-4.8369,-4.8428,-4.7989,-4.7337,-4.6531,-4.5879,-4.5213,-4.4383,-4.3594,-4.3009,-4.3044,-4.2599,-4.2151,-4.2272,-4.2881,-4.3605,-4.4265,-4.487,-4.5544,-4.6116,-4.6339,-4.587,-4.4108,-4.4107,-4.4323,-4.4349,-4.3928,-4.4445,-4.6954,-4.6164,-4.5809,-4.6824,-4.6587,-4.7377,-4.9931,0.0,-5.0162,-4.8813,-4.9,-4.8599,-4.7154,-4.8209,-4.8786,-4.8812,-4.9492,-5.1445,-5.456,-5.6107,-5.7961,-6.0146,-6.0176,-6.0176,-6.0146,-6.0176,-5.9787,-5.9159,-5.9159,-5.9129,-5.9099,-5.9099,-5.9099,-5.9099,-5.9099,-5.9099,-5.9207,0.0,0.0,0.0,0.0,0.0,0.0,0.0,0.0,0.0,0.0,0.0,0.0,0.0,0.0,0.0,0.0,0.0,0.0,0.0,0.0,0.0,0.0,0.0,0.0,0.0,0.0,0.0,0.0,0.0,-4.1745,-4.2103,-4.2181,-4.2462,-4.3017,-4.388,-4.4453,-4.4757,-4.5726,-4.6154,-4.6094,0.0,-4.4883,-4.4566,0.0,0.0,0.0,0.0,0.0,-4.6172,-4.7336,-4.7006,-4.5973,-4.5159,-4.4266,-4.3384,-4.2598,-4.1949,-4.1282,-4.0389,-3.9754,-3.9446,-3.9966,-3.9952,-4.0257,-4.1871,-4.2783,-4.3469,-4.4062,-4.4296,-4.4307,-4.3845,-4.4838,-4.5234,-4.3859,-4.562,-4.6768,-4.5883,-4.6501,-4.6901,-4.6508,-4.7441,-4.7612,-4.6488,-4.7834,-4.8714,-4.8545,-4.8075,-4.8023,-4.8599,-4.8014,-4.7648,-4.7707,-4.841,-4.8962,-4.9389,-5.1278,-5.3739,-5.6849,-5.7772,-5.9071,-6.0864,-6.1343,-6.1313,-6.0864,-6.1373,-6.0924,-5.9847,-5.9847,-5.9548,-5.9099,-5.9099,-5.9099,-5.9099,-5.9099,-5.9652,-6.0328,0.0,0.0,0.0,0.0,0.0,0.0,0.0,0.0,0.0,0.0,0.0,0.0,0.0,0.0,0.0,0.0,0.0,0.0,0.0,0.0,0.0,0.0,0.0,0.0,0.0,0.0,0.0,0.0,0.0,0.0,0.0,-4.2047,-4.2091,-4.2684,-4.3124,-4.3679,-4.4234,-4.4816,0.0,0.0,0.0,0.0,0.0,0.0,0.0,0.0,0.0,-4.4717,-4.5394,-4.5457,-4.4874,-4.409,-4.3734,-4.298,-4.2023,-4.1221,-4.0707,-4.013,-3.896,-3.8526,-3.8526,-3.9228,-3.9627,-4.0272,-4.1684,-4.2847,-4.3845,-4.444,-4.4492,-4.4443,-4.4227,-4.5103,-4.5477,-4.437,-4.5668,-4.6918,-4.7333,-4.7443,-4.7496,-4.7779,-4.7985,-4.7699,-4.681,-4.7157,-4.741,-4.7166,-4.7344,-4.76,-4.7995,-4.77,-4.7606,-4.7908,-4.8711,-4.9773,-5.1049,-5.3793,-5.6129,-5.8205,-5.9596,-6.0668,-6.1553,-6.2241,-6.2181,-6.1553,0.0,-6.1343,-6.0086,-6.0086,-5.9697,-5.9099,-5.9099,-5.9099,-5.9099,-5.9099,-5.9864,-6.0918,0.0,0.0,0.0,0.0,0.0,0.0,0.0,0.0,0.0,0.0,0.0,0.0,0.0,0.0,0.0,0.0,0.0,0.0,0.0,0.0,0.0,0.0,0.0,0.0,0.0,0.0,0.0,0.0,0.0,0.0,0.0,0.0,0.0,0.0,0.0,0.0,0.0,0.0,0.0,0.0,0.0,0.0,0.0,0.0,0.0,0.0,-4.3423,-4.4035,-4.4281,-4.343,-4.2947,-4.2799,-4.3127,-4.2683,-4.1917,-4.1016,-4.0687,-4.0262,-3.8917,-3.8711,-3.9133,-3.9787,-4.055,-4.1292,-4.2043,-4.3376,-4.4551,-4.5096,-4.5256,-4.5388,-4.57,-4.6074,-4.6152,-4.5511,-4.5502,-4.6319,-4.876,-4.7714,-4.7465,-4.9481,-4.82,-4.719,-4.7381,-4.6052,-4.5582,-4.6351,-4.7755,-4.8311,-4.744,-4.7784,-4.8008,-4.8234,-4.9444,-5.1202,-5.3342,-5.6507,-5.8436,-5.9364,-6.149,-6.248,-6.251,-6.2989,-6.2899,-6.2361,0.0,0.0,-6.0356,-6.0356,-5.9967,-5.9368,-5.9368,-5.9308,-5.9219,-5.9435,-6.0241,-6.1294,0.0,0.0,0.0,0.0,0.0,0.0,0.0,0.0,0.0,0.0,-4.0515,-4.0024,0.0,0.0,0.0,0.0,0.0,0.0,0.0,0.0,0.0,0.0,0.0,0.0,0.0,0.0,0.0,0.0,-4.0201,0.0,0.0,0.0,0.0,0.0,0.0,0.0,0.0,0.0,0.0,0.0,0.0,0.0,0.0,0.0,0.0,0.0,-4.4116,-4.3879,-4.3195,-4.3674,-4.349,-4.2779,-4.1285,-4.0801,-4.0603,-3.9361,-3.9029,-3.8873,-3.8219,-3.835,-3.9098,-4.0443,-4.1268,-4.2264,-4.4097,-4.5256,-4.5884,-4.5804,-4.6283,-4.6359,-4.5113,-4.5566,-4.6472,-4.7427,-4.767,-4.8429,-5.0306,-4.9671,-4.8828,-4.8256,-4.819,-4.7712,-4.6577,-4.7689,-4.8092,-4.7075,-4.8325,-4.8603,-4.7288,-4.7629,-4.8535,-4.9941,-5.151,-5.3494,-5.5676,-5.8633,-6.085,-6.2344,-6.38,-6.4515,-6.4515,-6.4036,-6.3767,-6.3647,-6.3139,0.0,-6.1762,-6.1762,-6.1373,-6.0775,-6.0775,-6.0416,-6.0016,-6.1111,-6.2027,-6.2682,0.0,0.0,0.0,0.0,0.0,0.0,0.0,-4.0519,-4.124,-4.3272,-4.3243,-4.2996,-4.299,-4.2216,-4.1882,0.0,0.0,0.0,0.0,0.0,0.0,0.0,0.0,0.0,0.0,-4.0407,-4.0579,-3.9713,0.0,-4.0476,-4.045,-4.0184,-4.0014,-4.0027,-4.0027,0.0,0.0,0.0,0.0,0.0,0.0,0.0,0.0,0.0,0.0,0.0,0.0,-4.4628,-4.3826,-4.4226,-4.398,-4.3235,-4.1899,-4.1372,-4.116,-4.0929,-4.0659,-4.0373,-4.0189,-4.0622,-4.1395,-4.2399,-4.3756,-4.5114,-4.5915,-4.6757,-4.7199,-4.6652,-4.6836,-4.6874,-4.6104,-4.6699,-4.7527,-4.8164,-4.8342,-4.8993,-5.0821,-5.0112,-4.931,-4.8752,-4.9524,-4.9667,-4.8506,-5.002,-5.0739,-5.0061,-5.0622,-5.0061,-4.7654,-4.8058,-4.9343,-5.1717,-5.3334,-5.5634,-5.8503,-6.0848,-6.2647,-6.4096,-6.5084,-6.5353,-6.5024,-6.5054,-6.4665,-6.3977,-6.3677,0.0,-6.2091,-6.2091,-6.1702,-6.1104,-6.1104,-6.0894,-6.0706,-6.1334,-6.2374,-6.3548,0.0,0.0,0.0,0.0,0.0,0.0,0.0,-4.1335,-4.232,-4.5097,-4.5991,-4.6233,-4.5809,-4.4306,-4.3461,0.0,0.0,0.0,0.0,0.0,0.0,0.0,0.0,0.0,0.0,0.0,0.0,-4.0718,-4.0828,0.0,0.0,0.0,0.0,0.0,-3.98,-3.9764,-3.9725,0.0,0.0,0.0,0.0,-4.1033,0.0,0.0,0.0,0.0,0.0,-4.5477,-4.4963,-4.4961,-4.463,-4.4124,-4.356,-4.2897,-4.2377,-4.2847,-4.2687,-4.238,-4.2586,-4.3254,-4.4014,-4.4994,-4.6615,-4.7968,-4.7709,-4.8124,-4.8311,-4.7313,-4.7239,-4.7315,-4.7131,-4.7692,-4.8265,-4.8591,-4.854,-4.9198,-5.1295,-5.0558,-4.9902,-5.0187,-5.1263,-5.1768,-5.0843,-5.2424,-5.3438,-5.3232,-5.337,-5.2144,-4.8982,-4.9418,-5.0893,-5.3514,-5.5484,-5.7902,-6.1033,-6.2854,-6.4216,-6.5233,-6.5892,-6.5951,-6.5473,-6.5832,-6.5353,-6.4216,-6.4066,0.0,0.0,-6.245,-6.2121,-6.1553,-6.1672,-6.1687,-6.1519,-6.1971,-6.31,-6.4417,0.0,0.0,0.0,0.0,0.0,0.0,0.0,-4.2182,-4.3611,-4.7425,-4.8002,-4.8324,-4.9072,-4.7644,-4.6104,0.0,0.0,0.0,0.0,0.0,0.0,0.0,0.0,0.0,0.0,0.0,0.0,-4.1946,-4.1478,0.0,0.0,0.0,0.0,0.0,0.0,-4.03,-4.0093,-4.0835,0.0,0.0,0.0,0.0,0.0,0.0,0.0,0.0,0.0,-4.5842,-4.577,-4.5809,-4.5768,-4.569,-4.5622,-4.4818,-4.3768,-4.3176,-4.3095,-4.3331,-4.4044,-4.4633,-4.5681,-4.7911,-4.8961,-4.9404,-4.9404,-4.9435,-4.9045,-4.7421,-4.7679,-4.7976,-4.7241,-4.7166,-4.7716,-4.9182,-4.8934,-4.9625,-5.2605,-5.2313,-5.178,-5.1958,-5.2779,-5.3162,-5.2615,-5.4852,-5.5964,-5.5086,-5.564,-5.4746,-5.1759,-5.226,-5.3493,-5.5313,-5.8507,-6.0912,-6.2361,-6.463,-6.5802,-6.5922,-6.658,-6.6879,-6.6789,-6.6251,-6.5622,-6.4904,-6.4276,0.0,0.0,-6.3588,-6.3468,-6.2959,-6.3528,-6.3365,-6.3052,-6.4902,-6.5706,-6.5989,0.0,0.0,0.0,0.0,0.0,0.0,-4.3497,-4.3316,-4.449,-4.8561,-4.9094,-4.9378,-5.0204,-4.9735,-4.8489,-4.6361,0.0,0.0,0.0,0.0,0.0,0.0,0.0,0.0,0.0,0.0,-4.2746,-4.2108,-4.2296,0.0,0.0,0.0,0.0,0.0,0.0,-4.0,-3.9553,-4.0373,0.0,0.0,0.0,0.0,0.0,0.0,0.0,0.0,0.0,0.0,-4.6612,-4.6616,-4.6324,-4.5917,-4.5912,-4.592,-4.5878,-4.5551,-4.5355,-4.5329,-4.6103,-4.7212,-4.8607,-5.0524,-5.137,-5.1916,-5.2358,-5.1731,-5.0708,-4.9554,-4.9187,-4.9007,-4.8636,-4.8196,-4.808,-4.8774,-4.8733,-4.9005,-4.9959,-5.0074,-5.0663,-5.2386,-5.3923,-5.556,-5.7416,-5.942,-6.0529,-6.0499,-5.9578,-5.8758,-5.8367,-5.6239,-5.6115,-5.8578,-6.0022,-6.1953,-6.4533,-6.5499,-6.6191,-6.661,-6.6879,-6.6999,-6.6969,-6.6729,-6.6251,-6.5592,-6.4904,0.0,0.0,-6.3677,-6.3767,-6.4186,-6.3647,-6.4023,-6.4894,-6.5383,-6.6241,-6.7306,0.0,0.0,0.0,0.0,0.0,-4.2506,-4.4085,-4.4083,-4.5148,-4.8744,-4.9423,-4.9893,-5.0721,-5.0578,-4.9738,-4.8012,-4.614,0.0,0.0,0.0,0.0,0.0,0.0,0.0,0.0,0.0,-4.3208,-4.2671,-4.2971,-4.3178,0.0,0.0,-4.1399,-4.1123,0.0,0.0,0.0,0.0,0.0,0.0,0.0,0.0,0.0,0.0,0.0,0.0,0.0,0.0,0.0,0.0,0.0,-4.6618,-4.6616,-4.6874,-4.7132,-4.687,-4.68,-4.687,-4.7443,-4.8932,-5.0822,-5.2607,-5.3353,-5.379,-5.4589,-5.3322,-5.1775,-5.0982,-5.0362,-4.9963,-4.9921,-4.9288,-4.8748,-4.8828,-4.8537,-4.8414,-4.8559,-4.8828,-4.9824,-5.1897,-5.3984,-5.6403,-5.9215,-6.2086,-6.4066,-6.5084,-6.3561,-6.3012,-6.4122,-6.1098,-6.0108,-6.1466,-6.2011,-6.3528,-6.6281,-6.6311,-6.652,-6.6999,-6.6999,-6.6999,-6.6999,-6.6999,-6.652,-6.5682,-6.5233,0.0,0.0,-6.3887,-6.3977,-6.4395,-6.4262,-6.5034,-6.6135,-6.6248,-6.7322,-6.8726,0.0,0.0,0.0,0.0,0.0,0.0,-4.3277,-4.4189,-4.555,-4.7976,-4.9072,-4.9911,-5.0729,-5.0068,-4.9591,-4.9554,-4.7315,0.0,0.0,0.0,0.0,0.0,0.0,0.0,0.0,0.0,-4.3998,-4.3998,-4.3509,-4.329,-4.3253,-4.1593,-4.0829,-4.076,0.0,0.0,0.0,0.0,0.0,0.0,0.0,0.0,0.0,0.0,0.0,0.0,0.0,0.0,0.0,0.0,0.0,0.0,0.0,-4.7901,-4.7238,-4.6428,-4.6832,-4.7606,-4.7679,-4.9388,-5.1758,-5.4062,-5.45,-5.4592,-5.5404,-5.3708,-5.1773,-5.0952,-5.078,-5.0794,-5.0802,-5.0198,-4.9686,-4.9686,-4.8432,-4.7981,-4.9758,-4.9805,-4.997,-5.0586,-5.2776,-5.4864,-5.6448,-6.1703,-6.5832,-6.7777,-6.7328,0.0,-6.7897,-6.7298,-6.5843,-6.3612,-6.504,-6.6311,-6.6969,-6.6969,-6.6969,-6.6999,-6.6999,-6.6999,-6.6999,-6.6999,-6.6281,0.0,0.0,0.0,0.0,-6.4485,-6.4246,-6.3314,-6.5985,-6.665,-6.6369,-6.8438,-6.9577,-7.006,0.0,0.0,0.0,0.0,0.0,0.0,0.0,-4.4525,-4.5553,-4.7976,-4.8519,-4.9212,-5.0655,-5.0068,-4.9811,-5.0362,-4.8159,0.0,0.0,0.0,0.0,0.0,0.0,0.0,0.0,0.0,-4.3998,-4.3998,-4.411,-4.4183,-4.4146,-4.3026,-4.2179,-4.1571,-4.0732,-3.9865,0.0,0.0,0.0,0.0,0.0,0.0,0.0,0.0,0.0,0.0,0.0,0.0,0.0,0.0,0.0,0.0,0.0,0.0,0.0,-4.7298,-4.7101,-4.6892,-4.6953,-4.8267,-5.0161,-5.2509,-5.3002,-5.3279,-5.5177,-5.4154,-5.2736,-5.2517,-5.1998,-5.1432,-5.0947,-5.0218,-4.9472,-4.8889,-4.8787,-4.8564,-4.7838,-5.003,-5.249,-5.4849,-6.0499,-6.4487,-6.4985,-6.6723,-6.8196,-6.9273,-6.8734,-6.8645,-6.9303,-6.8704,-6.7588,-6.5902,-6.6395,-6.6789,-6.6999,-6.6999,-6.6999,-6.6999,-6.6999,-6.6759,-6.634,-6.6789,-6.6281,0.0,0.0,0.0,0.0,-6.3887,-6.3977,-6.4453,-6.5341,-6.6506,-6.7683,-6.8798,-6.9577,-7.0161,0.0,0.0,0.0,0.0,0.0,0.0,0.0,-4.4672,-4.5369,-4.7168,-4.7936,-4.8962,-5.0618,-5.0362,-5.0362,-5.1169,-4.9554,0.0,0.0,0.0,0.0,0.0,0.0,0.0,0.0,-4.3912,-4.4207,-4.4682,-4.4468,-4.4561,-4.4824,-4.3312,-4.229,-4.1719,-4.0672,-3.9833,0.0,0.0,0.0,0.0,0.0,0.0,-4.5804,0.0,0.0,0.0,0.0,0.0,0.0,0.0,0.0,0.0,0.0,0.0,0.0,0.0,-4.7189,-4.676,-4.6991,-4.8416,-5.024,-5.2006,-5.2494,-5.3044,-5.4816,-5.4442,-5.3588,-5.3251,-5.307,-5.2687,-5.1956,-5.0835,-4.9881,-4.9385,-4.8729,-4.8361,-4.8258,-5.0708,-5.3849,-5.7798,-6.3498,-6.7298,-6.7837,-6.8764,-6.9632,-7.029,-6.9961,0.0,-7.032,-6.9931,-6.9243,-6.8166,-6.7627,-6.7358,-6.7358,-6.7119,-6.6879,-6.661,-6.661,-6.64,-6.6011,-6.6191,-6.5802,0.0,0.0,0.0,0.0,-6.3647,-6.4086,-6.5055,-6.595,-6.7187,-6.8691,-6.9277,-6.987,-7.0094,0.0,0.0,0.0,0.0,0.0,0.0,0.0,-4.4634,-4.4963,-4.5773,-4.7315,-4.893,-5.0545,-5.0765,-5.1132,-5.194,0.0,0.0,0.0,0.0,0.0,0.0,0.0,0.0,-4.4109,-4.4109,-4.4624,-4.5741,-4.4624,-4.4414,-4.5053,-4.2667,-4.1499,-4.1315,-4.0197,-3.9371,0.0,0.0,0.0,0.0,0.0,0.0,0.0,0.0,0.0,0.0,0.0,0.0,0.0,0.0,0.0,0.0,0.0,0.0,0.0,0.0,0.0,0.0,0.0,-4.959,-5.135,-5.2214,-5.2839,-5.3456,-5.4301,-5.4415,0.0,-5.3353,-5.3904,-5.426,-5.3435,-5.1951,-5.082,-5.0725,-4.8698,-4.7905,-5.0414,-5.2031,-5.482,-5.9967,-6.2899,-6.4934,-6.6101,-6.8585,-7.032,-7.0859,-7.0949,0.0,-7.0889,-7.0889,-7.0649,-7.0051,-6.8794,-6.8076,-6.7956,-6.7268,-6.664,-6.6071,-6.6041,-6.6011,-6.5981,-6.5413,-6.5114,0.0,0.0,0.0,0.0,-6.3824,-6.4532,-6.5282,-6.7409,-6.8658,-6.9244,-6.9917,-7.0128,-6.9823,0.0,0.0,0.0,0.0,0.0,0.0,0.0,0.0,0.0,0.0,-4.7315,-4.871,-4.9774,-5.0435,-5.1132,0.0,0.0,0.0,0.0,0.0,0.0,0.0,0.0,0.0,-4.4997,-4.4997,-4.5133,-4.541,-4.5133,-4.442,-4.3324,-4.324,-4.243,-4.1051,-4.1917,-4.1974,0.0,0.0,0.0,0.0,0.0,0.0,0.0,0.0,0.0,0.0,-4.7053,-4.6759,0.0,0.0,0.0,0.0,0.0,0.0,0.0,0.0,-4.8984,-4.9357,-4.9516,0.0,-4.9858,-5.1214,-5.2008,-5.2713,0.0,-5.3586,-5.3508,-5.3297,-5.3852,-5.4086,-5.3034,-5.2569,-5.1988,-5.0882,-5.0632,-5.0703,-5.1,-5.6161,-6.1164,-6.4904,-6.7687,-6.9034,-6.8375,-7.0201,-7.1278,-7.0919,0.0,-7.1427,-7.0919,-7.0889,-7.0829,-7.0679,-6.9931,-6.9004,-6.7986,-6.6819,-6.64,-6.6759,-6.6251,-6.6011,-6.6011,-6.637,-6.5981,0.0,0.0,0.0,-6.3854,-6.4575,-6.4936,-6.5359,-6.7967,-6.873,-6.8489,-6.9749,-6.9451,-6.8402,0.0,0.0,0.0,0.0,0.0,0.0,0.0,0.0,0.0,0.0,0.0,0.0,0.0,0.0,0.0,0.0,0.0,0.0,0.0,0.0,0.0,0.0,0.0,-4.5397,-4.5786,-4.5786,-4.6066,-4.6615,-4.5802,-4.5109,-4.456,-4.3828,-4.2949,-4.1981,-4.2549,-4.262,0.0,0.0,0.0,0.0,-4.5924,0.0,0.0,0.0,0.0,0.0,-4.6518,-4.6223,0.0,-4.7242,-4.7233,-4.6915,0.0,0.0,0.0,0.0,-4.9786,-5.057,-5.056,-5.0591,-5.0724,-5.1529,-5.223,-5.2872,-5.3243,-5.3626,-5.3862,-5.3862,-5.4023,-5.4011,-5.3416,-5.2992,-5.2507,-5.1785,-5.2642,-5.4001,-5.5969,-5.9877,-6.3887,-6.7478,-6.9423,-7.032,0.0,-7.1368,-7.1966,0.0,0.0,-7.1607,-7.0949,-7.0889,-7.0889,-7.0889,-7.029,-6.9482,-6.8465,-6.7418,-6.6789,-6.655,-6.6191,-6.5862,-6.5562,-6.5922,-6.5712,0.0,0.0,0.0,-6.5041,-6.543,-6.6117,-6.7132,-6.8242,-6.881,-6.9094,-6.9086,-6.8605,-6.7861,0.0,0.0,0.0,0.0,0.0,0.0,0.0,0.0,0.0,0.0,0.0,0.0,0.0,0.0,0.0,0.0,0.0,0.0,0.0,0.0,0.0,0.0,0.0,-4.6246,-4.6578,-4.661,-4.7068,-4.798,-4.657,-4.6027,-4.6382,-4.4554,-4.3662,-4.3561,-4.2791,-4.2547,0.0,0.0,-4.4975,-4.5538,-4.6294,0.0,0.0,0.0,0.0,0.0,0.0,0.0,0.0,-4.7271,-4.7427,-4.7178,-4.8557,0.0,0.0,0.0,0.0,0.0,-5.1531,-5.233,-5.3065,-5.2606,-5.301,-5.3613,-5.3547,-5.4067,-5.4504,-5.443,-5.4377,-5.4295,-5.4149,-5.3637,-5.3316,-5.3254,-5.4775,-5.7543,-6.2181,-6.3498,-6.5263,-6.8734,-6.9901,0.0,-7.0859,-7.2206,0.0,0.0,0.0,-7.1697,-7.0949,-7.0889,-7.0889,-7.0889,-7.038,-6.9752,-6.9004,-6.8226,-6.7268,-6.6161,-6.5951,-6.5682,-6.5323,-6.5114,-6.5084,-6.5173,0.0,0.0,-6.6133,-6.6449,-6.7604,-6.9151,-6.8748,-6.9194,-6.9857,-6.8571,-6.7929,-6.7658,0.0,0.0,0.0,0.0,0.0,0.0,0.0,0.0,0.0,0.0,0.0,0.0,0.0,0.0,0.0,0.0,0.0,0.0,0.0,0.0,0.0,-5.0472,-4.8196,-4.7094,-4.7499,-4.7499,-4.7367,-4.702,-4.7352,-4.6561,-4.4698,-4.558,-4.5726,-4.5264,-4.3786,-4.3869,-4.5061,-4.5711,-4.6079,-4.6271,-4.6972,0.0,0.0,0.0,0.0,0.0,0.0,0.0,0.0,-4.7567,-4.7792,-4.7866,-4.8754,0.0,0.0,0.0,0.0,0.0,-5.2943,-5.5056,-5.6471,-5.3922,-5.3856,-5.4432,-5.4431,-5.4465,-5.4466,-5.4128,-5.4955,-5.5576,-5.4755,-5.5071,-5.5501,-5.5586,-5.7766,-6.0954,-6.5592,-6.7298,-6.8525,-6.9692,0.0,-7.2056,-7.1009,0.0,0.0,0.0,0.0,-7.2206,-7.0979,-7.0889,-7.0889,-7.0889,-7.0799,-7.0201,-6.9004,-6.7777,-6.7029,-6.6819,-6.5712,-6.5712,-6.664,-6.5533,-6.5323,0.0,0.0,-6.6035,-6.6182,-6.799,-6.8895,-6.9313,-7.0348,-7.0186,-6.9248,-6.9011,-6.8098,-6.6948,0.0,0.0,0.0,0.0,0.0,0.0,0.0,0.0,0.0,0.0,0.0,0.0,0.0,0.0,0.0,0.0,0.0,0.0,0.0,0.0,0.0,-5.1463,-4.9517,-4.831,-4.8013,-4.7684,-4.7599,-4.772,-4.7366,-4.6822,-4.6116,-4.6083,-4.611,-4.6152,-4.4993,-4.5037,-4.5979,-4.6244,-4.6372,-4.6401,0.0,0.0,0.0,0.0,0.0,0.0,0.0,0.0,0.0,0.0,-4.7902,-4.8029,-4.8754,0.0,0.0,0.0,0.0,0.0,-5.2775,-5.4424,-5.598,-5.5446,-5.6765,-5.7938,-5.6796,-5.6545,-5.6282,-5.544,-5.5601,-5.5847,-5.5862,-5.7098,-5.908,-6.2132,-6.2993,-6.4515,-6.8076,-6.8495,-6.8944,0.0,0.0,-7.2265,0.0,0.0,0.0,0.0,0.0,0.0,-7.0979,-7.0889,-7.0889,-7.0889,-7.0889,-7.029,-6.9004,-6.8375,-6.7537,-6.646,-6.5832,-6.5503,-6.5353,-6.5144,-6.5437,-6.6101,0.0,-6.7323,-6.8396,-6.932,-6.9997,-7.0322,-7.0659,-7.006,-6.9011,-6.8166,-6.7421,-6.6812,0.0,0.0,0.0,0.0,0.0,0.0,0.0,0.0,0.0,0.0,0.0,0.0,0.0,0.0,0.0,0.0,0.0,0.0,0.0,0.0,-5.1977,-5.1977,-5.0802,-4.9698,-4.866,-4.7995,-4.7859,-4.8329,-4.749,-4.7484,-4.8245,-4.6828,-4.6515,-4.7108,-4.6285,-4.6112,-4.6448,-4.6766,-4.6696,-4.6477,0.0,0.0,0.0,0.0,0.0,0.0,0.0,0.0,0.0,0.0,0.0,0.0,0.0,0.0,0.0,-5.0553,-5.1528,-5.2572,-5.2775,-5.3922,-5.5378,-5.6528,-5.8287,-5.9607,-5.9086,-5.8678,-5.8204,-5.7775,-5.7524,-5.7444,-5.7583,-5.9267,-6.2113,-6.6816,-6.7059,-6.7627,-7.026,-6.9901,-6.9901,-7.1427,-7.2176,0.0,0.0,0.0,0.0,0.0,0.0,0.0,-7.0979,-7.0889,-7.0889,-7.0889,-7.0889,-7.029,-6.9004,-6.9004,-6.7986,-6.6011,-6.5862,-6.5144,-6.4006,-6.4246,-6.4789,-6.5699,-6.6526,-6.8011,-6.981,-7.0265,-7.0764,-7.1244,-7.0466,-6.962,-6.8639,-6.732,-6.6812,-6.6812,0.0,0.0,0.0,0.0,0.0,0.0,0.0,0.0,0.0,0.0,0.0,0.0,0.0,0.0,0.0,0.0,0.0,0.0,0.0,0.0,-5.1977,-5.1977,-5.1867,-5.114,-4.9631,-4.882,-4.8188,-4.7785,-4.837,-4.9076,-4.9894,-4.8294,-4.7945,-4.8594,-4.768,-4.6955,-4.6484,-4.7787,-4.7654,-4.6655,-4.7365,0.0,0.0,0.0,0.0,0.0,0.0,0.0,0.0,0.0,0.0,0.0,0.0,0.0,-5.1244,-5.1928,-5.2773,-5.3551,-5.4262,-5.5513,-5.6664,-5.6765,-5.5919,-5.6102,-6.0139,-5.9947,-5.9377,-6.1025,-6.1857,-6.1764,-6.0197,-6.1014,-6.2939,-6.5742,-6.7627,-6.9692,-7.2325,0.0,-7.3522,-7.3672,-7.427,0.0,0.0,0.0,0.0,0.0,0.0,0.0,-7.0979,-7.0889,-7.0889,-7.0889,-7.0889,-7.029,-6.9004,-6.9004,-6.7986,-6.6011,-6.5383,-6.4725,-6.3947,-6.2839,-6.2971,-6.4243,-6.5615,-6.7034,-6.8361,-7.0373,-7.1255,-7.1244,-7.0466,-6.9282,-6.7895,-6.7117,-6.6812,-6.6812,0.0,0.0,0.0,0.0,0.0,0.0,0.0,0.0,0.0,0.0,0.0,0.0,0.0,0.0,0.0,0.0,0.0,0.0,0.0,-5.172,-5.2197,-5.2711,-5.1793,-5.103,-5.0452,-4.9281,-4.8813,-4.9065,-4.8988,-4.9066,-4.9284,-4.8211,-4.7997,-4.8529,-4.7365,-4.7114,-4.7706,-4.7426,-4.7299,-4.7291,-4.7672,-4.7869,0.0,0.0,0.0,0.0,0.0,0.0,0.0,0.0,-4.9308,-4.9722,0.0,-5.0584,-5.1321,-5.2097,-5.2536,-5.2909,-5.3687,-5.5344,-5.7036,-5.7949,-5.7163,-5.702,-6.0146,-6.0836,-6.0896,-6.123,-6.2905,-6.394,-6.3249,-6.4545,-6.6219,-6.7657,-6.9871,-7.1936,-7.3313,-7.4091,-7.451,0.0,0.0,0.0,0.0,0.0,0.0,0.0,0.0,0.0,-7.0979,-7.0889,-7.0889,-7.0889,-7.0889,-7.029,-6.9004,-6.9004,-6.7777,-6.5413,-6.5144,-6.4665,-6.3947,-6.3477,-6.4228,-6.6026,-6.645,-6.7735,-6.9468,-6.9815,-6.9925,-6.9857,-6.9079,-6.8402,-6.7793,-6.7083,-6.6812,-6.6812,0.0,0.0,0.0,0.0,0.0,0.0,0.0,0.0,0.0,0.0,0.0,0.0,0.0,0.0,0.0,0.0,0.0,0.0,-5.0765,-5.1059,-5.172,-5.2784,-5.1756,-5.1334,-5.1592,-5.0222,-4.9533,-4.9556,-4.9401,-4.9227,-4.9129,-4.8363,-4.8317,-4.8812,-4.7109,-4.711,-4.8164,-4.7317,-4.7272,-4.7786,-4.8116,-4.8274,0.0,0.0,0.0,0.0,0.0,0.0,0.0,0.0,0.0,0.0,0.0,0.0,0.0,0.0,-5.301,-5.3484,-5.4059,-5.5448,-5.706,-5.8174,-5.7687,-5.7729,-6.0548,-6.1662,-6.2449,-6.3386,-6.4338,-6.5173,-6.5525,-6.6395,-6.7478,-6.8794,-7.1009,-7.2834,-7.3492,-7.4151,0.0,0.0,0.0,0.0,0.0,0.0,0.0,0.0,0.0,0.0,0.0,-7.0889,-7.0889,-7.0889,-7.0889,-7.029,-6.9004,-6.9004,-6.7867,-6.5652,-6.5648,-6.4865,-6.3348,-6.3789,-6.4831,-6.6241,-6.6772,-6.8011,-6.9451,-6.9214,-6.8944,-6.8673,-6.8132,-6.776,-6.7489,-6.7015,-6.6812,-6.6812,0.0,0.0,0.0,0.0,0.0,0.0,0.0,0.0,0.0,0.0,0.0,0.0,0.0,0.0,0.0,0.0,0.0,0.0,-5.0765,-5.0031,-5.0288,-5.1903,-5.1977,-5.2344,-5.3188,-5.1825,-5.033,-4.8778,-4.9595,-4.9951,-4.9867,-4.9139,-4.9126,-4.9568,-4.7358,-4.6891,-4.7726,-4.7726,-4.7763,-4.8003,-4.8714,-4.9018,-4.9018,0.0,0.0,0.0,0.0,0.0,0.0,0.0,-5.0058,0.0,0.0,0.0,0.0,0.0,-5.4566,-5.5719,-5.5656,-5.6199,-5.6835,-5.7061,-5.6797,-5.7497,-6.1656,-6.2599,-6.3797,-6.8114,-6.6944,-6.5374,-6.6762,-6.5951,-6.5922,-6.8555,-7.062,-7.2116,-7.2804,0.0,0.0,0.0,0.0,0.0,0.0,0.0,0.0,0.0,0.0,0.0,0.0,-7.0889,-7.0889,-7.0889,-7.0889,-7.029,-6.9034,-6.9004,-6.8315,-6.6969,-6.7035,-6.5381,-6.2235,-6.3469,-6.4151,-6.419,-6.6213,-6.7378,-6.7963,-6.8741,-6.8605,-6.7895,-6.7895,-6.7455,-6.6812,-6.6812,-6.6812,-6.6812,0.0,0.0,0.0,0.0,0.0,0.0,0.0,0.0,0.0,0.0,0.0,0.0,0.0,0.0,0.0,0.0,0.0,0.0,-5.0765,-5.0031,-5.0288,-5.1903,-5.0976,-5.0794,-5.1556,-5.0185,-4.9262,-4.8916,-4.8703,-4.8472,-4.8363,-4.8119,-4.8099,-4.8212,-4.7592,-4.7715,-4.8467,-4.8025,-4.815,-4.8748,-4.9492,-4.9763,-4.983,0.0,0.0,0.0,0.0,0.0,0.0,0.0,0.0,0.0,0.0,0.0,0.0,-5.4363,-5.4937,-5.5579,-5.5077,-5.5992,-5.7204,-5.7707,-5.8772,-6.047,-6.3587,-6.3148,-6.3537,-6.8118,-6.8024,-6.7274,-6.7567,-6.8136,-6.8465,-6.8315,-7.029,-7.1966,0.0,0.0,0.0,0.0,0.0,0.0,0.0,0.0,0.0,0.0,0.0,0.0,0.0,-7.05,-7.044,-7.0889,-7.047,-7.0081,-6.9692,-6.9243,-6.8906,-6.8531,-6.7579,-6.6622,-6.5668,-6.5963,-6.642,-6.6837,-6.6879,-6.7247,-6.7895,-6.759,-6.7354,-6.7151,-6.7151,-6.7015,-6.6812,-6.6812,-6.6812,-6.6812,0.0,0.0,0.0,0.0,0.0,0.0,0.0,0.0,0.0,0.0,-5.2242,0.0,0.0,0.0,0.0,0.0,0.0,0.0,0.0,-4.9701,-4.9695,-5.1019,-5.0198,-4.9959,-5.0545,-4.9691,-4.9217,-4.9018,-4.8813,-4.8517,-4.8176,-4.8142,-4.829,-4.8557,-4.8342,-4.862,-4.9306,-4.8931,-4.9052,-4.9492,-5.0255,-5.0561,-5.0604,0.0,0.0,0.0,0.0,0.0,0.0,0.0,0.0,0.0,0.0,0.0,0.0,-5.5756,-5.6399,-5.7111,-5.7569,-5.8038,-5.8819,-6.0087,-6.111,-6.2441,-6.5079,-6.546,-6.6072,-6.9166,-6.886,-6.8196,-6.9004,-6.9153,-6.9183,-6.9153,-7.047,-7.1487,0.0,0.0,0.0,0.0,0.0,0.0,0.0,0.0,0.0,0.0,0.0,0.0,0.0,-6.9782,-6.9871,-7.053,-7.0171,-6.9842,-6.9602,-6.9752,-6.967,-6.917,-6.8863,-6.8584,-6.8341,-6.772,-6.7476,-6.7603,-6.7074,-6.7049,-6.7421,-6.6981,-6.6812,-6.6812,-6.6812,-6.6812,-6.6812,-6.6812,-6.6812,-6.6812,0.0,0.0,0.0,0.0,0.0,0.0,0.0,0.0,0.0,0.0,-5.1643,-5.2065,0.0,0.0,0.0,0.0,0.0,0.0,0.0,0.0,-4.8831,-4.9767,-4.9847,-4.9927,-5.0092,-5.0057,-4.9708,-4.9086,-4.9605,-4.9412,-4.8722,-4.8847,-4.9331,-5.0011,-4.946,-4.9593,-5.0304,-5.0236,-5.0202,-5.0299,-5.1089,-5.1395,-5.1511,-5.2255,0.0,0.0,0.0,0.0,0.0,0.0,0.0,0.0,0.0,-5.4837,-5.5245,-5.726,-5.8348,-5.9439,-6.1535,-6.1165,-6.0755,-6.3128,-6.3357,-6.3771,-6.6425,-6.8572,-7.0111,-7.062,-6.9393,-6.8794,-7.056,-6.9453,-6.8824,-7.062,-7.0889,0.0,0.0,0.0,0.0,0.0,0.0,0.0,0.0,0.0,0.0,0.0,0.0,0.0,0.0,-6.8944,-6.9213,-6.9871,-6.9939,-6.9766,-6.9226,-7.0615,-7.0738,0.0,-7.0824,-7.0996,-7.0336,-6.8851,-6.773,-6.6964,-6.6839,-6.6812,-6.6812,-6.6812,-6.6812,-6.6812,-6.6812,-6.6812,-6.6812,-6.6812,-6.6779,-6.6711,0.0,0.0,0.0,0.0,0.0,0.0,0.0,0.0,0.0,0.0,0.0,0.0,0.0,0.0,0.0,0.0,0.0,0.0,0.0,0.0,-4.9748,-5.0633,-5.0786,-5.0899,-5.0929,-5.0351,-5.0017,-4.9864,-4.8863,-4.8277,-4.8107,-4.8685,-4.9365,-5.0113,-5.0536,-5.115,-5.1792,-5.1217,-5.098,-5.1082,-5.249,-5.3031,-5.3103,-5.3819,-5.3652,0.0,0.0,0.0,0.0,0.0,0.0,0.0,-5.5886,-5.6731,-5.7209,-5.7114,-5.8005,-5.9102,-5.9633,-5.9329,-5.9567,-6.2228,-6.4097,-6.5771,-6.7418,-6.8974,-6.9871,-6.9482,-6.9871,-7.041,-7.0829,-7.056,-7.041,-7.0829,0.0,0.0,0.0,0.0,0.0,0.0,0.0,0.0,0.0,0.0,0.0,0.0,0.0,0.0,-6.9004,-6.8495,-6.8495,-6.9183,-6.9824,-7.0277,-7.0677,-7.1709,-7.2508,0.0,-7.1909,-7.1519,-7.1892,-6.9839,-6.8102,-6.6877,-6.6863,-6.6812,-6.6812,-6.6812,-6.6812,-6.6812,-6.6812,-6.6812,-6.6812,-6.6812,-6.644,-6.5933,0.0,0.0,0.0,0.0,0.0,0.0,0.0,0.0,0.0,0.0,0.0,0.0,0.0,0.0,0.0,0.0,0.0,0.0,0.0,0.0,-4.9399,-4.9847,-5.0402,-5.0503,-5.0168,-5.0101,-5.0101,-5.0101,-4.8984,-4.8612,-4.8951,-4.9357,-5.0304,-5.1725,-5.2131,-5.2536,-5.2841,-5.2469,-5.2298,-5.2394,-5.354,-5.4017,-5.4192,-5.5211,-5.4974,-5.4059,-5.4426,0.0,0.0,0.0,0.0,0.0,0.0,0.0,-5.7518,-5.8205,-5.8903,-5.9844,-6.1268,-6.1616,-6.2142,-6.4721,-6.6668,-6.8091,-6.8415,-6.907,-6.9512,-6.9482,-6.9991,-7.056,-7.0859,-7.0649,-7.056,0.0,0.0,0.0,0.0,0.0,0.0,0.0,0.0,0.0,0.0,0.0,0.0,0.0,0.0,-6.9183,-6.8046,-6.7687,-6.8148,-6.9489,-6.9967,-7.0544,-7.1237,-7.2311,-7.29,-7.2937,-7.1848,-7.0943,-7.0195,-6.9045,-6.7895,-6.6812,-6.6812,-6.6812,-6.6812,-6.6812,-6.6812,-6.6812,-6.6812,-6.6812,-6.6812,-6.6812,-6.6339,-6.5696,0.0,0.0,0.0,0.0,0.0,0.0,0.0,0.0,0.0,0.0,0.0,0.0,0.0,0.0,0.0,0.0,0.0,0.0,0.0,0.0,0.0,-4.9045,-4.9699,-4.9864,-4.939,-4.983,-5.0135,-5.027,-4.9424,-4.9627,-5.0845,-5.0574,-5.1623,-5.3687,-5.3687,-5.3687,-5.3687,-5.3551,-5.3516,-5.3579,-5.4424,-5.47,-5.4771,-5.6052,-5.5886,-5.4907,-5.5477,-5.5778,-5.5875,-5.6018,0.0,0.0,0.0,0.0,-5.7525,-5.9336,-6.0057,-6.0882,-6.3358,-6.4619,-6.5634,-6.7434,-6.891,-6.9793,-6.8904,-6.874,-6.8974,-6.9512,-6.9812,-7.0171,-7.0799,-7.05,0.0,0.0,0.0,0.0,0.0,0.0,0.0,0.0,0.0,0.0,0.0,0.0,0.0,0.0,0.0,-6.9114,-6.7121,-6.7213,-6.8181,-6.9735,-7.0286,-7.0676,-7.1027,-7.2663,-7.2746,-7.1324,-7.1002,-6.9857,-6.7895,-6.776,-6.7387,-6.6812,-6.6812,-6.6812,-6.6812,-6.6812,-6.6812,-6.6812,-6.6812,-6.6812,-6.6812,-6.6812,-6.6339,-6.5662,0.0,0.0,0.0,0.0,0.0,0.0,0.0,0.0,0.0,0.0,-5.1419,-5.1917,0.0,0.0,0.0,0.0,0.0,0.0,-4.9962,0.0,0.0,-4.9916,-5.0028,-5.0338,-5.0913,-5.0371,-5.0405,-5.1082,-4.9695,-5.071,-5.3957,-5.2638,-5.2875,-5.4431,-5.4431,-5.4431,-5.4397,-5.3788,-5.3484,-5.3653,-5.504,-5.5139,-5.4702,-5.5553,-5.5719,-5.5593,-5.5621,-5.6135,-5.6752,-5.7369,-5.7577,0.0,0.0,0.0,-5.8783,-5.9055,-6.0057,-6.1229,-6.1603,-6.4128,-6.6582,-6.6322,-6.7796,-6.8907,-6.7607,-6.7687,-6.8136,0.0,-6.9153,-7.0171,-7.0799,0.0,0.0,0.0,0.0,0.0,0.0,0.0,0.0,0.0,0.0,0.0,0.0,0.0,0.0,0.0,-6.9666,0.0,-6.7091,-6.8206,-6.8753,-6.8343,-7.0803,-7.1546,-7.0304,-7.24,-7.2726,-7.1277,-7.0005,-6.8876,-6.7895,-6.7252,-6.6914,-6.6812,-6.6812,-6.6812,-6.6812,-6.6812,-6.6812,-6.6812,-6.6812,-6.6812,-6.6812,-6.6812,-6.6339,-6.5595,0.0,0.0,0.0,0.0,0.0,0.0,0.0,0.0,0.0,0.0,0.0,-5.1917,0.0,0.0,0.0,-4.9293,-4.9254,-4.9338,-4.9435,-4.9433,-4.9453,-4.9458,-5.027,-5.0473,-4.9999,-5.0473,-5.0676,-5.0574,-4.9526,-5.115,-5.5209,-5.4532,-5.5243,-5.7036,-5.619,-5.5818,-5.575,-5.46,-5.4127,-5.4161,-5.4804,-5.5143,-5.5278,-5.6029,-5.6336,-5.6401,-5.6757,-5.7161,-5.7538,-5.8225,-5.8502,-5.8642,-5.9021,0.0,0.0,0.0,-6.0419,-6.1851,-6.4346,-6.6181,-6.7787,-6.9188,-6.9969,-7.004,-6.8581,-6.8725,-6.8972,-6.8205,-6.8764,-6.9632,0.0,0.0,0.0,0.0,0.0,0.0,0.0,0.0,0.0,0.0,0.0,0.0,0.0,0.0,0.0,0.0,-7.1029,-7.0199,-6.9547,-7.0086,-7.041,-7.0546,-7.1309,-7.1489,-7.0857,-7.1378,-7.0872,-6.9383,-6.8741,-6.803,-6.7286,-6.6948,-6.6812,-6.6812,-6.6812,-6.6812,-6.6812,-6.6812,-6.6812,-6.6812,-6.6812,-6.6542,-6.617,-6.617,-6.5459,-6.441,0.0,0.0,0.0,0.0,0.0,0.0,0.0,0.0,0.0,0.0,0.0,0.0,0.0,0.0,0.0,0.0,-4.8494,-4.8699,-4.9012,-4.9018,-4.9086,-4.9255,-5.0338,-5.0507,-4.9593,-5.0642,-5.0947,-5.0371,-4.983,-5.186,-5.6258,-5.6258,-5.7746,-6.0351,-5.849,-5.734,-5.6731,-5.5412,-5.4974,-5.5145,-5.4737,-5.4941,-5.5517,-5.6464,-5.6949,-5.7124,-5.7683,-5.814,-5.8484,-5.8496,-5.8666,-5.893,-5.9485,-5.9797,0.0,0.0,0.0,-6.212,-6.5758,-6.7078,-6.7944,-7.0196,-7.0921,-7.068,-6.9413,0.0,-6.9845,0.0,-6.9305,0.0,0.0,0.0,0.0,0.0,0.0,0.0,0.0,0.0,0.0,0.0,0.0,0.0,0.0,0.0,0.0,0.0,0.0,-7.1757,-7.1132,-7.1456,-7.1609,-7.1555,-7.1423,-7.1003,-7.0466,-6.9688,-6.8842,-6.7895,-6.7726,-6.7354,-6.6812,-6.6609,-6.6643,-6.6812,-6.6609,-6.6542,-6.6508,-6.6339,-6.6237,-6.6237,-6.6237,-6.5899,-6.5425,-6.5425,-6.485,-6.4038,0.0,0.0,0.0,0.0,0.0,0.0,0.0,0.0,0.0,0.0,0.0,0.0,-5.0054,-4.9398,-4.8687,-4.785,-4.7865,-4.8206,-4.8951,-4.9018,-4.9323,-4.9999,-5.0101,0.0,-5.1082,-5.1183,-5.1183,-5.115,-5.1116,-5.3382,-5.778,-5.778,-6.0114,-6.4174,-6.1231,-5.8761,-5.6765,-5.5987,-5.6055,-5.6562,-5.5141,-5.46,-5.4837,-5.6264,-5.7195,-5.7837,-5.7857,-5.8806,-5.9755,-5.7897,-5.7733,-5.8308,-5.8419,-5.8897,-5.9734,0.0,0.0,0.0,-6.3339,-6.4788,-6.5841,-6.6051,-6.8186,-7.0041,0.0,0.0,-7.0108,0.0,0.0,0.0,0.0,0.0,0.0,0.0,0.0,0.0,0.0,0.0,0.0,0.0,0.0,0.0,0.0,0.0,0.0,0.0,0.0,-7.262,-7.0428,-7.1662,-7.1424,-6.9351,-7.0616,-7.0242,-6.8098,-6.7354,-6.7286,-6.7895,-6.7184,-6.6846,-6.6779,-6.6068,-6.6136,-6.6779,-6.6068,-6.5764,-6.5696,-6.4986,-6.4715,-6.4715,-6.4715,-6.4681,-6.4647,-6.4647,-6.5053,-6.5493,0.0,0.0,0.0,0.0,0.0,0.0,0.0,0.0,0.0,0.0,0.0,0.0,0.0,-4.982,-4.9321,-4.8592,-4.8972,-4.9424,-4.9695,-5.0168,-5.0338,-5.0101,-5.1488,-5.1961,-5.1251,-5.2198,-5.2198,-5.1217,-5.1217,-5.2773,-5.5784,-5.6731,-5.8287,-6.0283,-6.0148,-5.9674,-5.8795,-5.663,-5.5852,-5.6021,-5.5006,-5.5175,-5.6021,-5.6044,-5.7128,-5.8626,-5.8623,-5.9577,-6.0702,-5.9611,-6.0008,-6.0876,-6.0488,-6.0841,-6.1436,-6.1852,-6.2347,-6.2876,-6.3362,-6.4233,-6.5372,-6.6795,-6.8291,-6.9469,-6.9124,-7.0782,-7.1666,0.0,0.0,0.0,0.0,0.0,0.0,0.0,0.0,0.0,0.0,0.0,0.0,0.0,0.0,0.0,0.0,0.0,0.0,0.0,0.0,0.0,-7.2348,-7.2367,-7.1647,-6.9812,-6.9827,-6.9045,-6.7218,-6.6948,-6.6948,-6.7184,-6.6948,-6.6542,-6.6102,-6.5797,-6.5595,-6.5358,-6.4613,-6.4816,-6.5628,-6.4884,-6.4613,-6.4613,-6.4613,-6.4309,-6.3971,-6.4444,-6.4478,-6.4343,0.0,0.0,0.0,0.0,0.0,0.0,0.0,0.0,-5.1178,-5.0659,0.0,0.0,0.0,0.0,-4.9564,-4.9419,-5.0033,-5.0473,-5.0473,-5.0947,-5.1116,-5.0845,-5.2536,-5.3145,-5.2367,-5.3585,-5.3518,-5.1995,-5.1995,-5.301,-5.5006,-5.5987,-5.7374,-5.9032,-5.8998,-5.9539,-6.0385,-5.8423,-5.7442,-5.707,-5.5581,-5.5852,-5.7137,-5.69,-5.8191,-6.0163,-6.0425,-6.1307,-6.2266,-6.1213,-6.1271,-6.179,-6.1634,-6.1998,-6.2347,-6.2099,-6.2595,-6.308,-6.308,-6.3655,-6.4766,-6.698,-6.7726,-6.8243,-6.9543,0.0,-7.1589,0.0,0.0,0.0,0.0,0.0,0.0,0.0,0.0,0.0,0.0,0.0,0.0,0.0,0.0,0.0,0.0,0.0,0.0,0.0,0.0,0.0,-7.28,-7.2056,-7.0973,-6.9485,-6.8707,-6.7861,-6.6812,-6.6812,-6.6812,-6.6812,-6.6542,-6.617,-6.5662,-6.5189,-6.4816,-6.4546,-6.3565,-6.3835,-6.4884,-6.4174,-6.3869,-6.3869,-6.3869,-6.3565,-6.3226,-6.3971,-6.4072,-6.3971,0.0,0.0,0.0,0.0,0.0,0.0,0.0,0.0,-4.9996,-5.0055,0.0,0.0,0.0,0.0,0.0,-5.0168,-5.0913,-5.1319,-5.1285,-5.1319,-5.1623,-5.2266,-5.3112,-5.389,-5.4566,-5.5344,-5.5006,-5.3551,-5.3551,-5.4262,-5.5649,-5.5683,-5.7645,-6.1028,-5.8152,-5.849,-6.1197,-6.1129,-6.0723,-5.9844,-5.69,-5.663,-5.8084,-5.8761,-6.0427,-6.2518,-6.3216,-6.3958,-6.4315,-6.2416,-6.1327,-6.0876,-6.1547,-6.2032,-6.2279,-6.1503,-6.1818,-6.2415,0.0,0.0,0.0,-6.6137,-6.6171,0.0,-7.0263,0.0,-6.9435,0.0,0.0,0.0,0.0,0.0,0.0,0.0,0.0,0.0,0.0,0.0,0.0,0.0,0.0,0.0,0.0,0.0,0.0,0.0,0.0,-7.2056,-7.1312,-7.0534,-6.9417,-6.7895,-6.7184,-6.6812,-6.6812,-6.6779,-6.6779,-6.6779,-6.6,-6.5662,-6.5561,-6.4174,-6.3869,-6.441,-6.299,-6.2787,-6.3396,-6.2685,-6.2381,-6.2381,-6.2381,-6.2415,-6.2516,-6.326,-6.4005,-6.4749,0.0,0.0,0.0,0.0,0.0,-5.2478,-5.2642,-5.2116,-5.1628,0.0,0.0,0.0,-4.983,-5.0744,-5.1928,-5.3247,-5.4025,-5.4025,-5.2942,-5.3348,-5.3247,-5.2334,-5.4093,-5.4938,-5.46,-5.5852,-5.5784,-5.4296,-5.4296,-5.4228,-5.4126,-5.4668,-5.575,-5.7306,-5.8051,-5.8558,-5.8727,-5.7137,-5.7848,-5.9844,-5.69,-5.7881,-6.0994,-5.9573,-6.0782,-6.3222,-6.3408,-6.4363,-6.5177,-6.3732,-6.3684,-6.4081,-6.2683,-6.2313,-6.2279,-6.1503,-6.2245,-6.2978,-6.193,0.0,0.0,0.0,0.0,0.0,0.0,0.0,0.0,0.0,0.0,0.0,0.0,0.0,0.0,0.0,0.0,0.0,0.0,0.0,0.0,0.0,0.0,0.0,0.0,0.0,0.0,0.0,-7.2549,-7.1278,-7.0534,-6.8741,-6.7557,-6.7117,-6.6914,-6.6812,-6.6812,-6.6271,-6.6,-6.6,-6.5256,-6.4613,-6.4106,-6.37,-6.3057,-6.2212,-6.2347,-6.2212,-6.1941,-6.2245,-6.2381,-6.2381,-6.2381,-6.2719,-6.3294,-6.4038,-6.4749,-6.5493,0.0,0.0,0.0,0.0,0.0,-5.2889,-5.2889,-5.2563,-5.2289,0.0,0.0,0.0,-5.1014,-5.2909,-5.4296,-5.4566,-5.5277,-5.5209,-5.4025,-5.4363,-5.4059,-5.2841,-5.4668,-5.5513,-5.5074,-5.6494,-5.6528,-5.5074,-5.4735,-5.4228,-5.3518,-5.3585,-5.4194,-5.5277,-5.6292,-5.7002,-5.7306,-5.5074,-5.6089,-5.9066,-5.7645,-5.9032,-6.1806,-6.0766,-6.2063,-6.4436,-6.4796,-6.5883,-6.6895,-6.5496,-6.5361,-6.5278,-6.2729,-6.2584,-6.3069,-6.1704,-6.2561,-6.3679,-6.256,-6.3079,-6.4051,-6.4214,0.0,0.0,-6.5155,-6.4884,0.0,0.0,0.0,0.0,0.0,0.0,0.0,0.0,0.0,0.0,0.0,0.0,0.0,0.0,0.0,0.0,0.0,0.0,0.0,-7.3274,-7.1142,-6.9553,-6.8808,-6.7523,-6.6677,-6.6339,-6.6339,-6.6203,-6.5899,-6.5459,-6.5222,-6.5222,-6.4478,-6.3937,-6.3497,-6.3193,-6.2584,-6.1772,-6.2212,-6.2144,-6.1772,-6.2212,-6.2381,-6.2381,-6.2381,-6.2854,-6.3599,-6.4343,-6.5053,-6.5797,0.0,0.0,-5.2601,-5.2638,-5.267,-5.2736,-5.2773,-5.2739,-5.2739,0.0,-5.23,-5.2198,-5.3078,-5.5412,-5.6494,-5.5446,-5.5784,-5.575,-5.5006,-5.4803,-5.4397,-5.3653,-5.4972,-5.5716,-5.5716,-5.7137,-5.7205,-5.5852,-5.5074,-5.4329,-5.3619,-5.2807,-5.3145,-5.4431,-5.389,-5.4668,-5.6325,-5.46,-5.5344,-5.7712,-5.8558,-6.0013,-6.1704,-6.2377,-6.3973,-6.5914,-6.6542,-6.7674,-6.8601,-6.7235,-6.6272,-6.5278,-6.2514,-6.2978,-6.4199,-6.2106,-6.2978,-6.4478,-6.3761,-6.4065,-6.4889,-6.617,-6.4512,0.0,-6.5662,-6.4208,-6.3328,0.0,0.0,0.0,0.0,0.0,0.0,0.0,0.0,0.0,0.0,0.0,0.0,0.0,0.0,0.0,0.0,-7.3274,-7.209,-7.1379,-6.918,-6.759,-6.6846,-6.6745,-6.6373,-6.5696,-6.5595,-6.5256,-6.4613,-6.4444,-6.4377,-6.4343,-6.3632,-6.326,-6.326,-6.2584,-6.2279,-6.2279,-6.2279,-6.2279,-6.2279,-6.2347,-6.2381,-6.2381,-6.2381,-6.2888,-6.37,-6.4377,-6.5121,-6.5899,-5.3145,-5.3772,-5.4372,-5.4941,-5.5072,-5.5235,-5.5856,-5.5446,-5.548,-5.663,-5.6156,-5.6461,-5.8355,-5.8051,-5.8287,-5.9844,-5.8998,-5.8051,-5.7306,-5.6156,-5.5175,-5.4397,-5.5243,-5.5716,-5.5716,-5.7137,-5.7476,-5.6596,-5.5852,-5.5108,-5.4363,-5.3619,-5.3416,-5.3721,-5.416,-5.4296,-5.4228,-5.5581,-5.6156,-5.6258,-5.7577,-6.0452,-6.3971,-6.4131,-6.5217,-6.6609,-6.6745,-6.7015,-6.7167,-6.6914,-6.6272,-6.548,-6.4309,-6.4254,-6.4424,-6.3362,-6.3838,-6.4559,-6.4383,-6.4518,-6.4518,-6.4194,-6.4174,0.0,-6.2651,-6.2381,-6.2584,0.0,0.0,0.0,0.0,0.0,0.0,0.0,0.0,0.0,0.0,0.0,0.0,0.0,0.0,0.0,0.0,-7.3274,-7.209,-7.1379,-6.918,-6.759,-6.6846,-6.6237,-6.5831,-6.5696,-6.5121,-6.4749,-6.4613,-6.3429,-6.2821,-6.2821,-6.2076,-6.1738,-6.1738,-6.1569,-6.1501,-6.1501,-6.1501,-6.1501,-6.1569,-6.2144,-6.2381,-6.2381,-6.2381,-6.3193,-6.441,-6.4546,-6.5459,-6.6609,-5.3957,-5.4328,-5.4834,-5.5583,-5.569,-5.6065,-5.7175,-5.7036,-5.734,-5.8795,-5.9336,-5.9573,-5.9573,-5.9911,-6.0148,-6.0148,-5.9471,-5.8558,-5.7408,-5.6664,-5.575,-5.4634,-5.5649,-5.6089,-5.5716,-5.7137,-5.734,-5.6258,-5.5886,-5.5141,-5.4025,-5.3687,-5.3518,-5.3518,-5.389,-5.4059,-5.4093,-5.4837,-5.5581,-5.6461,-5.8693,-6.1163,-6.3599,-6.4742,-6.5895,-6.6812,-6.6812,-6.6812,-6.6796,-6.6825,-6.6522,-6.607,-6.4925,-6.5125,-6.5527,-6.481,-6.5149,-6.5595,-6.526,-6.5429,-6.5613,-6.5256,-6.4613,0.0,0.0,-6.2313,-6.1772,-6.3666,0.0,0.0,0.0,0.0,0.0,0.0,0.0,0.0,0.0,0.0,0.0,0.0,0.0,0.0,0.0,-7.1954,-7.0669,-6.918,-6.7996,-6.7184,-6.6846,-6.6102,-6.5527,-6.5155,-6.4072,-6.3328,-6.2956,-6.1806,-6.1231,-6.1231,-6.0892,-6.0689,-6.0723,-6.1129,-6.1298,-6.1332,-6.167,-6.1839,-6.1873,-6.2245,-6.2381,-6.2381,-6.2381,-6.3091,-6.4106,-6.4478,-6.529,-6.6305,-5.4566,-5.4601,-5.4839,-5.5547,-5.5822,-5.6367,-5.7679,-5.7881,-5.849,-6.0114,-6.1535,-6.1839,-6.0452,-6.1535,-6.1941,-6.0825,-5.9674,-5.8761,-5.8152,-5.7273,-5.6224,-5.4871,-5.6089,-5.6393,-5.5513,-5.6934,-5.7103,-5.5919,-5.5649,-5.4972,-5.3923,-5.3653,-5.3518,-5.3484,-5.3348,-5.3856,-5.4735,-5.389,-5.4938,-5.7442,-6.0047,-6.1434,-6.2212,-6.4593,-6.588,-6.6406,-6.6711,-6.6812,-6.6829,-6.6832,-6.6791,-6.6592,-6.5429,-6.5816,-6.6677,-6.6117,-6.6305,-6.6627,-6.6104,-6.6508,-6.7117,-6.6542,-6.5493,-6.4647,0.0,0.0,0.0,0.0,0.0,0.0,0.0,0.0,0.0,0.0,0.0,0.0,0.0,0.0,0.0,0.0,0.0,0.0,0.0,-7.0026,-6.8639,-6.6948,-6.6542,-6.644,-6.6576,-6.5899,-6.5087,-6.4208,-6.2888,-6.1839,-6.1095,-6.0283,-5.9877,-5.9911,-6.0047,-6.0114,-6.0148,-6.0926,-6.1366,-6.1535,-6.1975,-6.2245,-6.2381,-6.2381,-6.2381,-6.2381,-6.2381,-6.2922,-6.3802,-6.4377,-6.5155,-6.6,-5.4465,-5.4624,-5.4849,-5.5585,-5.6235,-5.695,-5.7789,-5.7881,-5.8693,-6.0892,-6.1873,-6.3024,-6.4749,-6.3396,-6.3599,-6.6643,-6.2076,-6.008,-6.2584,-5.9032,-5.6427,-5.5615,-5.6359,-5.6156,-5.4769,-5.6156,-5.6833,-5.6697,-5.5378,-5.4972,0.0,-5.4126,-5.3518,-5.3484,-5.2739,-5.3619,-5.5513,-5.4093,-5.5547,-5.8863,-5.9844,-6.0283,-6.0723,-6.3646,-6.4806,-6.5019,-6.6339,-6.6812,-6.6812,-6.6829,-6.6772,-6.6748,-6.6558,-6.666,-6.6779,-6.6711,-6.6745,-6.6812,-6.6745,-6.776,-6.8199,-6.5527,-6.6677,-6.7286,-6.2821,0.0,-6.3666,-6.211,0.0,-6.2347,-6.2584,0.0,0.0,0.0,0.0,0.0,0.0,0.0,0.0,0.0,0.0,0.0,0.0,0.0,-6.6373,-6.6779,-6.5595,-6.5121,-6.5764,-6.5121,-6.4072,-6.2685,-6.1839,-6.1028,-6.025,-5.9505,-5.9133,-5.9133,-5.981,-6.0114,-6.0148,-6.0926,-6.167,-6.2245,-6.167,-6.1806,-6.2381,-6.2381,-6.2381,-6.2381,-6.2381,-6.3226,-6.4478,-6.458,-6.5493,-6.6711,-5.4262,-5.4634,-5.4734,-5.5007,-5.5349,-5.5894,-5.7107,-5.9471,-6.1332,-6.1873,-6.2695,-6.3835,-6.5478,-6.3835,-6.3467,-6.5748,-6.3294,-6.1806,-6.2212,-6.0013,-5.8389,-5.7679,-5.7509,-5.7137,-5.6528,-5.6697,-5.6596,-5.6156,-5.5108,-5.4532,0.0,-5.3788,-5.3721,-5.4126,-5.3788,-5.4397,-5.5683,-5.504,-5.5683,0.0,0.0,-5.8829,-5.9268,-6.3589,-6.5522,-6.5967,-6.6609,-6.6812,-6.6627,-6.5817,-6.6068,-6.6704,-6.634,-6.6508,-6.688,-6.732,-6.7151,-6.6812,-6.6812,-6.7911,-6.8586,-6.644,-6.6846,-6.7083,-6.4444,-6.326,-6.2787,-6.3159,0.0,0.0,0.0,0.0,0.0,0.0,-6.3802,0.0,0.0,0.0,0.0,0.0,0.0,0.0,0.0,0.0,0.0,0.0,0.0,-6.4106,-6.441,-6.3734,-6.3024,-6.2415,-6.0825,-5.981,-5.9471,-5.8727,-5.8355,-5.8355,-5.9099,-5.9471,-5.9505,-6.0757,-6.1467,-6.1772,-6.1873,-6.211,-6.2381,-6.2381,-6.2381,-6.2415,-6.2854,-6.3429,-6.4005,-6.4444,-6.5256,-6.6203,-5.3923,-5.4296,-5.4296,-5.4296,-5.4465,-5.5074,-5.6562,-5.9573,-6.1772,-6.2042,-6.2865,-6.4067,-6.5816,-6.4872,-6.48,-6.6593,-6.5324,-6.414,-6.3497,-6.1738,-6.0419,-5.9674,-5.8896,-5.8287,-5.7915,-5.7171,-5.6461,-5.5716,-5.4769,-5.4329,0.0,-5.3788,-5.3991,-5.4905,-5.4905,-5.5412,-5.6325,-5.6325,-5.6664,-5.7306,-5.7949,-5.8558,-5.958,-6.3358,-6.5413,-6.6205,-6.6205,-6.6306,-6.6306,-6.5245,-6.5783,0.0,-6.6204,-6.639,-6.6914,-6.7455,-6.7218,-6.6812,-6.6812,-6.7911,-6.8654,-6.6711,-6.6508,-6.6474,-6.5087,-6.3599,-6.2854,-6.4038,-6.3057,0.0,0.0,0.0,-6.2076,-6.2618,0.0,-6.3294,0.0,-6.299,0.0,0.0,0.0,0.0,0.0,0.0,0.0,0.0,-6.3057,-6.2448,-6.2888,-6.2178,-6.167,-6.1467,-5.9877,-5.893,-5.8693,-5.8355,-5.8186,-5.822,-5.9167,-5.9641,-5.9674,-6.0994,-6.1603,-6.1637,-6.2144,-6.2381,-6.2381,-6.2381,-6.2516,-6.2753,-6.3294,-6.3768,-6.4174,-6.4715,-6.5358,-6.6068,-5.3382,-5.3551,-5.3551,-5.3551,-5.4126,-5.5074,-5.6562,-5.6934,-5.8051,-6.096,-6.2009,-6.3599,-6.6474,-6.7387,-6.8977,-7.1887,-6.8808,-6.732,-6.8774,-6.4749,-6.2009,-6.1264,-6.0452,-5.937,-5.7915,-5.7171,-5.6461,-5.5716,-5.4262,-5.4634,-5.6664,-5.4499,-5.4296,-5.5683,-5.5683,-5.6461,-5.7814,-5.7814,-5.9099,-6.0994,-5.9573,-6.0283,-6.2245,0.0,-6.3357,-6.464,-6.464,0.0,0.0,-6.5632,-6.6171,0.0,0.0,0.0,0.0,0.0,-6.6846,-6.6812,0.0,0.0,0.0,-6.5425,-6.5764,-6.6068,-6.3159,-6.4072,-6.5155,-6.3835,-6.5189,-6.617,-6.4783,-6.3937,-6.3463,-6.3463,-6.2888,0.0,0.0,0.0,0.0,0.0,0.0,0.0,0.0,0.0,0.0,-6.3463,-6.0825,-5.981,-6.1298,-6.0622,-5.9844,-5.9133,-5.9066,-5.866,-5.7915,-5.8626,-5.8964,-5.8998,-6.052,-6.1231,-6.1264,-6.2009,-6.2347,-6.2347,-6.2381,-6.2381,-6.2381,-6.2381,-6.2821,-6.3497,-6.3497,-6.4377,-6.5628,-6.5662,-6.6136,-6.6779,-5.4102,-5.4224,-5.3923,-5.2875,-5.2909,-5.3754,-5.5784,-5.734,-5.9505,-6.3024,-6.3819,-6.5688,-7.0039,-6.9568,-6.9854,-7.2168,-7.0804,-6.9586,-6.9147,-6.6711,-6.4986,-6.4241,-6.255,-6.1366,-6.0892,-5.9641,-5.8389,-5.7171,-5.6156,-5.5818,-5.6055,-5.4803,-5.4769,-5.5716,-5.5716,-5.6258,-5.7239,-5.822,-5.8524,-5.8321,0.0,-5.9911,-6.2482,0.0,0.0,-6.4585,-6.4593,-6.5067,0.0,-6.5682,-6.6205,-6.6812,-6.6812,-6.6812,-6.6812,-6.6812,-6.6812,0.0,0.0,0.0,-6.9214,-6.6711,0.0,0.0,0.0,-6.3362,-6.3971,-6.299,-6.4512,-6.5764,-6.4783,-6.441,-6.4072,-6.3599,-6.2888,-6.211,0.0,-5.9742,0.0,0.0,0.0,-6.2685,0.0,0.0,0.0,-6.1264,-5.9404,-5.849,0.0,-5.8795,-5.8524,-5.8287,-5.8761,-5.866,-5.7881,-5.8626,-5.9032,-5.9032,-5.9539,-6.0047,-6.052,-6.0757,-6.1163,-6.167,-6.167,-6.1941,-6.2415,-6.2922,-6.3294,-6.3599,-6.458,-6.5256,-6.5696,-6.5696,-6.617,-6.6812,-5.4931,-5.4319,-5.3551,-5.2841,-5.2942,-5.3687,-5.5446,-5.7814,-6.0554,-6.3802,-6.5191,-6.7547,-7.1559,-7.1312,-7.1459,-7.3012,-7.2766,-7.1751,-6.9992,-6.8977,-6.7827,-6.6542,-6.485,-6.3835,-6.3565,-6.1806,-6.0182,-5.866,-5.7679,-5.707,-5.6867,-5.531,-5.5006,-5.5716,-5.5987,-5.6224,-5.6562,-5.8558,-5.8693,-5.7611,0.0,-5.9607,0.0,0.0,-6.3708,-6.4119,0.0,-6.4211,-6.5284,-6.5312,-6.5952,-6.6812,-6.6812,-6.6812,-6.6812,-6.6812,-6.6812,-6.6914,-6.7387,-6.8233,0.0,-6.6846,-6.6406,0.0,-6.3666,0.0,-6.4783,-6.3768,-6.5358,-6.6609,-6.5561,-6.5155,-6.4647,-6.3666,-6.2651,-6.1197,0.0,-5.8152,-5.7611,-5.69,-5.9641,-6.14,-6.0926,-6.0655,-6.0283,-5.9742,-5.7848,-5.6833,0.0,0.0,-5.7239,-5.7476,-5.822,-5.8389,-5.7881,-5.8626,-5.9032,-5.9032,-5.9268,-5.9641,-6.0114,-6.0114,-6.0554,-6.1298,-6.1298,-6.1704,-6.2448,-6.3193,-6.3666,-6.4005,-6.5222,-6.5865,-6.6102,-6.6102,-6.6406,-6.6812,-5.5726,-5.3939,-5.2638,-5.3416,-5.4093,-5.4803,-5.5649,-5.822,-6.0892,-6.3328,-6.617,-6.8876,-7.121,-7.2732,-7.3916,-7.4661,-7.4728,-7.3815,-7.1684,-7.1481,-7.0466,-6.8166,-6.7354,-6.6609,-6.5764,-6.3666,-6.1772,-6.0216,-5.8727,-5.8321,-5.8896,-5.5987,-5.5006,-5.5683,-5.6393,-5.6325,-5.5956,-5.8835,-5.9682,-5.9072,-5.8998,-5.9471,-6.0207,-6.0939,-6.2152,-6.3283,-6.1852,-6.273,-6.454,-6.4588,-6.5564,-6.6779,-6.6812,-6.6812,-6.6812,-6.6812,-6.6812,-6.6812,-6.6846,-6.688,-6.6711,-6.5967,0.0,0.0,0.0,0.0,-6.7387,0.0,-6.7455,-6.8571,-6.6981,-6.6102,-6.5155,-6.3666,-6.2144,-5.9911,-5.6224,-5.6934,-5.7577,-5.69,-5.866,-5.9945,-5.9979,-5.937,-5.893,-5.8863,-5.6156,-5.4871,0.0,0.0,0.0,-5.6731,-5.7582,-5.7988,-5.7954,-5.8699,-5.9072,-5.9072,-5.9674,-6.0013,-6.0047,-6.0047,-6.0486,-6.1231,-6.1332,-6.1772,-6.2516,-6.3294,-6.4038,-6.4715,-6.5459,-6.617,-6.6812,-6.6812,-6.6812,-6.6812,-5.5035,-5.4388,-5.4059,-5.4262,-5.4025,-5.4397,-5.6258,-5.8084,-6.0689,-6.4613,-6.7726,-7.0669,-7.3477,-7.4593,-7.5439,-7.6251,-7.6318,-7.5811,-7.4661,-7.4086,-7.2766,-7.0534,-6.9722,-6.8436,-6.6576,-6.5425,-6.3835,-6.1806,-6.0283,-5.9066,-5.8152,-5.6292,-5.5243,-5.4871,-5.5074,-5.5724,-5.6705,-5.8599,-5.9598,-5.9907,-5.9259,-5.9776,0.0,0.0,-6.1648,-6.3415,-6.2459,-6.2809,-6.389,-6.4472,-6.5211,-6.6104,-6.6593,-6.6812,-6.6812,-6.6812,-6.6812,-6.6948,-6.7489,-6.7624,-6.7557,-6.7387,-6.6508,-6.5493,0.0,0.0,0.0,0.0,0.0,0.0,0.0,-6.5019,-6.4208,-6.2212,-6.0588,-5.8693,-5.6089,-5.6494,-5.7002,-5.6833,-5.7306,-5.7848,-5.8389,-5.8287,-5.7746,-5.663,-5.4837,0.0,0.0,0.0,0.0,-5.5987,-5.8391,-5.9392,-5.8806,-5.9598,-5.9977,-5.9977,-5.8957,-5.8761,-5.9302,-5.9302,-5.9708,-6.0486,-6.1603,-6.255,-6.3328,-6.4613,-6.5256,-6.5493,-6.6237,-6.6643,-6.6812,-6.6812,-6.6812,-6.6812,-5.5657,-5.5311,-5.5175,-5.5513,-5.548,-5.5953,-5.7543,-5.9066,-6.1264,-6.4749,-6.8132,-7.0939,-7.2935,-7.4695,-7.5879,-7.6352,-7.6386,-7.5912,-7.4796,-7.4965,-7.395,-7.1413,-7.121,-7.0094,-6.7861,-6.6745,-6.5087,-6.2888,-6.1028,-5.9336,-5.7848,-5.6055,-5.4634,-5.3619,-5.47,-5.5434,-5.6056,-5.8175,-5.9323,-5.9658,-5.922,-6.0122,0.0,-6.0909,-6.2042,-6.391,-6.317,-6.3306,-6.4085,-6.4864,-6.5546,-6.6238,-6.6627,-6.6812,-6.6812,-6.6812,-6.6812,-6.6914,-6.732,-6.7421,-6.7421,-6.7421,-6.6779,-6.6068,-6.5662,-6.5865,-6.6068,0.0,0.0,0.0,0.0,0.0,-6.3294,-6.0723,-5.9032,-5.7509,-5.5953,-5.6055,-5.6325,-5.6325,-5.69,-5.7171,-5.6968,-5.663,-5.6089,-5.5277,-5.416,0.0,0.0,0.0,0.0,-5.5756,-5.8702,-5.984,-5.9111,-5.9838,-5.9867,-5.9215,-5.8341,-5.8287,-5.9032,-5.9032,-5.9607,-6.0689,-6.1873,-6.2821,-6.3632,-6.5087,-6.5696,-6.5764,-6.6508,-6.6812,-6.6812,-6.6812,-6.6812,-6.6812,-5.6633,-5.6235,-5.6055,-5.6697,-5.7476,-5.8355,0.0,-6.0825,0.0,-6.4749,-6.8301,-7.0872,-7.1515,-7.4052,-7.5743,-7.5845,-7.5845,-7.5303,-7.4018,-7.5033,-7.4424,-7.1582,-7.1988,-7.121,-6.8977,-6.7557,-6.5696,-6.3362,-6.1163,-5.9201,-5.7408,-5.5378,-5.3619,-5.2198,-5.4303,-5.5022,0.0,-5.7725,-5.8978,-5.901,-5.914,-6.0469,-6.2361,-6.1766,-6.2872,-6.4561,-6.4019,-6.4166,-6.4698,-6.5426,-6.6092,-6.6627,-6.6779,-6.6812,-6.6812,-6.6812,-6.6812,-6.6812,-6.6812,-6.6812,-6.6812,-6.6812,-6.6812,-6.6812,-6.6812,-6.6812,-6.6812,-6.6812,-6.6812,-6.6542,0.0,0.0,-6.2279,-5.9336,-5.7881,-5.6867,-5.6224,-5.6055,-5.6021,-5.6122,-5.7171,0.0,0.0,0.0,0.0,0.0,0.0,0.0,0.0,0.0,0.0,0.0,-5.855,0.0,-5.9522,0.0,-5.9593,-5.8506,-5.8293,-5.8524,-5.9167,-5.9268,-6.008,-6.1501,-6.2313,-6.3091,-6.3903,-6.529,-6.5831,-6.5899,-6.6542,-6.6812,-6.6812,-6.6812,-6.6812,-6.6812,-5.5892,-5.6331,-5.6664,-5.6799,-5.7915,-5.9471,-6.1501,-6.3565,-6.5493,-6.7117,-7.0567,-7.2969,-7.3105,-7.4661,-7.598,-7.6623,-7.669,-7.6589,-7.6318,-7.5912,-7.4661,-7.2326,-7.1751,-7.0432,-6.8166,-6.7252,-6.5425,-6.2584,-6.0926,-5.8423,-5.5141,-5.416,-5.2875,-5.142,-5.1787,0.0,-5.4869,-5.717,0.0,-5.9116,-5.9667,-6.0917,-6.2438,-6.2922,-6.3758,-6.4653,-6.5155,-6.5047,-6.4687,-6.5474,-6.5766,-6.5952,-6.6593,-6.6812,-6.6812,-6.6812,-6.6812,-6.6812,-6.6812,-6.6812,-6.6812,-6.6812,-6.6812,-6.6812,-6.6812,-6.6812,-6.6812,-6.6812,-6.6812,-6.6406,-6.5053,0.0,0.0,-5.849,-5.8389,-5.8592,-5.8457,-5.7915,-5.7746,-5.8355,-5.8118,-5.7306,0.0,0.0,0.0,0.0,0.0,0.0,0.0,0.0,0.0,0.0,0.0,0.0,0.0,0.0,0.0,-6.1703,-6.0353,-5.9776,-5.9945,-6.0588,-6.1366,-6.2279,-6.3632,-6.4613,-6.5358,-6.6271,-6.6609,-6.6643,-6.6779,-6.6812,-6.6812,-6.6812,-6.6812,-6.6812,-5.6833,-5.7137,-5.7746,-5.893,-5.9742,0.0,0.0,-6.6,-6.7286,-6.6812,-6.9688,-7.1616,-7.1244,-7.3544,-7.5134,-7.5134,-7.5506,-7.554,-7.5168,-7.4762,-7.3956,-7.2585,-7.1885,-7.0583,-6.87,-6.7912,-6.5824,-6.2381,-6.087,-5.8212,-5.4566,-5.3847,-5.2482,-5.0642,-5.1486,-5.3122,0.0,0.0,0.0,-5.9181,-6.068,-6.2154,-6.3566,-6.3971,-6.4749,-6.5773,-6.5699,-6.5488,-6.5323,-6.605,-6.5986,-6.5851,-6.6559,-6.6525,-6.6272,-6.6745,-6.6812,-6.6812,-6.6812,-6.6812,-6.6812,-6.6812,-6.6812,-6.6812,-6.6812,-6.6812,-6.6812,-6.6812,-6.6812,-6.6373,-6.4884,-6.2787,0.0,0.0,0.0,-5.9742,-6.0148,-5.9539,-5.8896,-5.849,-5.8118,-5.7171,-5.531,0.0,0.0,0.0,0.0,0.0,0.0,0.0,0.0,0.0,0.0,0.0,0.0,0.0,0.0,-6.1229,-6.0476,-6.052,-6.1298,-6.1298,-6.211,-6.3565,-6.4275,-6.5019,-6.5764,-6.6508,-6.6812,-6.6812,-6.6812,-6.6812,-6.6812,-6.6812,-6.6812,-6.6812,-5.8287,-5.8355,-5.9032,-6.1163,-6.167,-6.2618,-6.5087,-6.7387,-6.8335,-6.6846,-6.8977,-7.0432,-6.9857,-7.2529,-7.4086,-7.3308,-7.3815,-7.3815,-7.3071,-7.3108,-7.2751,-7.1916,-7.1584,-7.0704,-6.9194,-6.8535,-6.6359,-6.2734,-6.1355,-5.8531,-5.4396,-5.3804,-5.2295,0.0,0.0,0.0,0.0,0.0,-5.8255,-5.9186,-6.1308,-6.3057,-6.441,-6.4329,-6.5275,-6.6492,-6.5884,-6.5725,-6.5801,-6.6316,-6.6068,-6.5564,-6.6154,-6.6086,-6.5867,-6.6424,-6.6745,-6.6846,-6.6812,-6.6812,-6.6812,-6.6812,-6.6812,-6.6812,-6.6812,-6.6812,-6.6812,-6.6812,-6.6677,-6.617,-6.485,-6.3193,0.0,0.0,0.0,0.0,-6.1467,-6.1129,-6.0216,-5.8558,-5.8637,-5.7729,-5.4873,0.0,0.0,0.0,0.0,0.0,0.0,0.0,0.0,0.0,0.0,-5.9408,-6.1213,0.0,-6.096,0.0,-6.0825,-6.1467,-6.2618,-6.2178,-6.3057,-6.4816,-6.4816,-6.5256,-6.5967,-6.6576,-6.6812,-6.6812,-6.6812,-6.6812,-6.6812,-6.6812,-6.6812,-6.6812,-5.9641,-5.9877,-6.0385,0.0,0.0,0.0,-6.4546,-6.6576,-6.8436,-6.962,-7.1176,-7.2157,-7.209,-7.3003,-7.3308,-7.2563,-7.2563,-7.2293,-7.1548,-7.173,-7.111,-6.949,-7.0384,-7.0078,-6.8327,-6.8223,-6.6725,-6.3776,-6.2788,-5.932,0.0,-5.3593,0.0,0.0,0.0,0.0,0.0,-5.5962,-5.7717,-5.9133,-6.0757,-6.2313,-6.362,-6.3559,-6.4536,-6.5817,-6.575,-6.573,-6.5765,-6.5767,-6.5335,-6.4695,-6.4802,-6.5324,-6.588,-6.5834,-6.639,-6.6914,-6.6846,-6.6812,-6.6812,-6.6812,-6.6812,-6.6812,-6.6812,-6.6812,-6.6812,-6.6812,-6.6271,-6.5561,-6.4749,-6.4444,-6.3666,0.0,0.0,0.0,0.0,-6.2821,-6.2381,-6.0148,-6.1165,-5.9978,-5.5006,-5.6422,0.0,0.0,-5.3335,0.0,0.0,0.0,0.0,-5.4796,0.0,-5.807,-6.0391,-6.0262,0.0,-6.3193,-6.3193,-6.326,-6.3429,-6.4038,-6.4783,-6.5595,-6.5595,-6.6,-6.6711,-6.6779,-6.6812,-6.6812,-6.6812,-6.6812,-6.6812,-6.6812,-6.6812,-6.6812,0.0,0.0,0.0,0.0,0.0,0.0,0.0,-6.7049,-6.8132,-6.8741,-7.0128,-7.0906,-7.0466,-7.1591,-7.1814,-7.0554,-7.1352,-7.137,-7.0026,-7.0089,-6.9883,-6.9344,-6.9858,-6.9776,-6.9095,-6.9637,-6.8392,-6.5247,-6.4421,-6.1636,-5.7057,0.0,0.0,0.0,0.0,-5.5426,-5.6385,-5.822,-5.9541,-6.0619,-6.2053,-6.2978,-6.3573,-6.3978,-6.4536,-6.4992,-6.4992,-6.4806,-6.4377,-6.4404,-6.4223,-6.4038,-6.4431,-6.5237,-6.6086,-6.6424,-6.7527,-6.8489,-6.7844,-6.7624,-6.7523,-6.6914,-6.6812,-6.6627,-6.6238,-6.612,-6.6,-6.5579,-6.5208,-6.5081,-6.5343,-6.471,-6.4421,0.0,0.0,0.0,0.0,-6.495,-6.3474,-6.1101,-5.9736,-5.7825,-5.4793,-5.4874,0.0,0.0,0.0,0.0,0.0,0.0,0.0,-5.518,0.0,-5.7463,-6.0289,-6.0671,-6.1501,-6.2854,-6.3294,-6.3734,-6.4174,-6.4478,-6.4986,-6.5696,-6.617,-6.6542,-6.6812,-6.6812,-6.6812,-6.6812,-6.6812,-6.6812,-6.6812,-6.6812,-6.6812,-6.6812,-6.3699,0.0,-6.4074,0.0,-6.5366,-6.5019,-6.6576,-6.7252,-6.759,-6.759,-6.8504,-6.918,-6.9113,-7.0174,-7.0309,-6.8895,-6.9799,-6.9967,-6.8556,-6.8929,-6.9232,-6.909,-6.9991,-7.0264,-6.9708,-7.0601,-6.9757,-6.6922,-6.611,0.0,0.0,0.0,0.0,0.0,-5.6863,-5.7911,-5.8579,-5.9892,-6.0662,-6.1238,-6.2358,-6.2978,-6.3235,-6.3721,-6.4045,-6.4285,-6.4285,-6.393,-6.3485,-6.3453,-6.3509,-6.3611,-6.4165,-6.5175,-6.6213,-6.668,-6.7862,-6.8844,-6.81,-6.7868,-6.7658,-6.6981,-6.6846,-6.6593,-6.5851,-6.573,-6.5522,-6.4735,-6.4397,-6.4631,-6.5745,-6.4858,-6.4772,-6.7127,0.0,0.0,0.0,-6.5521,-6.3681,-6.1569,-5.9168,-5.6912,-5.4747,-5.401,0.0,0.0,0.0,0.0,0.0,0.0,0.0,0.0,0.0,0.0,0.0,-6.0966,-6.1873,-6.2415,-6.3599,-6.4309,-6.4613,-6.5053,-6.5527,-6.6034,-6.6576,-6.6812,-6.6812,-6.6812,-6.6812,-6.6812,-6.6812,-6.6812,-6.6812,-6.6812,-6.6812,-6.6812,-6.4624,-6.5491,-6.6387,-6.7912,-6.742,-6.6779,-6.6812,-6.6812,-6.6812,-6.6812,-6.6846,-6.7421,-6.8944,-6.9113,-6.8774,-6.7996,-6.7929,-6.7624,-6.688,-6.8642,-6.9276,0.0,0.0,-7.1609,-6.9778,-7.0601,-7.0301,-6.8687,-6.7858,0.0,-6.2891,0.0,-6.0105,-5.9417,-6.0937,-6.0716,-5.9266,-6.007,-6.0289,-6.0182,-6.1003,-6.1782,-6.2415,-6.2415,-6.291,-6.3464,-6.3464,-6.3543,-6.3543,-6.3543,-6.3604,-6.3712,-6.3674,-6.4947,-6.6381,-6.6172,-6.678,-6.7491,-6.7346,-6.72,-6.6981,-6.6948,-6.688,-6.6593,-6.5851,-6.5677,-6.5447,-6.4762,-6.4038,-6.4019,-6.5642,-6.5273,-6.4841,-6.5008,0.0,0.0,0.0,-6.3608,-6.2948,-6.15,-6.0645,-5.8677,-5.4874,-5.4558,0.0,0.0,0.0,0.0,0.0,0.0,0.0,-5.3368,-5.6272,0.0,-5.7954,-6.0858,-6.2381,-6.2415,-6.4613,-6.529,-6.4647,-6.6136,-6.6779,-6.6812,-6.6812,-6.6812,-6.6812,-6.6812,-6.6812,-6.6812,-6.6812,-6.6812,-6.6812,-6.6812,-6.6812,-6.6812,-6.6251,-6.713,-6.7869,-6.8289,-6.803,-6.7787,-6.7787,-6.7787,-6.7501,-6.6862,-6.7373,-6.7706,-6.7574,-6.809,-6.8152,0.0,-6.8404,-6.8733,0.0,-6.8982,-6.9565,-6.9241,-7.0734,-7.1286,-7.0668,-7.1065,-7.0953,-7.0442,0.0,0.0,0.0,-6.3225,-6.253,-6.1784,-6.2855,-6.3012,-6.2422,-6.2112,-6.1603,-6.104,-6.1272,-6.1467,-6.1717,-6.2245,-6.2595,-6.273,-6.273,-6.273,-6.2853,-6.3457,-6.4072,-6.4707,-6.5338,-6.6352,-6.7201,-6.7149,-6.855,-6.9963,-6.9265,-6.9004,-6.8694,-6.804,-6.7269,-6.6492,-6.5211,-6.4146,-6.3521,-6.3758,-6.3238,-6.3299,-6.4953,-6.5056,-6.5526,-6.7366,-6.7312,0.0,-6.5604,0.0,-6.234,-6.0757,-5.8508,-5.6558,0.0,-5.4813,0.0,0.0,0.0,0.0,0.0,0.0,0.0,0.0,-5.6574,0.0,-5.937,-6.14,-6.2651,-6.3159,-6.4377,-6.5358,-6.6136,-6.6609,-6.6812,-6.6812,-6.6812,-6.6812,-6.6812,-6.6812,-6.6812,-6.6812,-6.6812,-6.6812,-6.6812,-6.6812,-6.6812,-6.6812,-6.714,-6.8057,-6.8663,-6.8948,-6.8399,-6.7955,-6.8234,-6.7759,-6.7161,-6.6553,-6.6679,-6.6599,-6.605,-6.6553,0.0,-6.6422,-6.7729,-6.8426,-6.7808,-6.8623,-6.9314,-6.9708,-7.0601,-7.093,-7.0601,0.0,0.0,-7.0748,-6.9502,-6.7724,-6.5448,-6.5426,-6.4985,-6.4214,-6.4414,-6.3982,-6.3046,-6.2162,-6.1349,-6.0556,-6.0489,-6.0791,-6.1369,-6.1784,-6.2364,-6.2892,-6.2892,-6.31,-6.3442,-6.3974,-6.4738,-6.5605,-6.6226,-6.6971,-6.771,-6.7982,-6.8951,-6.9814,-6.9577,-6.9412,-6.9104,-6.8497,-6.7844,-6.693,-6.5425,-6.4228,-6.3509,-6.3981,-6.368,-6.3854,-6.5267,-6.5554,-6.6172,-6.8147,-6.7171,-6.6064,-6.5455,0.0,-6.0555,-5.9509,0.0,0.0,0.0,-5.4613,0.0,0.0,0.0,0.0,0.0,0.0,0.0,-5.534,-5.7257,0.0,-6.0554,-6.2076,-6.3057,-6.3531,-6.4546,-6.5628,-6.6812,-6.6812,-6.6812,-6.6812,-6.6812,-6.6812,-6.6812,-6.6812,-6.6812,-6.6812,-6.7161,-6.7078,-6.6812,-6.7243,-6.7078,-6.6812,-6.7391,-6.8161,0.0,0.0,-6.8439,0.0,-6.8396,-6.7053,-6.5971,-6.5896,-6.5231,-6.4742,-6.4661,-6.4695,-6.485,-6.5541,0.0,0.0,0.0,-6.7926,-6.8873,-6.9849,-7.0734,-7.08,-6.9919,-7.15,-7.1523,-6.9823,-6.9222,-6.8531,-6.776,-6.7724,-6.7263,-6.6434,-6.551,-6.3841,-6.1511,-6.0666,-5.9808,-5.8923,-5.8942,-5.9851,-6.1133,-6.1267,-6.2298,-6.3619,-6.3692,-6.4245,-6.5001,-6.5119,-6.5668,-6.6406,-6.6482,-6.7065,-6.7888,-6.8603,-6.8218,-6.7799,-6.8735,-6.8808,-6.8656,-6.8778,-6.8451,-6.7638,-6.6195,-6.5449,-6.5062,-6.5092,-6.5022,-6.529,-6.6258,-6.6404,-6.6641,-6.7469,-6.555,-6.3823,-6.3711,0.0,-5.793,0.0,0.0,0.0,0.0,-5.4267,-5.4406,0.0,0.0,0.0,0.0,0.0,-5.615,-5.6767,-5.8311,-5.9877,-6.1366,-6.2787,-6.3565,-6.3666,-6.5087,-6.6136,-6.6812,-6.6812,-6.6812,-6.6862,-6.6862,-6.6946,-6.7029,-6.7029,-6.7029,-6.7112,-6.7911,-6.7787,-6.7112,-6.799,-6.7708,-6.7029,0.0,0.0,-6.8913,-6.9096,-6.8111,-6.7611,-6.8522,-6.7682,-6.6706,-6.5971,-6.638,-6.638,-6.5704,-6.5028,-6.4699,-6.5,-6.6247,-6.7364,-6.8187,-6.9596,-7.0865,-7.1794,-7.2071,-7.2071,-7.1854,-7.1076,-7.0144,-6.9133,-6.8972,-6.8825,-6.8641,-6.7981,-6.73,-6.647,-6.4949,-6.3292,-6.1482,-6.0046,-5.8914,-5.822,-5.8778,-5.922,-5.9689,-6.084,-6.195,-6.293,-6.351,-6.4245,-6.5125,-6.5823,-6.6209,-6.651,-6.7157,-6.7543,-6.7724,-6.7961,-6.822,-6.8772,-6.9625,-6.968,-6.9595,-6.957,-6.8099,-6.6462,-6.6002,-6.543,-6.5154,-6.5736,-6.5374,-6.5316,-6.6187,-6.6404,-6.646,-6.6736,-6.5162,-6.3243,-6.15,-5.9328,0.0,0.0,-5.5883,-5.5517,-5.5223,-5.5309,-5.5349,0.0,0.0,0.0,0.0,-5.7244,-5.8071,-5.7664,-5.9648,-6.1197,-6.211,-6.3057,-6.4072,-6.5189,-6.6102,-6.6643,-6.6812,-6.6812,-6.7161,-6.7866,-6.7866,-6.8301,-6.8982,-6.8982,-6.8982,-6.9056,-6.9241,-6.9203,-6.9056,-6.9241,-6.9168,-6.8982,-6.6276,-6.721,-6.8054,-6.8788,-6.8109,-6.7631,-6.8182,-6.7446,-6.6566,-6.5644,-6.5958,-6.6035,-6.5513,-6.5044,-6.4832,-6.4883,-6.5544,-6.6381,-6.7408,-6.8255,-6.9292,-7.0701,-7.0798,-7.0798,-7.0798,-7.0344,-6.9706,-6.8898,-6.8531,-6.8348,-6.8348,-6.7523,-6.6716,-6.5856,-6.4192,-6.2566,-6.0972,-5.9632,-5.8676,-5.7915,-5.8366,-5.9123,-6.0194,-6.1102,-6.2579,-6.4374,-6.4804,-6.5495,-6.6301,-6.6801,-6.699,-6.7089,-6.7543,-6.7687,-6.7687,-6.7687,-6.7963,-6.8471,-6.9337,-6.9724,-6.9889,-6.987,-6.8648,-6.7267,-6.6749,-6.6389,-6.6353,-6.6736,-6.6516,-6.6354,-6.6879,-6.6967,-6.6809,-6.6093,-6.4239,-6.215,-6.0139,-5.7485,0.0,-5.5669,-5.5036,-5.5014,-5.6119,-5.6508,-5.678,-5.6747,0.0,0.0,-5.7943,-5.9665,-5.997,-5.8457,-6.0317,-6.1839,-6.2888,-6.3632,-6.458,-6.5696,-6.5764,-6.617,-6.6812,-6.644,-6.695,-6.8189,-6.7842,-6.8409,-6.9672,-6.9318,-6.9389,-6.9778,-7.0196,-7.0127,-6.9778,-7.0196,-7.0058,-6.9708,-6.5852,-6.6219,-6.6806,-6.8274,-6.7726,-6.7212,-6.7504,-6.6676,-6.5754,-6.5032,-6.4894,-6.4841,-6.4841,-6.4817,-6.4888,-6.5019,-6.4793,-6.5117,-6.6337,-6.6356,-6.7094,-6.8811,-6.8873,-6.8873,-6.8873,-6.9441,-6.9265,-6.8348,-6.765,-6.7357,-6.7303,-6.6626,-6.5877,-6.5055,-6.3474,-6.1909,-6.0361,-5.9495,-5.871,-5.809,-5.809,-5.9366,-6.1345,-6.1603,-6.3512,-6.6038,-6.6296,-6.6973,-6.7687,-6.7687,-6.7687,-6.7687,-6.7687,-6.7687,-6.7687,-6.7687,-6.7614,-6.7724,-6.864,-6.932,-6.9701,-6.9613,-6.9113,-6.8507,-6.7524,-6.754,-6.7687,-6.7687,-6.7687,-6.7687,-6.7687,-6.7577,-6.7026,-6.5558,-6.3146,-6.0861,-5.926,0.0,-5.4278,-5.5482,-5.4938,-5.5224,-5.7157,-5.8116,-5.8665,-5.8875,-6.0553,-6.1384,0.0,-6.2091,-6.1796,-5.9808,-6.0909,-6.211,-6.3497,-6.4241,-6.4918,-6.5527,-6.525,-6.5671,-6.669,-6.6412,-6.7054,-6.8438,-6.784,-6.8571,-7.0056,-6.9379,-6.9522,-7.016,-7.0887,-7.062,-7.0018,-7.0851,-7.062,-6.9949,-6.4273,-6.5007,-6.5778,-6.6696,-6.5532,-6.5,-6.6443,-6.5311,-6.4216,-6.4072,-6.4063,-6.4076,-6.4076,-6.4037,-6.4266,-6.5046,-6.4953,-6.5601,-6.724,-6.7968,-6.8749,-6.9811,-6.9905,-6.9905,-6.9905,-6.8697,-6.7357,-6.5852,-6.5742,-6.5637,-6.5677,-6.5563,-6.5081,-6.4251,-6.3252,-6.1932,-6.0321,-5.9495,-5.9021,-5.8953,-5.8953,-5.9609,-6.0731,-6.2007,-6.3289,-6.4548,-6.5915,-6.6973,-6.7687,-6.7687,-6.7687,-6.7687,-6.7687,-6.7687,-6.7687,-6.7687,-6.7687,-6.7888,-6.8676,-6.8972,-6.8898,-6.8128,-6.7909,-6.7652,-6.6755,-6.7156,-6.7687,-6.7687,-6.7687,-6.7687,-6.7687,-6.7136,-6.6366,-6.5448,-6.2631,-5.9981,-5.8437,0.0,-5.6091,-5.5728,-5.7801,-5.9452,-5.9896,-6.0666,-6.1639,-6.2882,-6.2196,-6.2216,-6.3311,-6.3546,-6.3513,-6.3161,-6.2576,-6.2651,-6.3497,-6.4241,-6.4647,-6.4783,-6.6735,-6.7092,-6.6083,-6.8099,-6.9282,-6.9699,-7.0237,-7.1051,-7.2071,-7.1925,-7.1961,-7.1998,-7.1494,-7.1143,-7.1085,-7.1238,-7.1143,-7.1194,-6.3833,-6.4383,-6.4897,-6.5705,-6.5221,-6.4821,-6.5139,-6.4928,-6.4476,-6.4039,-6.4367,-6.4621,-6.4621,-6.4634,-6.4794,-6.5168,-6.5576,-6.5953,-6.6333,-6.6582,-6.7106,-6.8059,-6.7234,-6.6799,-6.6806,-6.6572,-6.6035,-6.5301,-6.5301,-6.5286,-6.5322,-6.4882,-6.4457,-6.4094,-6.3167,-6.2126,-6.101,-6.0607,-6.0178,-5.9795,-5.9796,-6.0544,-6.1736,-6.2458,-6.3832,-6.5404,-6.615,-6.699,-6.7687,-6.7687,-6.7687,-6.7687,-6.7687,-6.7687,-6.7687,-6.7687,-6.7687,-6.7871,-6.8659,-6.8568,-6.8257,-6.8311,-6.7981,-6.7577,-6.7193,-6.743,-6.7687,-6.7687,-6.7687,-6.7687,-6.7687,-6.701,-6.6239,-6.5433,-6.2192,0.0,0.0,-5.6912,-5.6104,-5.7418,-5.8916,-6.054,-6.2159,-6.2663,-6.3421,-6.4448,-6.3954,-6.4152,-6.5249,-6.4835,-6.4785,-6.5226,-6.4667,-6.4554,-6.4901,-6.4793,-6.4864,-6.5275,-6.5642,-6.5867,-6.5931,-6.7658,-6.8948,-6.994,-7.0301,-7.1017,-7.1835,-7.1394,-7.1211,-7.1174,-7.0807,-7.066,-7.0697,-7.1138,-7.1321,-7.1431,-6.3172,-6.3503,-6.3833,-6.4861,-6.4861,-6.453,-6.3906,-6.4163,-6.4163,-6.3356,-6.3943,-6.4457,-6.4457,-6.4787,-6.5007,-6.5007,-6.5778,-6.5962,-6.5375,-6.4927,-6.5144,-6.6098,-6.4914,-6.4136,-6.4017,-6.4672,-6.4934,-6.4714,-6.4714,-6.4714,-6.4692,-6.409,-6.3796,-6.3787,-6.3062,-6.2361,-6.1563,-6.1601,-6.127,-6.07,-6.0666,-6.1521,-6.2842,-6.3025,-6.4259,-6.5966,-6.6145,-6.6749,-6.743,-6.743,-6.754,-6.7687,-6.7687,-6.7687,-6.7687,-6.7687,-6.7687,-6.7834,-6.8458,-6.8164,-6.7834,-6.8458,-6.8164,-6.7687,-6.7687,-6.7687,-6.7687,-6.7687,-6.7687,-6.7687,-6.7687,-6.7046,-6.626,-6.5433,0.0,0.0,0.0,-5.7437,-5.6876,-5.9434,-6.0377,-6.1744,-6.4279,-6.4726,-6.5057,-6.5677,-6.5786,-6.6133,-6.6736,-6.6133,-6.5969,-6.6663,-6.611,-6.584,-6.584,-6.5338,-6.5294,-6.5712,-6.5091,-6.5373,-6.6318,-6.7433,-6.8686,-6.9937,-6.9937,-7.0337,-7.0991,-7.0367,-7.011,-7.0073,-6.9889,-6.9816,-6.9926,-7.0734,-7.0917,-7.0881,-6.1484,-6.1777,-6.2291,-6.3906,-6.3539,-6.2989,-6.2915,-6.2328,-6.1594,-6.0786,-6.1374,-6.1851,-6.1851,-6.3246,-6.42,-6.42,-6.4934,-6.5322,-6.5322,-6.4509,-6.4396,-6.5343,-6.5254,-6.4815,-6.4112,-6.4163,-6.3796,-6.2989,-6.2989,-6.2989,-6.2989,-6.2915,-6.2915,-6.2879,-6.2842,-6.2344,-6.1595,-6.1588,-6.1588,-6.153,-6.1521,-6.2017,-6.2879,-6.3713,-6.4104,-6.4369,-6.5154,-6.5925,-6.6586,-6.6589,-6.7083,-6.7687,-6.7687,-6.7687,-6.7687,-6.7687,-6.7687,-6.7687,-6.776,-6.7724,-6.7687,-6.776,-6.7724,-6.7687,-6.7687,-6.7687,-6.7687,-6.7687,-6.7687,-6.7687,-6.7687,-6.7046,-6.6223,-6.5396,0.0,0.0,-6.043,-6.0126,-6.0334,-6.1325,-6.3438,-6.5233,-6.6239,-6.6973,-6.7467,-6.7504,-6.754,-6.754,-6.7614,-6.754,-6.754,-6.7614,-6.5994,-6.5073,-6.5073,-6.5698,-6.5714,-6.511,-6.7318,-6.8058,-6.7544,-6.9122,-6.9998,-7.0127,-7.0127,-7.0127,-7.0183,-7.011,-7.011,-7.0036,-6.9302,-6.9009,-6.9082,-6.9889,-6.9706,-6.9302,-6.0639,-6.086,-6.1043,-6.1704,-6.152,-6.13,-6.13,-6.1043,-6.075,-6.0456,-6.0676,-6.1043,-6.1569,-6.2144,-6.2732,-6.3246,-6.4053,-6.4347,-6.3782,-6.4417,-6.4238,-6.2974,-6.3378,-6.333,-6.2585,-6.3042,-6.3135,-6.2805,-6.2805,-6.2805,-6.2805,-6.2805,-6.2548,-6.2071,-6.2585,-6.2347,-6.16,-6.16,-6.16,-6.16,-6.1606,-6.1818,-6.2155,-6.2989,-6.3613,-6.4149,-6.4457,-6.5081,-6.5778,-6.5763,-6.6276,-6.6953,-6.6953,-6.7283,-6.7687,-6.7687,-6.7687,-6.7687,-6.7687,-6.7687,-6.7687,-6.7687,-6.7687,-6.7687,-6.7687,-6.7687,-6.7687,-6.7687,-6.7687,-6.7687,-6.7687,-6.7046,-6.6553,-6.6769,0.0,-6.2595,-6.3356,-6.2524,-6.2426,-6.3723,-6.5169,-6.6345,-6.719,-6.7504,-6.7687,-6.7687,-6.7687,-6.7687,-6.7687,-6.721,-6.7173,-6.765,-6.6537,-6.6167,-6.664,-6.6427,-6.6128,-6.5904,-6.6798,-6.7378,-6.7656,-6.882,-6.9633,-7.011,-7.011,-6.9816,-6.9376,-6.9376,-6.9045,-6.8568,-6.8274,-6.8164,-6.8238,-6.9045,-6.9265,-6.9302,-5.9869,-6.0015,-6.0126,-6.0382,-6.0419,-6.0309,-6.0052,-6.0015,-5.9942,-5.9685,-5.9869,-6.0236,-6.0786,-6.108,-6.1545,-6.2352,-6.2718,-6.2915,-6.2805,-6.3906,-6.3892,-6.239,-6.2542,-6.2513,-6.1969,-6.2515,-6.2805,-6.2805,-6.2805,-6.2805,-6.2805,-6.2805,-6.2511,-6.1998,-6.2548,-6.2511,-6.1961,-6.1704,-6.1741,-6.1961,-6.1691,-6.1715,-6.2045,-6.2572,-6.3209,-6.3672,-6.3686,-6.4237,-6.4934,-6.4934,-6.5632,-6.6512,-6.6512,-6.7026,-6.7687,-6.7687,-6.7687,-6.7687,-6.7687,-6.7687,-6.7687,-6.7687,-6.7687,-6.7687,-6.7687,-6.7687,-6.776,-6.8017,-6.7871,-6.776,-6.8035,-6.743,-6.6973,-6.7266,-6.5433,-6.4296,-6.5197,-6.431,-6.3994,-6.5154,-6.5794,-6.6418,-6.7247,-6.71,-6.7136,-6.765,-6.7467,-6.743,-6.7687,-6.7173,-6.7153,-6.7684,-6.719,-6.699,-6.7337,-6.6972,-6.6794,-6.6794,-6.6794,-6.7193,-6.8051,-6.864,-6.9192,-6.9706,-6.9706,-6.9265,-6.8531,-6.8531,-6.8201,-6.7687,-6.7687,-6.7687,-6.7797,-6.8605,-6.8862,-6.8953,-5.9061,-5.9208,-5.9465,-6.0236,-6.0382,-6.0126,-5.9318,-5.9208,-5.8914,-5.8107,-5.8694,-5.9161,-5.9197,-5.9883,-6.0726,-6.1519,-6.0823,-6.1056,-6.2695,-6.2805,-6.3172,-6.4016,-6.3282,-6.2805,-6.2805,-6.2805,-6.2805,-6.2805,-6.2805,-6.2805,-6.2805,-6.2805,-6.2805,-6.2805,-6.2805,-6.2805,-6.2732,-6.1924,-6.2034,-6.2732,-6.1912,-6.2095,-6.2805,-6.2805,-6.2805,-6.2805,-6.2805,-6.3356,-6.409,-6.409,-6.5154,-6.6476,-6.6512,-6.7026,-6.7687,-6.7687,-6.7687,-6.7687,-6.7687,-6.7687,-6.7687,-6.7687,-6.7687,-6.7687,-6.7687,-6.7687,-6.7944,-6.8733,-6.8274,-6.7961,-6.8713,-6.8218,-6.7467,-6.6663,-6.6516,-6.6243,-6.5404,-6.5327,-6.5322,-6.5338,-6.5338,-6.5632,-6.6402,-6.5778,-6.5999,-6.7577,-6.6973,-6.6846,-6.765,-6.765,-6.7684,-6.7694,-6.7684,-6.73,-6.6507,-6.73,-6.7687,-6.7687,-6.7687,-6.8128,-6.8898,-6.8898,-6.8898,-6.8898,-6.8898,-6.8458,-6.7687,-6.7687,-6.7687,-6.7687,-6.7687,-6.7687,-6.7797,-6.8605,-6.8385,-6.7834,-5.8217,-5.8364,-5.8437,-5.8657,-5.8731,-5.8621,-5.84,-5.8364,-5.8253,-5.8033,-5.8217,-5.8547,-5.9154,-5.9412,-5.989,-6.0672,-6.054,-6.0591,-6.108,-6.163,-6.2071,-6.2328,-6.2658,-6.2805,-6.2805,-6.2805,-6.2805,-6.2805,-6.2805,-6.2805,-6.2805,-6.2805,-6.2511,-6.1961,-6.1961,-6.163,-6.108,-6.0272,-6.0346,-6.1091,-6.0871,-6.1238,-6.1998,-6.2585,-6.2805,-6.2805,-6.2805,-6.2989,-6.3209,-6.3209,-6.3906,-6.5007,-6.6145,-6.7026,-6.7687,-6.7687,-6.7687,-6.7687,-6.7687,-6.7687,-6.7687,-6.7687,-6.7687,-6.7687,-6.7687,-6.8128,-6.8605,-6.8862,-6.8697,-6.8623,-6.886,-6.8218,-6.7614,-6.7393,-6.7303,-6.723,-6.7046,-6.6973,-6.699,-6.699,-6.699,-6.6859,-6.6522,-6.6786,-6.6953,-6.6843,-6.6659,-6.6623,-6.6843,-6.6329,-6.6292,-6.6843,-6.6843,-6.699,-6.7337,-6.754,-6.7393,-6.6843,-6.743,-6.8128,-6.8898,-6.8311,-6.8385,-6.8862,-6.8311,-6.7907,-6.7687,-6.7687,-6.7687,-6.7687,-6.7687,-6.7687,-6.7724,-6.8,-6.7927,-6.776,-5.7446,-5.7776,-5.7997,-5.7997,-5.7997,-5.7997,-5.7997,-5.774,-5.7629,-5.796,-5.7446,-5.7491,-5.8603,-5.8447,-5.8713,-5.9845,-6.022,-6.0272,-5.9942,-6.0676,-6.1117,-6.1117,-6.1594,-6.1998,-6.2328,-6.2328,-6.2328,-6.2328,-6.2328,-6.2511,-6.2805,-6.2805,-6.2548,-6.2071,-6.1741,-6.1337,-6.0811,-5.9674,-5.9832,-6.0845,-6.0515,-6.0882,-6.1716,-6.2475,-6.2622,-6.2365,-6.2695,-6.2805,-6.2805,-6.2805,-6.3392,-6.4383,-6.5999,-6.6843,-6.7283,-6.7614,-6.7687,-6.7687,-6.7687,-6.7687,-6.7687,-6.7687,-6.7687,-6.7687,-6.7687,-6.8091,-6.8605,-6.9229,-6.888,-6.8605,-6.9265,-6.8439,-6.7687,-6.7687,-6.7687,-6.7687,-6.7687,-6.7687,-6.7577,-6.723,-6.723,-6.6916,-6.6066,-6.6492,-6.6696,-6.6512,-6.6769,-6.6953,-6.6953,-6.6512,-6.6512,-6.6973,-6.699,-6.7026,-6.7226,-6.7504,-6.7467,-6.699,-6.7467,-6.7944,-6.8421,-6.8238,-6.8274,-6.8421,-6.8238,-6.7981,-6.7687,-6.7687,-6.7687,-6.7687,-6.7687,-6.7687,-6.7724,-6.8073,-6.8385,-6.8566,-5.6658,-5.729,-5.7813,-5.796,-5.7923,-5.7923,-5.7997,-5.7336,-5.7079,-5.7813,-5.6565,-5.6198,-5.774,-5.7208,-5.7437,-5.8934,-5.9769,-5.9869,-5.9171,-5.9869,-6.0309,-6.0309,-6.0382,-6.0713,-6.1374,-6.152,-6.1594,-6.1594,-6.1594,-6.1961,-6.2695,-6.2695,-6.2695,-6.2658,-6.1851,-6.1435,-6.1263,-5.9736,-6.0015,-6.1445,-6.0682,-6.093,-6.1789,-6.2438,-6.2254,-6.1704,-6.2438,-6.2695,-6.2695,-6.2805,-6.3392,-6.4347,-6.5925,-6.6439,-6.6659,-6.7467,-6.7687,-6.7687,-6.7687,-6.7687,-6.7687,-6.7687,-6.7687,-6.7687,-6.7687,-6.776,-6.8238,-6.9779,-6.8862,-6.8312,-6.9798,-6.8769,-6.7687,-6.7687,-6.7687,-6.7687,-6.7687,-6.7687,-6.743,-6.6699,-6.6553,-6.6186,-6.5485,-6.5396,-6.5726,-6.6549,-6.721,-6.7577,-6.7577,-6.7577,-6.7577,-6.7577,-6.765,-6.7373,-6.6602,-6.7373,-6.765,-6.7577,-6.765,-6.7687,-6.7724,-6.8458,-6.8385,-6.7724,-6.8458,-6.8385,-6.7687,-6.7687,-6.7687,-6.7687,-6.7687,-6.7687,-6.7797,-6.8531,-6.9338,-6.9777,-5.5752,-5.6061,-5.6492,-5.7776,-5.7483,-5.7262,-5.7886,-5.7336,-5.6859,-5.7042,-5.619,-5.597,-5.6977,-5.6904,-5.7189,-5.8189,-5.84,-5.8437,-5.8253,-5.9024,-5.9465,-5.9465,-6.0052,-6.0199,-5.9758,-6.097,-6.1594,-6.1594,-6.1594,-6.1704,-6.1851,-6.1851,-6.1851,-6.1814,-6.1006,-6.0298,-5.9674,-5.8647,-5.9171,-6.0603,-6.0493,-6.1263,-6.2475,-6.1998,-6.1753,-6.1643,-6.1777,-6.1851,-6.1961,-6.2585,-6.3392,-6.4273,-6.5264,-6.5999,-6.6659,-6.7467,-6.7687,-6.7687,-6.7687,-6.7687,-6.7687,-6.7687,-6.7687,-6.7687,-6.7687,-6.8201,-6.8935,-6.9889,-6.9338,-6.8916,-6.9908,-6.8769,-6.7687,-6.7687,-6.7687,-6.7687,-6.7687,-6.7687,-6.765,-6.7467,-6.688,-6.6455,-6.6271,-6.6219,-6.6586,-6.7357,-6.7026,-6.6769,-6.6769,-6.6769,-6.6733,-6.6749,-6.7357,-6.7614,-6.743,-6.7577,-6.7357,-6.6769,-6.7393,-6.7687,-6.7687,-6.7871,-6.7834,-6.7687,-6.7871,-6.7834,-6.7687,-6.7687,-6.7687,-6.7687,-6.7687,-6.7687,-6.7724,-6.7872,-6.8568,-6.9336,-5.4435,-5.4858,-5.5477,-5.663,-5.6492,-5.6381,-5.6785,-5.6161,-5.5941,-5.6712,-5.575,-5.5647,-5.7169,-5.7014,-5.7116,-5.7923,-5.7997,-5.7997,-5.7997,-5.84,-5.8621,-5.8621,-5.9024,-5.9245,-5.9208,-6.0015,-6.0456,-6.0456,-6.086,-6.1043,-6.1043,-6.1043,-6.1227,-6.1557,-6.0382,-5.9784,-5.9674,-5.851,-5.8941,-6.042,-6.0371,-6.0909,-6.1667,-6.1618,-6.1117,-6.0515,-6.0871,-6.1275,-6.1704,-6.2548,-6.3099,-6.3613,-6.4457,-6.5007,-6.5595,-6.6769,-6.6863,-6.6699,-6.7504,-6.743,-6.7193,-6.7614,-6.7687,-6.7687,-6.7687,-6.8017,-6.8568,-6.9376,-6.888,-6.8587,-6.9394,-6.8549,-6.7687,-6.7687,-6.7687,-6.7687,-6.7687,-6.7687,-6.7687,-6.7687,-6.7337,-6.7079,-6.7079,-6.6696,-6.6843,-6.7614,-6.7283,-6.7063,-6.7063,-6.7063,-6.7063,-6.7079,-6.7467,-6.7687,-6.7687,-6.7687,-6.7467,-6.7063,-6.7504,-6.7687,-6.7687,-6.7687,-6.7687,-6.7687,-6.7687,-6.7687,-6.7687,-6.7687,-6.7687,-6.7687,-6.7687,-6.7687,-6.776,-6.8147,-6.8641,-6.897,-5.3086,-5.3688,-5.4436,-5.5277,-5.542,-5.5427,-5.5574,-5.4913,-5.4876,-5.6235,-5.5097,-5.503,-5.714,-5.7014,-5.7116,-5.7923,-5.7997,-5.7997,-5.7997,-5.7997,-5.7997,-5.7997,-5.7997,-5.8327,-5.8988,-5.9134,-5.9208,-5.9208,-5.9869,-6.0199,-6.0199,-6.0199,-6.0566,-6.1117,-5.9784,-5.9491,-5.9905,-5.8584,-5.8857,-6.0176,-6.0358,-6.0371,-6.0481,-6.1166,-6.0444,-5.9274,-5.9926,-6.0798,-6.1741,-6.2548,-6.2805,-6.2952,-6.3833,-6.409,-6.442,-6.6035,-6.604,-6.5823,-6.7266,-6.7193,-6.6846,-6.754,-6.7687,-6.7687,-6.7687,-6.7687,-6.7907,-6.8752,-6.8238,-6.7944,-6.8752,-6.8238,-6.7687,-6.7687,-6.7687,-6.7687,-6.7687,-6.7687,-6.7687,-6.7687,-6.7687,-6.765,-6.7504,-6.7026,-6.699,-6.765,-6.7687,-6.7687,-6.7687,-6.7687,-6.7687,-6.7687,-6.7687,-6.7687,-6.7687,-6.7687,-6.7687,-6.7687,-6.7687,-6.7687,-6.7687,-6.7687,-6.7687,-6.7687,-6.7687,-6.7687,-6.7687,-6.7687,-6.7687,-6.7687,-6.7687,-6.7687,-6.776,-6.8458,-6.8678,-6.8605,-5.2271,-5.2408,-5.2918,-5.446,-5.4675,-5.4803,-5.5464,-5.4913,-5.4473,-5.4693,-5.3922,-5.3739,-5.481,-5.6014,-5.7116,-5.7923,-5.7997,-5.7997,-5.7997,-5.7997,-5.7997,-5.7997,-5.7997,-5.8033,-5.8143,-5.8841,-5.9208,-5.9208,-5.9318,-5.9391,-5.9391,-5.9391,-5.9428,-5.9538,-5.9307,-5.8867,-5.8327,-5.807,-5.8557,-5.9448,-6.0151,-6.0371,-6.0432,-6.053,-6.0015,-5.92,-5.9311,-6.0309,-6.1752,-6.2535,-6.2805,-6.2952,-6.3833,-6.409,-6.442,-6.6035,-6.6423,-6.6553,-6.7467,-6.7614,-6.7577,-6.765,-6.7687,-6.7687,-6.7687,-6.7687,-6.7907,-6.8752,-6.8238,-6.7944,-6.8752,-6.8238,-6.7687,-6.7687,-6.7687,-6.7687,-6.7687,-6.7687,-6.7687,-6.7687,-6.7687,-6.743,-6.6733,-6.7173,-6.7577,-6.7687,-6.7687,-6.7687,-6.7687,-6.7687,-6.7687,-6.7687,-6.7687,-6.7687,-6.7687,-6.7687,-6.7687,-6.7687,-6.7687,-6.7687,-6.7687,-6.7687,-6.7687,-6.7687,-6.7687,-6.7687,-6.7687,-6.7687,-6.7687,-6.7687,-6.7687,-6.7687,-6.7687,-6.7797,-6.7834,-6.7834,-5.101,-5.1334,-5.1858,-5.3003,-5.3142,-5.3344,-5.4136,-5.3959,-5.3885,-5.4326,-5.4106,-5.4179,-5.4987,-5.6124,-5.7116,-5.7923,-5.7997,-5.7997,-5.7997,-5.7997,-5.7997,-5.7997,-5.7997,-5.7997,-5.7997,-5.8364,-5.8547,-5.8547,-5.8988,-5.8988,-5.8547,-5.8547,-5.8804,-5.9161,-5.8721,-5.86,-5.8677,-5.8694,-5.9127,-5.9918,-6.0267,-6.0408,-6.0345,-5.9907,-5.9516,-5.9237,-5.9688,-6.0367,-6.1043,-6.1862,-6.2425,-6.2879,-6.3246,-6.3392,-6.3613,-6.4824,-6.5176,-6.5453,-6.6696,-6.701,-6.7156,-6.7577,-6.7687,-6.7687,-6.7687,-6.7687,-6.7797,-6.8164,-6.7944,-6.7797,-6.8164,-6.7944,-6.7687,-6.7687,-6.7687,-6.7687,-6.7687,-6.7687,-6.7687,-6.7687,-6.7687,-6.754,-6.7173,-6.7467,-6.7687,-6.7687,-6.7687,-6.7687,-6.7687,-6.7266,-6.7046,-6.7046,-6.7046,-6.6826,-6.6349,-6.6806,-6.7043,-6.7026,-6.7026,-6.7247,-6.7687,-6.7687,-6.7687,-6.7687,-6.7687,-6.7687,-6.7687,-6.7687,-6.7687,-6.765,-6.721,-6.7026,-6.7063,-6.7504,-6.7687,-6.7687]}]]